Wetterdaten: Dienstag, 27.11.2018
Datum Zeit Temp. A. Feuchte A. Luftdruck Regen Wind Richtung Richtung Taupunkt Windben Empfang
27.11.2018 00:00 2,1 C 93 % 1015,1 hPa 0,0 l/m 0,2 km/h (0 Bft) O 79 1,1 C 3,1 km/h (1 Bft) 100 %
27.11.2018 00:01 2,1 C 93 % 1015,2 hPa 0,0 l/m 0,0 km/h (0 Bft) O 79 1,1 C 0,0 km/h (0 Bft) 100 %
27.11.2018 00:02 2,1 C 93 % 1015,2 hPa 0,0 l/m 0,0 km/h (0 Bft) O 79 1,1 C 0,0 km/h (0 Bft) 100 %
27.11.2018 00:03 2,1 C 93 % 1015,2 hPa 0,0 l/m 0,2 km/h (0 Bft) O 79 1,1 C 3,1 km/h (1 Bft) 100 %
27.11.2018 00:04 2,1 C 93 % 1015,2 hPa 0,0 l/m 0,0 km/h (0 Bft) O 79 1,1 C 0,0 km/h (0 Bft) 100 %
27.11.2018 00:05 2,1 C 93 % 1015,2 hPa 0,0 l/m 0,0 km/h (0 Bft) NO 47 1,1 C 0,0 km/h (0 Bft) 100 %
27.11.2018 00:06 2,1 C 93 % 1015,2 hPa 0,0 l/m 0,0 km/h (0 Bft) NO 47 1,1 C 0,0 km/h (0 Bft) 100 %
27.11.2018 00:07 2,1 C 93 % 1015,2 hPa 0,0 l/m 0,1 km/h (0 Bft) NO 48 1,1 C 3,1 km/h (1 Bft) 100 %
27.11.2018 00:08 2,1 C 93 % 1015,2 hPa 0,0 l/m 0,0 km/h (0 Bft) NO 48 1,1 C 0,0 km/h (0 Bft) 100 %
27.11.2018 00:09 2,1 C 93 % 1015,2 hPa 0,0 l/m 0,5 km/h (0 Bft) O-NO 58 1,1 C 3,1 km/h (1 Bft) 100 %
27.11.2018 00:10 2,1 C 93 % 1015,2 hPa 0,0 l/m 0,2 km/h (0 Bft) O-NO 58 1,1 C 3,1 km/h (1 Bft) 100 %
27.11.2018 00:11 2,1 C 93 % 1015,2 hPa 0,0 l/m 0,1 km/h (0 Bft) W 272 1,1 C 3,1 km/h (1 Bft) 100 %
27.11.2018 00:12 2,1 C 93 % 1015,2 hPa 0,0 l/m 0,0 km/h (0 Bft) W 278 1,1 C 0,0 km/h (0 Bft) 100 %
27.11.2018 00:13 2,1 C 93 % 1015,2 hPa 0,0 l/m 0,0 km/h (0 Bft) NW 304 1,1 C 0,0 km/h (0 Bft) 100 %
27.11.2018 00:14 2,1 C 93 % 1015,2 hPa 0,0 l/m 0,4 km/h (0 Bft) NO 55 1,1 C 3,1 km/h (1 Bft) 100 %
27.11.2018 00:15 2,1 C 93 % 1015,2 hPa 0,0 l/m 0,8 km/h (0 Bft) O 83 1,1 C 3,1 km/h (1 Bft) 100 %
27.11.2018 00:16 2,1 C 93 % 1015,2 hPa 0,0 l/m 0,7 km/h (0 Bft) W-NW 300 1,1 C 3,1 km/h (1 Bft) 100 %
27.11.2018 00:17 2,1 C 93 % 1015,2 hPa 0,0 l/m 1,3 km/h (1 Bft) NO 55 1,1 C 3,1 km/h (1 Bft) 100 %
27.11.2018 00:18 2,1 C 93 % 1015,2 hPa 0,0 l/m 0,0 km/h (0 Bft) NO 55 1,1 C 0,0 km/h (0 Bft) 100 %
27.11.2018 00:19 2,1 C 93 % 1015,2 hPa 0,0 l/m 0,0 km/h (0 Bft) NO 55 1,1 C 0,0 km/h (0 Bft) 100 %
27.11.2018 00:20 2,1 C 93 % 1015,2 hPa 0,0 l/m 0,1 km/h (0 Bft) NO 55 1,1 C 3,1 km/h (1 Bft) 100 %
27.11.2018 00:21 2,1 C 93 % 1015,2 hPa 0,0 l/m 0,1 km/h (0 Bft) NO 55 1,1 C 3,1 km/h (1 Bft) 100 %
27.11.2018 00:22 2,1 C 93 % 1015,2 hPa 0,0 l/m 0,1 km/h (0 Bft) NO 55 1,1 C 3,1 km/h (1 Bft) 100 %
27.11.2018 00:23 2,1 C 93 % 1015,2 hPa 0,0 l/m 0,1 km/h (0 Bft) NO 56 1,1 C 3,1 km/h (1 Bft) 100 %
27.11.2018 00:24 2,1 C 93 % 1015,2 hPa 0,0 l/m 1,8 km/h (1 Bft) NO 53 1,1 C 3,1 km/h (1 Bft) 100 %
27.11.2018 00:25 2,1 C 93 % 1015,2 hPa 0,0 l/m 0,0 km/h (0 Bft) NO 53 1,1 C 0,0 km/h (0 Bft) 100 %
27.11.2018 00:26 2,1 C 93 % 1015,2 hPa 0,0 l/m 0,1 km/h (0 Bft) NO 53 1,1 C 3,1 km/h (1 Bft) 100 %
27.11.2018 00:27 2,1 C 93 % 1015,2 hPa 0,0 l/m 0,0 km/h (0 Bft) NO 53 1,1 C 0,0 km/h (0 Bft) 100 %
27.11.2018 00:28 2,1 C 93 % 1015,3 hPa 0,0 l/m 0,0 km/h (0 Bft) NO 53 1,1 C 0,0 km/h (0 Bft) 100 %
27.11.2018 00:29 2,1 C 93 % 1015,3 hPa 0,0 l/m 0,0 km/h (0 Bft) NO 52 1,1 C 0,0 km/h (0 Bft) 100 %
27.11.2018 00:30 2,1 C 93 % 1015,3 hPa 0,0 l/m 0,0 km/h (0 Bft) NO 53 1,1 C 0,0 km/h (0 Bft) 100 %
27.11.2018 00:31 2,1 C 93 % 1015,3 hPa 0,0 l/m 0,0 km/h (0 Bft) NO 53 1,1 C 0,0 km/h (0 Bft) 100 %
27.11.2018 00:32 2,1 C 93 % 1015,3 hPa 0,0 l/m 0,1 km/h (0 Bft) NO 53 1,1 C 3,1 km/h (1 Bft) 100 %
27.11.2018 00:33 2,1 C 93 % 1015,4 hPa 0,0 l/m 0,0 km/h (0 Bft) NO 53 1,1 C 0,0 km/h (0 Bft) 100 %
27.11.2018 00:34 2,1 C 93 % 1015,3 hPa 0,0 l/m 0,1 km/h (0 Bft) NO 53 1,1 C 3,1 km/h (1 Bft) 100 %
27.11.2018 00:35 2,1 C 93 % 1015,3 hPa 0,0 l/m 0,0 km/h (0 Bft) NO 53 1,1 C 0,0 km/h (0 Bft) 100 %
27.11.2018 00:36 2,1 C 93 % 1015,4 hPa 0,0 l/m 0,0 km/h (0 Bft) NO 53 1,1 C 0,0 km/h (0 Bft) 100 %
27.11.2018 00:37 2,1 C 93 % 1015,3 hPa 0,0 l/m 0,2 km/h (0 Bft) NO 52 1,1 C 3,1 km/h (1 Bft) 100 %
27.11.2018 00:38 2,1 C 93 % 1015,4 hPa 0,0 l/m 0,0 km/h (0 Bft) NO 52 1,1 C 0,0 km/h (0 Bft) 100 %
27.11.2018 00:39 2,1 C 93 % 1015,3 hPa 0,0 l/m 0,0 km/h (0 Bft) NO 52 1,1 C 0,0 km/h (0 Bft) 100 %
27.11.2018 00:40 2,1 C 93 % 1015,5 hPa 0,0 l/m 0,0 km/h (0 Bft) NO 52 1,1 C 0,0 km/h (0 Bft) 100 %
27.11.2018 00:41 2,1 C 93 % 1015,5 hPa 0,0 l/m 0,0 km/h (0 Bft) NO 52 1,1 C 0,0 km/h (0 Bft) 100 %
27.11.2018 00:42 2,1 C 93 % 1015,4 hPa 0,0 l/m 0,6 km/h (0 Bft) NO 52 1,1 C 3,1 km/h (1 Bft) 100 %
27.11.2018 00:43 2,1 C 93 % 1015,4 hPa 0,0 l/m 0,0 km/h (0 Bft) NO 52 1,1 C 0,0 km/h (0 Bft) 100 %
27.11.2018 00:44 2,1 C 93 % 1015,4 hPa 0,0 l/m 0,0 km/h (0 Bft) NO 52 1,1 C 0,0 km/h (0 Bft) 100 %
27.11.2018 00:45 2,1 C 93 % 1015,3 hPa 0,0 l/m 0,0 km/h (0 Bft) NO 52 1,1 C 0,0 km/h (0 Bft) 100 %
27.11.2018 00:46 2,1 C 93 % 1015,4 hPa 0,0 l/m 0,0 km/h (0 Bft) NO 52 1,1 C 0,0 km/h (0 Bft) 100 %
27.11.2018 00:47 2,1 C 93 % 1015,4 hPa 0,0 l/m 0,0 km/h (0 Bft) NO 52 1,1 C 0,0 km/h (0 Bft) 100 %
27.11.2018 00:48 2,1 C 93 % 1015,4 hPa 0,0 l/m 0,0 km/h (0 Bft) NO 52 1,1 C 0,0 km/h (0 Bft) 100 %
27.11.2018 00:49 2,1 C 93 % 1015,3 hPa 0,0 l/m 0,0 km/h (0 Bft) NO 52 1,1 C 0,0 km/h (0 Bft) 100 %
27.11.2018 00:50 2,1 C 93 % 1015,3 hPa 0,0 l/m 0,1 km/h (0 Bft) O 94 1,1 C 3,1 km/h (1 Bft) 100 %
27.11.2018 00:51 2,1 C 93 % 1015,3 hPa 0,0 l/m 0,0 km/h (0 Bft) O 95 1,1 C 0,0 km/h (0 Bft) 100 %
27.11.2018 00:52 2,1 C 93 % 1015,3 hPa 0,0 l/m 0,3 km/h (0 Bft) O 94 1,1 C 3,1 km/h (1 Bft) 100 %
27.11.2018 00:53 2,1 C 93 % 1015,4 hPa 0,0 l/m 0,0 km/h (0 Bft) O 94 1,1 C 0,0 km/h (0 Bft) 100 %
27.11.2018 00:54 2,1 C 93 % 1015,3 hPa 0,0 l/m 0,0 km/h (0 Bft) O 94 1,1 C 0,0 km/h (0 Bft) 100 %
27.11.2018 00:55 2,1 C 93 % 1015,4 hPa 0,0 l/m 0,0 km/h (0 Bft) O 94 1,1 C 0,0 km/h (0 Bft) 100 %
27.11.2018 00:56 2,1 C 93 % 1015,3 hPa 0,0 l/m 0,0 km/h (0 Bft) O 94 1,1 C 0,0 km/h (0 Bft) 100 %
27.11.2018 00:57 2,1 C 93 % 1015,3 hPa 0,0 l/m 0,0 km/h (0 Bft) O 94 1,1 C 0,0 km/h (0 Bft) 98 %
27.11.2018 00:58 2,1 C 93 % 1015,4 hPa 0,0 l/m 0,2 km/h (0 Bft) NW 305 1,1 C 3,1 km/h (1 Bft) 100 %
27.11.2018 00:59 2,1 C 93 % 1015,4 hPa 0,0 l/m 0,0 km/h (0 Bft) NW 305 1,1 C 0,0 km/h (0 Bft) 100 %
27.11.2018 01:00 2,1 C 93 % 1015,4 hPa 0,0 l/m 0,0 km/h (0 Bft) NW 305 1,1 C 0,0 km/h (0 Bft) 92 %
27.11.2018 01:01 2,1 C 93 % 1015,4 hPa 0,0 l/m 0,0 km/h (0 Bft) NW 305 1,1 C 0,0 km/h (0 Bft) 97 %
27.11.2018 01:02 2,1 C 93 % 1015,4 hPa 0,0 l/m 0,0 km/h (0 Bft) NW 305 1,1 C 0,0 km/h (0 Bft) 100 %
27.11.2018 01:03 2,1 C 93 % 1015,4 hPa 0,0 l/m 0,0 km/h (0 Bft) NW 305 1,1 C 0,0 km/h (0 Bft) 100 %
27.11.2018 01:04 2,1 C 93 % 1015,4 hPa 0,0 l/m 0,0 km/h (0 Bft) NW 305 1,1 C 0,0 km/h (0 Bft) 100 %
27.11.2018 01:05 2,1 C 93 % 1015,4 hPa 0,0 l/m 0,0 km/h (0 Bft) NW 305 1,1 C 0,0 km/h (0 Bft) 100 %
27.11.2018 01:06 2,1 C 93 % 1015,4 hPa 0,0 l/m 0,0 km/h (0 Bft) NW 305 1,1 C 0,0 km/h (0 Bft) 93 %
27.11.2018 01:07 2,1 C 93 % 1015,4 hPa 0,0 l/m 0,0 km/h (0 Bft) NW 305 1,1 C 0,0 km/h (0 Bft) 100 %
27.11.2018 01:08 2,1 C 93 % 1015,4 hPa 0,0 l/m 0,0 km/h (0 Bft) NW 305 1,1 C 0,0 km/h (0 Bft) 100 %
27.11.2018 01:09 2,1 C 93 % 1015,4 hPa 0,0 l/m 0,0 km/h (0 Bft) NW 305 1,1 C 0,0 km/h (0 Bft) 100 %
27.11.2018 01:10 2,1 C 93 % 1015,4 hPa 0,0 l/m 0,0 km/h (0 Bft) NW 305 1,1 C 0,0 km/h (0 Bft) 100 %
27.11.2018 01:11 2,1 C 93 % 1015,4 hPa 0,0 l/m 0,0 km/h (0 Bft) NW 305 1,1 C 0,0 km/h (0 Bft) 100 %
27.11.2018 01:12 2,1 C 93 % 1015,4 hPa 0,0 l/m 0,0 km/h (0 Bft) NW 305 1,1 C 0,0 km/h (0 Bft) 96 %
27.11.2018 01:13 2,1 C 93 % 1015,4 hPa 0,0 l/m 0,0 km/h (0 Bft) NW 306 1,1 C 0,0 km/h (0 Bft) 100 %
27.11.2018 01:14 2,1 C 93 % 1015,4 hPa 0,0 l/m 0,0 km/h (0 Bft) NW 306 1,1 C 0,0 km/h (0 Bft) 100 %
27.11.2018 01:15 2,1 C 93 % 1015,5 hPa 0,0 l/m 0,0 km/h (0 Bft) NW 306 1,1 C 0,0 km/h (0 Bft) 96 %
27.11.2018 01:16 2,1 C 93 % 1015,5 hPa 0,0 l/m 0,0 km/h (0 Bft) NW 306 1,1 C 0,0 km/h (0 Bft) 100 %
27.11.2018 01:17 2,1 C 93 % 1015,5 hPa 0,0 l/m 0,0 km/h (0 Bft) NW 306 1,1 C 0,0 km/h (0 Bft) 96 %
27.11.2018 01:18 2,1 C 93 % 1015,5 hPa 0,0 l/m 1,0 km/h (0 Bft) NO 39 1,1 C 3,1 km/h (1 Bft) 100 %
27.11.2018 01:19 2,1 C 93 % 1015,5 hPa 0,0 l/m 0,0 km/h (0 Bft) NO 39 1,1 C 0,0 km/h (0 Bft) 100 %
27.11.2018 01:20 2,1 C 93 % 1015,5 hPa 0,0 l/m 0,0 km/h (0 Bft) NO 39 1,1 C 0,0 km/h (0 Bft) 100 %
27.11.2018 01:21 2,1 C 93 % 1015,5 hPa 0,0 l/m 0,0 km/h (0 Bft) NO 39 1,1 C 0,0 km/h (0 Bft) 100 %
27.11.2018 01:22 2,1 C 93 % 1015,5 hPa 0,0 l/m 0,0 km/h (0 Bft) NO 39 1,1 C 0,0 km/h (0 Bft) 100 %
27.11.2018 01:23 2,1 C 93 % 1015,6 hPa 0,0 l/m 0,0 km/h (0 Bft) NO 39 1,1 C 0,0 km/h (0 Bft) 97 %
27.11.2018 01:24 2,1 C 93 % 1015,6 hPa 0,0 l/m 0,0 km/h (0 Bft) NO 39 1,1 C 0,0 km/h (0 Bft) 100 %
27.11.2018 01:25 2,1 C 93 % 1015,5 hPa 0,0 l/m 0,0 km/h (0 Bft) NO 39 1,1 C 0,0 km/h (0 Bft) 96 %
27.11.2018 01:26 2,1 C 93 % 1015,5 hPa 0,0 l/m 0,0 km/h (0 Bft) NO 39 1,1 C 0,0 km/h (0 Bft) 96 %
27.11.2018 01:27 2,1 C 93 % 1015,5 hPa 0,0 l/m 0,0 km/h (0 Bft) NO 39 1,1 C 0,0 km/h (0 Bft) 100 %
27.11.2018 01:28 2,1 C 93 % 1015,5 hPa 0,0 l/m 0,0 km/h (0 Bft) NO 39 1,1 C 0,0 km/h (0 Bft) 96 %
27.11.2018 01:29 2,1 C 93 % 1015,5 hPa 0,0 l/m 0,0 km/h (0 Bft) NO 39 1,1 C 0,0 km/h (0 Bft) 100 %
27.11.2018 01:30 2,1 C 93 % 1015,5 hPa 0,0 l/m 0,0 km/h (0 Bft) NO 39 1,1 C 0,0 km/h (0 Bft) 96 %
27.11.2018 01:31 2,1 C 93 % 1015,5 hPa 0,0 l/m 0,0 km/h (0 Bft) NO 39 1,1 C 0,0 km/h (0 Bft) 100 %
27.11.2018 01:32 2,1 C 93 % 1015,5 hPa 0,0 l/m 0,0 km/h (0 Bft) NO 39 1,1 C 0,0 km/h (0 Bft) 96 %
27.11.2018 01:33 2,1 C 93 % 1015,5 hPa 0,0 l/m 0,0 km/h (0 Bft) NO 39 1,1 C 0,0 km/h (0 Bft) 96 %
27.11.2018 01:34 2,1 C 93 % 1015,6 hPa 0,0 l/m 0,0 km/h (0 Bft) NO 39 1,1 C 0,0 km/h (0 Bft) 100 %
27.11.2018 01:35 2,1 C 93 % 1015,6 hPa 0,0 l/m 0,0 km/h (0 Bft) NO 39 1,1 C 0,0 km/h (0 Bft) 100 %
27.11.2018 01:36 2,1 C 93 % 1015,5 hPa 0,0 l/m 0,1 km/h (0 Bft) NO 39 1,1 C 3,1 km/h (1 Bft) 96 %
27.11.2018 01:37 2,1 C 93 % 1015,6 hPa 0,0 l/m 0,0 km/h (0 Bft) NO 39 1,1 C 0,0 km/h (0 Bft) 96 %
27.11.2018 01:38 2,1 C 93 % 1015,6 hPa 0,0 l/m 0,0 km/h (0 Bft) NO 39 1,1 C 0,0 km/h (0 Bft) 100 %
27.11.2018 01:39 2,1 C 93 % 1015,6 hPa 0,0 l/m 0,0 km/h (0 Bft) NO 39 1,1 C 0,0 km/h (0 Bft) 96 %
27.11.2018 01:40 2,1 C 93 % 1015,6 hPa 0,0 l/m 0,0 km/h (0 Bft) NO 39 1,1 C 0,0 km/h (0 Bft) 100 %
27.11.2018 01:41 2,1 C 93 % 1015,6 hPa 0,0 l/m 0,0 km/h (0 Bft) NO 39 1,1 C 0,0 km/h (0 Bft) 96 %
27.11.2018 01:42 2,1 C 93 % 1015,6 hPa 0,0 l/m 0,0 km/h (0 Bft) NO 39 1,1 C 0,0 km/h (0 Bft) 100 %
27.11.2018 01:43 2,1 C 93 % 1015,6 hPa 0,0 l/m 0,0 km/h (0 Bft) NO 39 1,1 C 0,0 km/h (0 Bft) 96 %
27.11.2018 01:44 2,1 C 93 % 1015,6 hPa 0,0 l/m 0,0 km/h (0 Bft) NO 39 1,1 C 0,0 km/h (0 Bft) 96 %
27.11.2018 01:45 2,1 C 93 % 1015,6 hPa 0,0 l/m 0,0 km/h (0 Bft) NO 39 1,1 C 0,0 km/h (0 Bft) 100 %
27.11.2018 01:46 2,1 C 93 % 1015,7 hPa 0,0 l/m 0,0 km/h (0 Bft) NO 39 1,1 C 0,0 km/h (0 Bft) 96 %
27.11.2018 01:47 2,1 C 93 % 1015,7 hPa 0,0 l/m 0,3 km/h (0 Bft) NO 40 1,1 C 3,1 km/h (1 Bft) 100 %
27.11.2018 01:48 2,1 C 93 % 1015,7 hPa 0,0 l/m 0,8 km/h (0 Bft) NO 39 1,1 C 3,1 km/h (1 Bft) 96 %
27.11.2018 01:49 2,1 C 93 % 1015,7 hPa 0,0 l/m 0,0 km/h (0 Bft) NO 40 1,1 C 0,0 km/h (0 Bft) 100 %
27.11.2018 01:50 2,1 C 93 % 1015,7 hPa 0,0 l/m 0,0 km/h (0 Bft) NO 39 1,1 C 0,0 km/h (0 Bft) 96 %
27.11.2018 01:51 2,1 C 93 % 1015,7 hPa 0,0 l/m 0,0 km/h (0 Bft) NO 39 1,1 C 0,0 km/h (0 Bft) 100 %
27.11.2018 01:52 2,1 C 93 % 1015,7 hPa 0,0 l/m 0,0 km/h (0 Bft) NO 39 1,1 C 0,0 km/h (0 Bft) 96 %
27.11.2018 01:53 2,1 C 93 % 1015,7 hPa 0,0 l/m 0,0 km/h (0 Bft) NO 39 1,1 C 0,0 km/h (0 Bft) 96 %
27.11.2018 01:54 2,1 C 93 % 1015,7 hPa 0,0 l/m 0,0 km/h (0 Bft) NO 39 1,1 C 0,0 km/h (0 Bft) 100 %
27.11.2018 01:55 2,1 C 93 % 1015,7 hPa 0,0 l/m 0,0 km/h (0 Bft) NO 39 1,1 C 0,0 km/h (0 Bft) 96 %
27.11.2018 01:56 2,1 C 93 % 1015,7 hPa 0,0 l/m 0,0 km/h (0 Bft) NO 39 1,1 C 0,0 km/h (0 Bft) 96 %
27.11.2018 01:57 2,1 C 93 % 1015,7 hPa 0,0 l/m 0,0 km/h (0 Bft) NO 40 1,1 C 0,0 km/h (0 Bft) 96 %
27.11.2018 01:58 2,1 C 93 % 1015,7 hPa 0,0 l/m 0,3 km/h (0 Bft) O-SO 102 1,1 C 3,1 km/h (1 Bft) 100 %
27.11.2018 01:59 2,1 C 93 % 1015,8 hPa 0,0 l/m 0,0 km/h (0 Bft) O-SO 102 1,1 C 0,0 km/h (0 Bft) 96 %
27.11.2018 02:00 2,1 C 93 % 1015,8 hPa 0,0 l/m 0,0 km/h (0 Bft) O-SO 102 1,1 C 0,0 km/h (0 Bft) 100 %
27.11.2018 02:01 2,1 C 93 % 1015,8 hPa 0,0 l/m 0,0 km/h (0 Bft) O-SO 105 1,1 C 0,0 km/h (0 Bft) 92 %
27.11.2018 02:02 2,1 C 93 % 1015,8 hPa 0,0 l/m 0,0 km/h (0 Bft) O-SO 105 1,1 C 0,0 km/h (0 Bft) 97 %
27.11.2018 02:03 2,1 C 93 % 1015,8 hPa 0,0 l/m 0,0 km/h (0 Bft) O-SO 105 1,1 C 0,0 km/h (0 Bft) 100 %
27.11.2018 02:04 2,1 C 93 % 1015,8 hPa 0,0 l/m 0,0 km/h (0 Bft) O-SO 105 1,1 C 0,0 km/h (0 Bft) 96 %
27.11.2018 02:05 2,1 C 93 % 1015,8 hPa 0,0 l/m 0,0 km/h (0 Bft) O-SO 105 1,1 C 0,0 km/h (0 Bft) 100 %
27.11.2018 02:06 2,1 C 93 % 1015,8 hPa 0,0 l/m 0,0 km/h (0 Bft) O-SO 105 1,1 C 0,0 km/h (0 Bft) 92 %
27.11.2018 02:07 2,1 C 93 % 1015,8 hPa 0,0 l/m 0,0 km/h (0 Bft) O-SO 105 1,1 C 0,0 km/h (0 Bft) 100 %
27.11.2018 02:08 2,1 C 93 % 1015,8 hPa 0,0 l/m 0,0 km/h (0 Bft) O-SO 105 1,1 C 0,0 km/h (0 Bft) 96 %
27.11.2018 02:09 2,1 C 93 % 1015,8 hPa 0,0 l/m 0,0 km/h (0 Bft) O-SO 105 1,1 C 0,0 km/h (0 Bft) 96 %
27.11.2018 02:10 2,1 C 93 % 1015,8 hPa 0,0 l/m 0,0 km/h (0 Bft) O-SO 105 1,1 C 0,0 km/h (0 Bft) 100 %
27.11.2018 02:11 2,1 C 93 % 1015,9 hPa 0,0 l/m 0,0 km/h (0 Bft) O-SO 105 1,1 C 0,0 km/h (0 Bft) 100 %
27.11.2018 02:12 2,1 C 93 % 1015,8 hPa 0,0 l/m 0,0 km/h (0 Bft) O-SO 105 1,1 C 0,0 km/h (0 Bft) 95 %
27.11.2018 02:13 2,1 C 93 % 1015,8 hPa 0,0 l/m 0,0 km/h (0 Bft) O-SO 105 1,1 C 0,0 km/h (0 Bft) 100 %
27.11.2018 02:14 2,1 C 93 % 1015,8 hPa 0,0 l/m 0,0 km/h (0 Bft) O-SO 105 1,1 C 0,0 km/h (0 Bft) 99 %
27.11.2018 02:15 2,1 C 93 % 1015,9 hPa 0,0 l/m 0,0 km/h (0 Bft) O-SO 105 1,1 C 0,0 km/h (0 Bft) 97 %
27.11.2018 02:16 2,1 C 93 % 1015,8 hPa 0,0 l/m 0,0 km/h (0 Bft) O-SO 105 1,1 C 0,0 km/h (0 Bft) 100 %
27.11.2018 02:17 2,1 C 93 % 1015,9 hPa 0,0 l/m 0,0 km/h (0 Bft) O-SO 105 1,1 C 0,0 km/h (0 Bft) 91 %
27.11.2018 02:18 2,1 C 93 % 1015,9 hPa 0,0 l/m 1,0 km/h (0 Bft) O-NO 60 1,1 C 3,1 km/h (1 Bft) 97 %
27.11.2018 02:19 2,1 C 93 % 1015,9 hPa 0,0 l/m 2,0 km/h (1 Bft) O-NO 77 1,1 C 3,1 km/h (1 Bft) 100 %
27.11.2018 02:20 2,1 C 93 % 1015,9 hPa 0,0 l/m 0,1 km/h (0 Bft) O-NO 77 1,1 C 3,1 km/h (1 Bft) 96 %
27.11.2018 02:21 2,1 C 93 % 1015,9 hPa 0,0 l/m 0,0 km/h (0 Bft) O-NO 77 1,1 C 0,0 km/h (0 Bft) 100 %
27.11.2018 02:22 2,1 C 93 % 1015,9 hPa 0,0 l/m 0,0 km/h (0 Bft) O-NO 77 1,1 C 0,0 km/h (0 Bft) 96 %
27.11.2018 02:23 2,1 C 93 % 1015,9 hPa 0,0 l/m 0,0 km/h (0 Bft) O 79 1,1 C 0,0 km/h (0 Bft) 100 %
27.11.2018 02:24 2,1 C 93 % 1015,9 hPa 0,0 l/m 0,0 km/h (0 Bft) O 99 1,1 C 0,0 km/h (0 Bft) 100 %
27.11.2018 02:25 2,1 C 93 % 1015,9 hPa 0,0 l/m 0,1 km/h (0 Bft) O-NO 75 1,1 C 3,1 km/h (1 Bft) 100 %
27.11.2018 02:26 2,1 C 93 % 1015,9 hPa 0,0 l/m 0,9 km/h (0 Bft) N-NO 20 1,1 C 3,1 km/h (1 Bft) 100 %
27.11.2018 02:27 2,1 C 93 % 1015,9 hPa 0,0 l/m 0,0 km/h (0 Bft) N-NO 20 1,1 C 0,0 km/h (0 Bft) 96 %
27.11.2018 02:28 2,1 C 93 % 1015,9 hPa 0,0 l/m 0,0 km/h (0 Bft) N-NO 20 1,1 C 0,0 km/h (0 Bft) 100 %
27.11.2018 02:29 2,1 C 93 % 1015,9 hPa 0,0 l/m 0,0 km/h (0 Bft) N-NO 20 1,1 C 0,0 km/h (0 Bft) 100 %
27.11.2018 02:30 2,1 C 93 % 1015,9 hPa 0,0 l/m 0,0 km/h (0 Bft) N-NO 20 1,1 C 0,0 km/h (0 Bft) 100 %
27.11.2018 02:31 2,1 C 93 % 1015,9 hPa 0,0 l/m 0,1 km/h (0 Bft) NO 47 1,1 C 3,1 km/h (1 Bft) 100 %
27.11.2018 02:32 2,1 C 93 % 1015,9 hPa 0,0 l/m 0,0 km/h (0 Bft) NO 46 1,1 C 0,0 km/h (0 Bft) 100 %
27.11.2018 02:33 2,1 C 93 % 1015,9 hPa 0,0 l/m 0,3 km/h (0 Bft) NO 47 1,1 C 3,1 km/h (1 Bft) 100 %
27.11.2018 02:34 2,1 C 93 % 1016,0 hPa 0,0 l/m 0,0 km/h (0 Bft) NO 47 1,1 C 0,0 km/h (0 Bft) 100 %
27.11.2018 02:35 2,1 C 93 % 1015,9 hPa 0,0 l/m 0,0 km/h (0 Bft) NO 47 1,1 C 0,0 km/h (0 Bft) 100 %
27.11.2018 02:36 2,1 C 93 % 1015,9 hPa 0,0 l/m 0,0 km/h (0 Bft) NO 47 1,1 C 0,0 km/h (0 Bft) 100 %
27.11.2018 02:37 2,1 C 93 % 1016,0 hPa 0,0 l/m 0,1 km/h (0 Bft) O-NO 66 1,1 C 3,1 km/h (1 Bft) 100 %
27.11.2018 02:38 2,2 C 93 % 1015,9 hPa 0,0 l/m 0,1 km/h (0 Bft) O-NO 75 1,2 C 3,1 km/h (1 Bft) 100 %
27.11.2018 02:39 2,2 C 93 % 1016,0 hPa 0,0 l/m 0,0 km/h (0 Bft) O-NO 75 1,2 C 0,0 km/h (0 Bft) 100 %
27.11.2018 02:40 2,2 C 93 % 1016,0 hPa 0,0 l/m 0,0 km/h (0 Bft) O-NO 75 1,2 C 0,0 km/h (0 Bft) 100 %
27.11.2018 02:41 2,2 C 93 % 1016,0 hPa 0,0 l/m 0,0 km/h (0 Bft) O-NO 75 1,2 C 0,0 km/h (0 Bft) 100 %
27.11.2018 02:42 2,2 C 93 % 1016,0 hPa 0,0 l/m 0,0 km/h (0 Bft) O-NO 75 1,2 C 0,0 km/h (0 Bft) 100 %
27.11.2018 02:43 2,2 C 93 % 1016,0 hPa 0,0 l/m 0,0 km/h (0 Bft) O-NO 75 1,2 C 0,0 km/h (0 Bft) 100 %
27.11.2018 02:44 2,2 C 93 % 1016,0 hPa 0,0 l/m 0,1 km/h (0 Bft) O-NO 76 1,2 C 3,1 km/h (1 Bft) 96 %
27.11.2018 02:45 2,2 C 93 % 1016,0 hPa 0,0 l/m 0,0 km/h (0 Bft) O-NO 65 1,2 C 0,0 km/h (0 Bft) 100 %
27.11.2018 02:46 2,2 C 93 % 1016,0 hPa 0,0 l/m 0,0 km/h (0 Bft) O-NO 65 1,2 C 0,0 km/h (0 Bft) 100 %
27.11.2018 02:47 2,2 C 93 % 1016,0 hPa 0,0 l/m 0,0 km/h (0 Bft) O-NO 68 1,2 C 0,0 km/h (0 Bft) 100 %
27.11.2018 02:48 2,2 C 93 % 1016,0 hPa 0,0 l/m 0,3 km/h (0 Bft) O-NO 68 1,2 C 3,1 km/h (1 Bft) 100 %
27.11.2018 02:49 2,2 C 93 % 1016,0 hPa 0,0 l/m 0,0 km/h (0 Bft) O-NO 68 1,2 C 0,0 km/h (0 Bft) 100 %
27.11.2018 02:50 2,1 C 93 % 1016,1 hPa 0,0 l/m 0,0 km/h (0 Bft) O-NO 68 1,1 C 0,0 km/h (0 Bft) 100 %
27.11.2018 02:51 2,2 C 92 % 1016,0 hPa 0,0 l/m 0,0 km/h (0 Bft) O 94 1,0 C 0,0 km/h (0 Bft) 100 %
27.11.2018 02:52 2,2 C 92 % 1016,0 hPa 0,0 l/m 0,3 km/h (0 Bft) O 94 1,0 C 3,1 km/h (1 Bft) 100 %
27.11.2018 02:53 2,2 C 92 % 1016,1 hPa 0,0 l/m 0,0 km/h (0 Bft) O 96 1,0 C 0,0 km/h (0 Bft) 100 %
27.11.2018 02:54 2,2 C 92 % 1016,1 hPa 0,0 l/m 0,7 km/h (0 Bft) O-SO 117 1,0 C 3,1 km/h (1 Bft) 100 %
27.11.2018 02:55 2,2 C 92 % 1016,1 hPa 0,0 l/m 0,0 km/h (0 Bft) O-SO 116 1,0 C 0,0 km/h (0 Bft) 100 %
27.11.2018 02:56 2,1 C 92 % 1016,1 hPa 0,0 l/m 0,0 km/h (0 Bft) O-SO 116 0,9 C 0,0 km/h (0 Bft) 100 %
27.11.2018 02:57 2,1 C 92 % 1016,1 hPa 0,0 l/m 0,0 km/h (0 Bft) O-SO 116 0,9 C 0,0 km/h (0 Bft) 100 %
27.11.2018 02:58 2,1 C 92 % 1016,1 hPa 0,0 l/m 0,0 km/h (0 Bft) O-SO 111 0,9 C 0,0 km/h (0 Bft) 100 %
27.11.2018 02:59 2,1 C 92 % 1016,1 hPa 0,0 l/m 0,0 km/h (0 Bft) O-SO 111 0,9 C 0,0 km/h (0 Bft) 100 %
27.11.2018 03:00 2,1 C 92 % 1016,0 hPa 0,0 l/m 0,0 km/h (0 Bft) O-SO 111 0,9 C 0,0 km/h (0 Bft) 100 %
27.11.2018 03:01 2,1 C 92 % 1016,0 hPa 0,0 l/m 0,0 km/h (0 Bft) O-SO 111 0,9 C 0,0 km/h (0 Bft) 100 %
27.11.2018 03:02 2,1 C 92 % 1016,0 hPa 0,0 l/m 0,1 km/h (0 Bft) O-SO 121 0,9 C 3,1 km/h (1 Bft) 100 %
27.11.2018 03:03 2,1 C 92 % 1016,0 hPa 0,0 l/m 0,6 km/h (0 Bft) O 101 0,9 C 3,1 km/h (1 Bft) 100 %
27.11.2018 03:04 2,1 C 92 % 1016,1 hPa 0,0 l/m 1,6 km/h (1 Bft) NO 39 0,9 C 3,1 km/h (1 Bft) 100 %
27.11.2018 03:05 2,1 C 92 % 1016,1 hPa 0,0 l/m 0,0 km/h (0 Bft) NO 38 0,9 C 0,0 km/h (0 Bft) 100 %
27.11.2018 03:06 2,1 C 92 % 1016,0 hPa 0,0 l/m 0,0 km/h (0 Bft) NO 38 0,9 C 0,0 km/h (0 Bft) 100 %
27.11.2018 03:07 2,1 C 92 % 1016,0 hPa 0,0 l/m 0,1 km/h (0 Bft) O-SO 105 0,9 C 3,1 km/h (1 Bft) 100 %
27.11.2018 03:08 2,1 C 92 % 1016,0 hPa 0,0 l/m 0,0 km/h (0 Bft) O-SO 104 0,9 C 0,0 km/h (0 Bft) 100 %
27.11.2018 03:09 2,1 C 92 % 1016,0 hPa 0,0 l/m 0,0 km/h (0 Bft) O-SO 104 0,9 C 0,0 km/h (0 Bft) 100 %
27.11.2018 03:10 2,1 C 92 % 1016,0 hPa 0,0 l/m 0,0 km/h (0 Bft) S-SO 159 0,9 C 0,0 km/h (0 Bft) 100 %
27.11.2018 03:11 2,1 C 92 % 1016,0 hPa 0,0 l/m 0,0 km/h (0 Bft) S-SO 159 0,9 C 0,0 km/h (0 Bft) 100 %
27.11.2018 03:12 2,1 C 92 % 1016,0 hPa 0,0 l/m 0,0 km/h (0 Bft) S-SO 159 0,9 C 0,0 km/h (0 Bft) 100 %
27.11.2018 03:13 2,1 C 92 % 1016,0 hPa 0,0 l/m 0,0 km/h (0 Bft) S-SO 159 0,9 C 0,0 km/h (0 Bft) 100 %
27.11.2018 03:14 2,1 C 92 % 1016,0 hPa 0,0 l/m 0,0 km/h (0 Bft) S-SO 159 0,9 C 0,0 km/h (0 Bft) 100 %
27.11.2018 03:15 2,1 C 92 % 1016,0 hPa 0,0 l/m 0,0 km/h (0 Bft) S-SO 159 0,9 C 0,0 km/h (0 Bft) 100 %
27.11.2018 03:16 2,1 C 92 % 1016,1 hPa 0,0 l/m 0,6 km/h (0 Bft) O-SO 116 0,9 C 3,1 km/h (1 Bft) 100 %
27.11.2018 03:17 2,1 C 92 % 1016,1 hPa 0,0 l/m 0,0 km/h (0 Bft) O-SO 115 0,9 C 0,0 km/h (0 Bft) 100 %
27.11.2018 03:18 2,1 C 92 % 1016,1 hPa 0,0 l/m 0,2 km/h (0 Bft) O-SO 115 0,9 C 3,1 km/h (1 Bft) 100 %
27.11.2018 03:19 2,1 C 92 % 1016,1 hPa 0,0 l/m 0,0 km/h (0 Bft) O-SO 115 0,9 C 0,0 km/h (0 Bft) 100 %
27.11.2018 03:20 2,1 C 92 % 1016,1 hPa 0,0 l/m 0,1 km/h (0 Bft) O-SO 115 0,9 C 3,1 km/h (1 Bft) 100 %
27.11.2018 03:21 2,1 C 92 % 1016,1 hPa 0,0 l/m 0,0 km/h (0 Bft) O-SO 115 0,9 C 0,0 km/h (0 Bft) 100 %
27.11.2018 03:22 2,1 C 92 % 1016,1 hPa 0,0 l/m 0,0 km/h (0 Bft) O-SO 115 0,9 C 0,0 km/h (0 Bft) 100 %
27.11.2018 03:23 2,1 C 92 % 1016,1 hPa 0,0 l/m 0,0 km/h (0 Bft) O-SO 115 0,9 C 0,0 km/h (0 Bft) 100 %
27.11.2018 03:24 2,1 C 92 % 1016,1 hPa 0,0 l/m 0,0 km/h (0 Bft) O-SO 115 0,9 C 0,0 km/h (0 Bft) 100 %
27.11.2018 03:25 2,1 C 92 % 1016,1 hPa 0,0 l/m 0,0 km/h (0 Bft) O-SO 115 0,9 C 0,0 km/h (0 Bft) 100 %
27.11.2018 03:26 2,1 C 92 % 1016,1 hPa 0,0 l/m 0,0 km/h (0 Bft) O 79 0,9 C 0,0 km/h (0 Bft) 100 %
27.11.2018 03:27 2,1 C 92 % 1016,1 hPa 0,0 l/m 0,0 km/h (0 Bft) O 79 0,9 C 0,0 km/h (0 Bft) 100 %
27.11.2018 03:28 2,1 C 92 % 1016,1 hPa 0,0 l/m 0,1 km/h (0 Bft) O 79 0,9 C 3,1 km/h (1 Bft) 100 %
27.11.2018 03:29 2,1 C 92 % 1016,1 hPa 0,0 l/m 0,0 km/h (0 Bft) O 79 0,9 C 0,0 km/h (0 Bft) 100 %
27.11.2018 03:30 2,1 C 92 % 1016,1 hPa 0,0 l/m 0,1 km/h (0 Bft) O-NO 78 0,9 C 3,1 km/h (1 Bft) 100 %
27.11.2018 03:31 2,1 C 92 % 1016,1 hPa 0,0 l/m 0,1 km/h (0 Bft) O-NO 78 0,9 C 3,1 km/h (1 Bft) 100 %
27.11.2018 03:32 2,1 C 92 % 1016,1 hPa 0,0 l/m 1,3 km/h (1 Bft) O-NO 65 0,9 C 3,1 km/h (1 Bft) 100 %
27.11.2018 03:33 2,1 C 92 % 1016,1 hPa 0,0 l/m 0,7 km/h (0 Bft) O-NO 63 0,9 C 3,1 km/h (1 Bft) 100 %
27.11.2018 03:34 2,1 C 92 % 1016,1 hPa 0,0 l/m 0,1 km/h (0 Bft) O-NO 70 0,9 C 3,1 km/h (1 Bft) 100 %
27.11.2018 03:35 2,1 C 92 % 1016,1 hPa 0,0 l/m 0,8 km/h (0 Bft) O 81 0,9 C 3,1 km/h (1 Bft) 100 %
27.11.2018 03:36 2,1 C 92 % 1016,1 hPa 0,0 l/m 0,0 km/h (0 Bft) O 81 0,9 C 0,0 km/h (0 Bft) 100 %
27.11.2018 03:37 2,1 C 92 % 1016,1 hPa 0,0 l/m 0,0 km/h (0 Bft) W-NW 303 0,9 C 0,0 km/h (0 Bft) 100 %
27.11.2018 03:38 2,1 C 92 % 1016,1 hPa 0,0 l/m 0,0 km/h (0 Bft) N-NW 342 0,9 C 0,0 km/h (0 Bft) 100 %
27.11.2018 03:39 2,1 C 92 % 1016,1 hPa 0,0 l/m 0,0 km/h (0 Bft) N-NW 343 0,9 C 0,0 km/h (0 Bft) 100 %
27.11.2018 03:40 2,1 C 92 % 1016,1 hPa 0,0 l/m 0,1 km/h (0 Bft) N-NW 342 0,9 C 3,1 km/h (1 Bft) 100 %
27.11.2018 03:41 2,1 C 92 % 1016,0 hPa 0,0 l/m 0,4 km/h (0 Bft) N-NO 22 0,9 C 3,1 km/h (1 Bft) 100 %
27.11.2018 03:42 2,1 C 92 % 1016,0 hPa 0,0 l/m 0,8 km/h (0 Bft) NO 46 0,9 C 6,3 km/h (2 Bft) 100 %
27.11.2018 03:43 2,1 C 92 % 1016,1 hPa 0,0 l/m 0,0 km/h (0 Bft) NO 46 0,9 C 0,0 km/h (0 Bft) 100 %
27.11.2018 03:44 2,1 C 92 % 1016,1 hPa 0,0 l/m 0,2 km/h (0 Bft) SO 129 0,9 C 3,1 km/h (1 Bft) 100 %
27.11.2018 03:45 2,1 C 92 % 1016,1 hPa 0,0 l/m 0,0 km/h (0 Bft) O-SO 110 0,9 C 0,0 km/h (0 Bft) 100 %
27.11.2018 03:46 2,1 C 92 % 1016,0 hPa 0,0 l/m 0,0 km/h (0 Bft) O-SO 110 0,9 C 0,0 km/h (0 Bft) 100 %
27.11.2018 03:47 2,1 C 92 % 1016,0 hPa 0,0 l/m 0,1 km/h (0 Bft) NO 51 0,9 C 3,1 km/h (1 Bft) 100 %
27.11.2018 03:48 2,1 C 92 % 1016,1 hPa 0,0 l/m 0,1 km/h (0 Bft) NO 51 0,9 C 3,1 km/h (1 Bft) 99 %
27.11.2018 03:49 2,1 C 92 % 1016,1 hPa 0,0 l/m 0,1 km/h (0 Bft) NO 51 0,9 C 3,1 km/h (1 Bft) 100 %
27.11.2018 03:50 2,1 C 92 % 1016,1 hPa 0,0 l/m 0,1 km/h (0 Bft) NO 51 0,9 C 3,1 km/h (1 Bft) 100 %
27.11.2018 03:51 2,1 C 92 % 1016,0 hPa 0,0 l/m 0,1 km/h (0 Bft) NO 54 0,9 C 3,1 km/h (1 Bft) 100 %
27.11.2018 03:52 2,1 C 92 % 1016,1 hPa 0,0 l/m 0,1 km/h (0 Bft) NO 54 0,9 C 3,1 km/h (1 Bft) 100 %
27.11.2018 03:53 2,1 C 92 % 1016,0 hPa 0,0 l/m 0,0 km/h (0 Bft) NO 54 0,9 C 0,0 km/h (0 Bft) 100 %
27.11.2018 03:54 2,1 C 92 % 1016,1 hPa 0,0 l/m 0,0 km/h (0 Bft) NO 55 0,9 C 0,0 km/h (0 Bft) 100 %
27.11.2018 03:55 2,0 C 92 % 1016,1 hPa 0,0 l/m 0,2 km/h (0 Bft) NO 54 0,8 C 3,1 km/h (1 Bft) 100 %
27.11.2018 03:56 2,1 C 92 % 1016,1 hPa 0,0 l/m 0,0 km/h (0 Bft) NO 54 0,9 C 0,0 km/h (0 Bft) 100 %
27.11.2018 03:57 2,0 C 92 % 1016,1 hPa 0,0 l/m 0,2 km/h (0 Bft) NO 55 0,8 C 3,1 km/h (1 Bft) 100 %
27.11.2018 03:58 2,1 C 92 % 1016,1 hPa 0,0 l/m 0,0 km/h (0 Bft) NO 55 0,9 C 0,0 km/h (0 Bft) 100 %
27.11.2018 03:59 2,0 C 92 % 1016,1 hPa 0,0 l/m 0,1 km/h (0 Bft) NO 45 0,8 C 3,1 km/h (1 Bft) 100 %
27.11.2018 04:00 2,0 C 92 % 1016,1 hPa 0,0 l/m 0,0 km/h (0 Bft) NO 45 0,8 C 0,0 km/h (0 Bft) 100 %
27.11.2018 04:01 2,0 C 92 % 1016,1 hPa 0,0 l/m 0,0 km/h (0 Bft) NO 45 0,8 C 0,0 km/h (0 Bft) 100 %
27.11.2018 04:02 2,0 C 92 % 1016,1 hPa 0,0 l/m 0,0 km/h (0 Bft) NO 45 0,8 C 0,0 km/h (0 Bft) 100 %
27.11.2018 04:03 2,0 C 92 % 1016,1 hPa 0,0 l/m 0,6 km/h (0 Bft) NO 53 0,8 C 3,1 km/h (1 Bft) 100 %
27.11.2018 04:04 2,0 C 92 % 1016,1 hPa 0,0 l/m 0,0 km/h (0 Bft) NO 54 0,8 C 0,0 km/h (0 Bft) 100 %
27.11.2018 04:05 2,0 C 92 % 1016,1 hPa 0,0 l/m 0,0 km/h (0 Bft) NO 54 0,8 C 0,0 km/h (0 Bft) 100 %
27.11.2018 04:06 2,0 C 92 % 1016,1 hPa 0,0 l/m 0,0 km/h (0 Bft) NO 54 0,8 C 0,0 km/h (0 Bft) 100 %
27.11.2018 04:07 2,0 C 92 % 1016,1 hPa 0,0 l/m 0,1 km/h (0 Bft) NO 54 0,8 C 3,1 km/h (1 Bft) 100 %
27.11.2018 04:08 2,0 C 92 % 1016,2 hPa 0,0 l/m 0,0 km/h (0 Bft) NO 54 0,8 C 0,0 km/h (0 Bft) 96 %
27.11.2018 04:09 2,0 C 92 % 1016,1 hPa 0,0 l/m 0,0 km/h (0 Bft) SO 136 0,8 C 0,0 km/h (0 Bft) 100 %
27.11.2018 04:10 2,0 C 92 % 1016,2 hPa 0,0 l/m 1,2 km/h (1 Bft) O-SO 103 0,8 C 6,3 km/h (2 Bft) 100 %
27.11.2018 04:11 2,0 C 92 % 1016,2 hPa 0,0 l/m 0,3 km/h (0 Bft) O-SO 102 0,8 C 3,1 km/h (1 Bft) 100 %
27.11.2018 04:12 2,0 C 92 % 1016,1 hPa 0,0 l/m 0,1 km/h (0 Bft) O-SO 105 0,8 C 3,1 km/h (1 Bft) 100 %
27.11.2018 04:13 2,0 C 92 % 1016,2 hPa 0,0 l/m 1,0 km/h (0 Bft) O-NO 68 0,8 C 6,3 km/h (2 Bft) 100 %
27.11.2018 04:14 2,0 C 92 % 1016,2 hPa 0,0 l/m 0,2 km/h (0 Bft) NO 41 0,8 C 3,1 km/h (1 Bft) 100 %
27.11.2018 04:15 2,0 C 92 % 1016,2 hPa 0,0 l/m 0,5 km/h (0 Bft) O 84 0,8 C 3,1 km/h (1 Bft) 100 %
27.11.2018 04:16 1,9 C 92 % 1016,1 hPa 0,0 l/m 0,0 km/h (0 Bft) O 84 0,7 C 0,0 km/h (0 Bft) 100 %
27.11.2018 04:17 1,9 C 92 % 1016,2 hPa 0,0 l/m 0,1 km/h (0 Bft) O 80 0,7 C 3,1 km/h (1 Bft) 100 %
27.11.2018 04:18 1,9 C 92 % 1016,2 hPa 0,0 l/m 1,0 km/h (0 Bft) W-NW 299 0,7 C 3,1 km/h (1 Bft) 100 %
27.11.2018 04:19 1,9 C 92 % 1016,2 hPa 0,0 l/m 0,0 km/h (0 Bft) N-NO 17 0,7 C 0,0 km/h (0 Bft) 100 %
27.11.2018 04:20 1,9 C 92 % 1016,2 hPa 0,0 l/m 0,4 km/h (0 Bft) O-NO 67 0,7 C 3,1 km/h (1 Bft) 100 %
27.11.2018 04:21 1,9 C 92 % 1016,2 hPa 0,0 l/m 0,0 km/h (0 Bft) O-NO 67 0,7 C 0,0 km/h (0 Bft) 100 %
27.11.2018 04:22 1,9 C 92 % 1016,2 hPa 0,0 l/m 0,3 km/h (0 Bft) O-NO 68 0,7 C 3,1 km/h (1 Bft) 100 %
27.11.2018 04:23 1,9 C 92 % 1016,2 hPa 0,0 l/m 0,0 km/h (0 Bft) NO 41 0,7 C 0,0 km/h (0 Bft) 100 %
27.11.2018 04:24 1,9 C 92 % 1016,2 hPa 0,0 l/m 0,1 km/h (0 Bft) N-NO 25 0,7 C 3,1 km/h (1 Bft) 100 %
27.11.2018 04:25 1,9 C 92 % 1016,2 hPa 0,0 l/m 1,2 km/h (1 Bft) N-NO 23 0,7 C 3,1 km/h (1 Bft) 100 %
27.11.2018 04:26 1,9 C 92 % 1016,2 hPa 0,0 l/m 0,0 km/h (0 Bft) N-NO 23 0,7 C 0,0 km/h (0 Bft) 100 %
27.11.2018 04:27 1,9 C 92 % 1016,3 hPa 0,0 l/m 0,0 km/h (0 Bft) N-NO 23 0,7 C 0,0 km/h (0 Bft) 100 %
27.11.2018 04:28 1,9 C 92 % 1016,3 hPa 0,0 l/m 0,1 km/h (0 Bft) N-NO 26 0,7 C 3,1 km/h (1 Bft) 100 %
27.11.2018 04:29 1,9 C 92 % 1016,2 hPa 0,0 l/m 0,7 km/h (0 Bft) O 85 0,7 C 3,1 km/h (1 Bft) 100 %
27.11.2018 04:30 1,9 C 92 % 1016,3 hPa 0,0 l/m 0,0 km/h (0 Bft) O 85 0,7 C 0,0 km/h (0 Bft) 100 %
27.11.2018 04:31 1,9 C 92 % 1016,3 hPa 0,0 l/m 0,1 km/h (0 Bft) O 84 0,7 C 3,1 km/h (1 Bft) 100 %
27.11.2018 04:32 1,9 C 92 % 1016,3 hPa 0,0 l/m 0,3 km/h (0 Bft) W-SW 253 0,7 C 3,1 km/h (1 Bft) 100 %
27.11.2018 04:33 1,9 C 92 % 1016,3 hPa 0,0 l/m 0,0 km/h (0 Bft) N 6 0,7 C 0,0 km/h (0 Bft) 100 %
27.11.2018 04:34 1,9 C 92 % 1016,3 hPa 0,0 l/m 0,0 km/h (0 Bft) N 6 0,7 C 0,0 km/h (0 Bft) 100 %
27.11.2018 04:35 1,9 C 92 % 1016,3 hPa 0,0 l/m 0,0 km/h (0 Bft) N 6 0,7 C 0,0 km/h (0 Bft) 100 %
27.11.2018 04:36 1,9 C 92 % 1016,3 hPa 0,0 l/m 0,1 km/h (0 Bft) N-NO 15 0,7 C 3,1 km/h (1 Bft) 100 %
27.11.2018 04:37 1,9 C 92 % 1016,3 hPa 0,0 l/m 0,0 km/h (0 Bft) NO 41 0,7 C 0,0 km/h (0 Bft) 100 %
27.11.2018 04:38 1,9 C 92 % 1016,4 hPa 0,0 l/m 0,0 km/h (0 Bft) NO 41 0,7 C 0,0 km/h (0 Bft) 100 %
27.11.2018 04:39 1,9 C 92 % 1016,3 hPa 0,0 l/m 0,0 km/h (0 Bft) NO 42 0,7 C 0,0 km/h (0 Bft) 100 %
27.11.2018 04:40 1,9 C 92 % 1016,4 hPa 0,0 l/m 0,0 km/h (0 Bft) NO 42 0,7 C 0,0 km/h (0 Bft) 100 %
27.11.2018 04:41 1,9 C 92 % 1016,4 hPa 0,0 l/m 2,0 km/h (1 Bft) N-NO 27 0,7 C 6,3 km/h (2 Bft) 100 %
27.11.2018 04:42 1,9 C 92 % 1016,4 hPa 0,0 l/m 0,7 km/h (0 Bft) O-SO 115 0,7 C 3,1 km/h (1 Bft) 100 %
27.11.2018 04:43 1,9 C 92 % 1016,3 hPa 0,0 l/m 2,2 km/h (1 Bft) N-NO 29 0,7 C 6,3 km/h (2 Bft) 100 %
27.11.2018 04:44 1,9 C 92 % 1016,4 hPa 0,0 l/m 1,6 km/h (1 Bft) NO 44 0,7 C 3,1 km/h (1 Bft) 100 %
27.11.2018 04:45 1,9 C 92 % 1016,4 hPa 0,0 l/m 0,0 km/h (0 Bft) NO 44 0,7 C 0,0 km/h (0 Bft) 100 %
27.11.2018 04:46 1,9 C 92 % 1016,4 hPa 0,0 l/m 0,8 km/h (0 Bft) N-NO 32 0,7 C 3,1 km/h (1 Bft) 100 %
27.11.2018 04:47 1,9 C 92 % 1016,4 hPa 0,0 l/m 1,3 km/h (1 Bft) N 1 0,7 C 6,3 km/h (2 Bft) 100 %
27.11.2018 04:48 1,9 C 92 % 1016,4 hPa 0,0 l/m 0,5 km/h (0 Bft) N 8 0,7 C 3,1 km/h (1 Bft) 100 %
27.11.2018 04:49 1,9 C 92 % 1016,4 hPa 0,0 l/m 0,3 km/h (0 Bft) N 8 0,7 C 3,1 km/h (1 Bft) 100 %
27.11.2018 04:50 1,9 C 92 % 1016,4 hPa 0,0 l/m 0,0 km/h (0 Bft) N 8 0,7 C 0,0 km/h (0 Bft) 100 %
27.11.2018 04:51 1,9 C 92 % 1016,4 hPa 0,0 l/m 0,0 km/h (0 Bft) N 8 0,7 C 0,0 km/h (0 Bft) 100 %
27.11.2018 04:52 1,9 C 92 % 1016,4 hPa 0,0 l/m 0,0 km/h (0 Bft) N 8 0,7 C 0,0 km/h (0 Bft) 100 %
27.11.2018 04:53 1,9 C 92 % 1016,5 hPa 0,0 l/m 0,0 km/h (0 Bft) N 8 0,7 C 0,0 km/h (0 Bft) 100 %
27.11.2018 04:54 1,9 C 92 % 1016,5 hPa 0,0 l/m 0,0 km/h (0 Bft) N 8 0,7 C 0,0 km/h (0 Bft) 100 %
27.11.2018 04:55 1,9 C 92 % 1016,5 hPa 0,0 l/m 0,0 km/h (0 Bft) N 8 0,7 C 0,0 km/h (0 Bft) 100 %
27.11.2018 04:56 1,9 C 92 % 1016,4 hPa 0,0 l/m 0,1 km/h (0 Bft) O 82 0,7 C 3,1 km/h (1 Bft) 100 %
27.11.2018 04:57 1,9 C 92 % 1016,4 hPa 0,0 l/m 0,0 km/h (0 Bft) O-NO 75 0,7 C 0,0 km/h (0 Bft) 100 %
27.11.2018 04:58 1,9 C 92 % 1016,5 hPa 0,0 l/m 0,0 km/h (0 Bft) O-NO 75 0,7 C 0,0 km/h (0 Bft) 100 %
27.11.2018 04:59 1,9 C 92 % 1016,4 hPa 0,0 l/m 0,0 km/h (0 Bft) O-NO 75 0,7 C 0,0 km/h (0 Bft) 96 %
27.11.2018 05:00 1,9 C 92 % 1016,5 hPa 0,0 l/m 0,0 km/h (0 Bft) O-NO 75 0,7 C 0,0 km/h (0 Bft) 100 %
27.11.2018 05:01 1,9 C 92 % 1016,5 hPa 0,0 l/m 0,1 km/h (0 Bft) O-NO 75 0,7 C 3,1 km/h (1 Bft) 100 %
27.11.2018 05:02 1,9 C 92 % 1016,5 hPa 0,0 l/m 1,5 km/h (1 Bft) N-NO 26 0,7 C 6,3 km/h (2 Bft) 100 %
27.11.2018 05:03 1,9 C 92 % 1016,5 hPa 0,0 l/m 0,3 km/h (0 Bft) N-NO 27 0,7 C 3,1 km/h (1 Bft) 100 %
27.11.2018 05:04 1,9 C 92 % 1016,5 hPa 0,0 l/m 0,0 km/h (0 Bft) N-NO 27 0,7 C 0,0 km/h (0 Bft) 100 %
27.11.2018 05:05 1,9 C 92 % 1016,4 hPa 0,0 l/m 0,1 km/h (0 Bft) O-SO 104 0,7 C 3,1 km/h (1 Bft) 100 %
27.11.2018 05:06 1,9 C 92 % 1016,5 hPa 0,0 l/m 0,1 km/h (0 Bft) O-SO 105 0,7 C 3,1 km/h (1 Bft) 100 %
27.11.2018 05:07 1,9 C 92 % 1016,4 hPa 0,0 l/m 0,1 km/h (0 Bft) O-SO 103 0,7 C 3,1 km/h (1 Bft) 100 %
27.11.2018 05:08 1,9 C 92 % 1016,4 hPa 0,0 l/m 0,9 km/h (0 Bft) O-SO 108 0,7 C 3,1 km/h (1 Bft) 100 %
27.11.2018 05:09 1,9 C 92 % 1016,4 hPa 0,0 l/m 0,9 km/h (0 Bft) O-SO 105 0,7 C 6,3 km/h (2 Bft) 100 %
27.11.2018 05:10 1,9 C 92 % 1016,4 hPa 0,0 l/m 0,0 km/h (0 Bft) O-SO 105 0,7 C 0,0 km/h (0 Bft) 100 %
27.11.2018 05:11 1,9 C 92 % 1016,4 hPa 0,0 l/m 0,0 km/h (0 Bft) O-SO 105 0,7 C 0,0 km/h (0 Bft) 100 %
27.11.2018 05:12 1,9 C 92 % 1016,5 hPa 0,0 l/m 0,0 km/h (0 Bft) O-SO 105 0,7 C 0,0 km/h (0 Bft) 100 %
27.11.2018 05:13 1,9 C 92 % 1016,5 hPa 0,0 l/m 0,0 km/h (0 Bft) O-SO 105 0,7 C 0,0 km/h (0 Bft) 100 %
27.11.2018 05:14 1,9 C 92 % 1016,5 hPa 0,0 l/m 0,0 km/h (0 Bft) O-SO 105 0,7 C 0,0 km/h (0 Bft) 100 %
27.11.2018 05:15 1,9 C 92 % 1016,5 hPa 0,0 l/m 0,3 km/h (0 Bft) O-SO 117 0,7 C 3,1 km/h (1 Bft) 100 %
27.11.2018 05:16 1,9 C 92 % 1016,5 hPa 0,0 l/m 0,1 km/h (0 Bft) O-SO 117 0,7 C 3,1 km/h (1 Bft) 100 %
27.11.2018 05:17 1,9 C 92 % 1016,5 hPa 0,0 l/m 0,5 km/h (0 Bft) O-SO 107 0,7 C 3,1 km/h (1 Bft) 100 %
27.11.2018 05:18 1,9 C 92 % 1016,5 hPa 0,0 l/m 0,0 km/h (0 Bft) O-SO 107 0,7 C 0,0 km/h (0 Bft) 100 %
27.11.2018 05:19 1,9 C 92 % 1016,5 hPa 0,0 l/m 0,0 km/h (0 Bft) O 100 0,7 C 0,0 km/h (0 Bft) 100 %
27.11.2018 05:20 1,9 C 92 % 1016,5 hPa 0,0 l/m 1,0 km/h (0 Bft) N-NO 27 0,7 C 6,3 km/h (2 Bft) 100 %
27.11.2018 05:21 1,9 C 92 % 1016,6 hPa 0,0 l/m 0,4 km/h (0 Bft) NO 35 0,7 C 6,3 km/h (2 Bft) 100 %
27.11.2018 05:22 1,9 C 92 % 1016,6 hPa 0,0 l/m 0,0 km/h (0 Bft) NO 36 0,7 C 0,0 km/h (0 Bft) 100 %
27.11.2018 05:23 1,9 C 92 % 1016,6 hPa 0,0 l/m 0,3 km/h (0 Bft) O-SO 123 0,7 C 3,1 km/h (1 Bft) 100 %
27.11.2018 05:24 1,9 C 92 % 1016,6 hPa 0,0 l/m 0,0 km/h (0 Bft) O-SO 103 0,7 C 0,0 km/h (0 Bft) 100 %
27.11.2018 05:25 1,9 C 92 % 1016,6 hPa 0,0 l/m 0,0 km/h (0 Bft) O-NO 69 0,7 C 0,0 km/h (0 Bft) 100 %
27.11.2018 05:26 1,9 C 92 % 1016,6 hPa 0,0 l/m 0,0 km/h (0 Bft) O-NO 69 0,7 C 0,0 km/h (0 Bft) 100 %
27.11.2018 05:27 1,9 C 92 % 1016,6 hPa 0,0 l/m 0,0 km/h (0 Bft) O-NO 69 0,7 C 0,0 km/h (0 Bft) 100 %
27.11.2018 05:28 1,9 C 92 % 1016,6 hPa 0,0 l/m 0,5 km/h (0 Bft) N-NW 342 0,7 C 3,1 km/h (1 Bft) 100 %
27.11.2018 05:29 1,9 C 92 % 1016,6 hPa 0,0 l/m 0,1 km/h (0 Bft) N-NW 345 0,7 C 3,1 km/h (1 Bft) 100 %
27.11.2018 05:30 1,9 C 92 % 1016,6 hPa 0,0 l/m 1,4 km/h (1 Bft) NO 39 0,7 C 6,3 km/h (2 Bft) 100 %
27.11.2018 05:31 1,9 C 92 % 1016,6 hPa 0,0 l/m 0,9 km/h (0 Bft) N 358 0,7 C 3,1 km/h (1 Bft) 100 %
27.11.2018 05:32 1,9 C 92 % 1016,6 hPa 0,0 l/m 0,1 km/h (0 Bft) O-NO 69 0,7 C 3,1 km/h (1 Bft) 100 %
27.11.2018 05:33 1,9 C 92 % 1016,6 hPa 0,0 l/m 1,9 km/h (1 Bft) O-SO 110 0,7 C 6,3 km/h (2 Bft) 100 %
27.11.2018 05:34 1,9 C 92 % 1016,6 hPa 0,0 l/m 0,1 km/h (0 Bft) O-SO 108 0,7 C 3,1 km/h (1 Bft) 100 %
27.11.2018 05:35 1,9 C 92 % 1016,6 hPa 0,0 l/m 0,1 km/h (0 Bft) O-SO 117 0,7 C 3,1 km/h (1 Bft) 100 %
27.11.2018 05:36 1,9 C 92 % 1016,6 hPa 0,0 l/m 0,0 km/h (0 Bft) O-SO 115 0,7 C 0,0 km/h (0 Bft) 100 %
27.11.2018 05:37 1,9 C 92 % 1016,6 hPa 0,0 l/m 0,0 km/h (0 Bft) O-SO 115 0,7 C 0,0 km/h (0 Bft) 100 %
27.11.2018 05:38 1,9 C 92 % 1016,6 hPa 0,0 l/m 0,0 km/h (0 Bft) O-SO 115 0,7 C 0,0 km/h (0 Bft) 100 %
27.11.2018 05:39 1,9 C 92 % 1016,6 hPa 0,0 l/m 0,0 km/h (0 Bft) O-SO 115 0,7 C 0,0 km/h (0 Bft) 100 %
27.11.2018 05:40 1,9 C 92 % 1016,6 hPa 0,0 l/m 0,0 km/h (0 Bft) O-SO 115 0,7 C 0,0 km/h (0 Bft) 100 %
27.11.2018 05:41 1,9 C 92 % 1016,6 hPa 0,0 l/m 0,3 km/h (0 Bft) O-SO 115 0,7 C 3,1 km/h (1 Bft) 100 %
27.11.2018 05:42 1,9 C 92 % 1016,6 hPa 0,0 l/m 0,0 km/h (0 Bft) O-SO 115 0,7 C 0,0 km/h (0 Bft) 100 %
27.11.2018 05:43 1,9 C 92 % 1016,6 hPa 0,0 l/m 0,0 km/h (0 Bft) O-SO 115 0,7 C 0,0 km/h (0 Bft) 100 %
27.11.2018 05:44 1,9 C 92 % 1016,6 hPa 0,0 l/m 0,0 km/h (0 Bft) O-SO 115 0,7 C 0,0 km/h (0 Bft) 100 %
27.11.2018 05:45 1,9 C 92 % 1016,7 hPa 0,0 l/m 0,3 km/h (0 Bft) O-SO 113 0,7 C 3,1 km/h (1 Bft) 100 %
27.11.2018 05:46 1,9 C 92 % 1016,6 hPa 0,0 l/m 0,4 km/h (0 Bft) O-SO 112 0,7 C 3,1 km/h (1 Bft) 100 %
27.11.2018 05:47 1,9 C 92 % 1016,6 hPa 0,0 l/m 0,1 km/h (0 Bft) SO 124 0,7 C 3,1 km/h (1 Bft) 100 %
27.11.2018 05:48 1,9 C 92 % 1016,7 hPa 0,0 l/m 0,1 km/h (0 Bft) SO 124 0,7 C 3,1 km/h (1 Bft) 100 %
27.11.2018 05:49 1,9 C 92 % 1016,7 hPa 0,0 l/m 0,0 km/h (0 Bft) SO 125 0,7 C 0,0 km/h (0 Bft) 100 %
27.11.2018 05:50 1,9 C 92 % 1016,7 hPa 0,0 l/m 0,0 km/h (0 Bft) SO 124 0,7 C 0,0 km/h (0 Bft) 100 %
27.11.2018 05:51 1,9 C 92 % 1016,7 hPa 0,0 l/m 0,0 km/h (0 Bft) SO 124 0,7 C 0,0 km/h (0 Bft) 100 %
27.11.2018 05:52 1,9 C 92 % 1016,6 hPa 0,0 l/m 0,4 km/h (0 Bft) O 88 0,7 C 3,1 km/h (1 Bft) 100 %
27.11.2018 05:53 1,9 C 92 % 1016,7 hPa 0,0 l/m 0,8 km/h (0 Bft) O 84 0,7 C 3,1 km/h (1 Bft) 100 %
27.11.2018 05:54 1,9 C 92 % 1016,7 hPa 0,0 l/m 4,4 km/h (1 Bft) O 82 0,7 C 12,6 km/h (3 Bft) 100 %
27.11.2018 05:55 1,9 C 92 % 1016,7 hPa 0,0 l/m 1,7 km/h (1 Bft) O-SO 114 0,7 C 6,3 km/h (2 Bft) 100 %
27.11.2018 05:56 1,9 C 92 % 1016,8 hPa 0,0 l/m 0,1 km/h (0 Bft) O-SO 114 0,7 C 3,1 km/h (1 Bft) 100 %
27.11.2018 05:57 1,9 C 92 % 1016,8 hPa 0,0 l/m 0,1 km/h (0 Bft) O-SO 118 0,7 C 3,1 km/h (1 Bft) 100 %
27.11.2018 05:58 1,9 C 92 % 1016,8 hPa 0,0 l/m 0,0 km/h (0 Bft) O 98 0,7 C 0,0 km/h (0 Bft) 100 %
27.11.2018 05:59 1,9 C 92 % 1016,8 hPa 0,0 l/m 0,5 km/h (0 Bft) N-NO 18 0,7 C 3,1 km/h (1 Bft) 100 %
27.11.2018 06:00 1,9 C 92 % 1016,8 hPa 0,0 l/m 0,3 km/h (0 Bft) SO 127 0,7 C 3,1 km/h (1 Bft) 100 %
27.11.2018 06:01 1,9 C 92 % 1016,8 hPa 0,0 l/m 0,0 km/h (0 Bft) O-SO 122 0,7 C 0,0 km/h (0 Bft) 100 %
27.11.2018 06:02 1,9 C 92 % 1016,8 hPa 0,0 l/m 0,0 km/h (0 Bft) O-SO 122 0,7 C 0,0 km/h (0 Bft) 100 %
27.11.2018 06:03 1,9 C 92 % 1016,8 hPa 0,0 l/m 0,0 km/h (0 Bft) O-SO 122 0,7 C 0,0 km/h (0 Bft) 100 %
27.11.2018 06:04 1,9 C 92 % 1016,8 hPa 0,0 l/m 0,0 km/h (0 Bft) O-SO 122 0,7 C 0,0 km/h (0 Bft) 100 %
27.11.2018 06:05 1,9 C 92 % 1016,8 hPa 0,0 l/m 0,0 km/h (0 Bft) O-SO 122 0,7 C 0,0 km/h (0 Bft) 100 %
27.11.2018 06:06 1,9 C 92 % 1016,8 hPa 0,0 l/m 0,0 km/h (0 Bft) O-SO 122 0,7 C 0,0 km/h (0 Bft) 96 %
27.11.2018 06:07 1,9 C 92 % 1016,8 hPa 0,0 l/m 0,9 km/h (0 Bft) NO 38 0,7 C 6,3 km/h (2 Bft) 100 %
27.11.2018 06:08 1,9 C 92 % 1016,9 hPa 0,0 l/m 0,0 km/h (0 Bft) NO 38 0,7 C 0,0 km/h (0 Bft) 100 %
27.11.2018 06:09 1,9 C 92 % 1016,9 hPa 0,0 l/m 0,1 km/h (0 Bft) NO 39 0,7 C 3,1 km/h (1 Bft) 100 %
27.11.2018 06:10 1,9 C 92 % 1016,9 hPa 0,0 l/m 2,9 km/h (1 Bft) N-NO 23 0,7 C 9,4 km/h (2 Bft) 100 %
27.11.2018 06:11 1,9 C 92 % 1016,8 hPa 0,0 l/m 0,5 km/h (0 Bft) NO 39 0,7 C 6,3 km/h (2 Bft) 100 %
27.11.2018 06:12 1,9 C 92 % 1016,8 hPa 0,0 l/m 1,0 km/h (0 Bft) NO 41 0,7 C 6,3 km/h (2 Bft) 100 %
27.11.2018 06:13 1,9 C 92 % 1016,9 hPa 0,0 l/m 0,8 km/h (0 Bft) O 81 0,7 C 3,1 km/h (1 Bft) 100 %
27.11.2018 06:14 1,9 C 92 % 1016,9 hPa 0,0 l/m 0,0 km/h (0 Bft) O 81 0,7 C 0,0 km/h (0 Bft) 100 %
27.11.2018 06:15 1,9 C 92 % 1016,9 hPa 0,0 l/m 0,0 km/h (0 Bft) O 81 0,7 C 0,0 km/h (0 Bft) 100 %
27.11.2018 06:16 1,9 C 92 % 1016,9 hPa 0,0 l/m 0,0 km/h (0 Bft) O 82 0,7 C 0,0 km/h (0 Bft) 100 %
27.11.2018 06:17 1,9 C 92 % 1016,9 hPa 0,0 l/m 1,0 km/h (0 Bft) O 79 0,7 C 6,3 km/h (2 Bft) 100 %
27.11.2018 06:18 1,9 C 92 % 1016,9 hPa 0,0 l/m 1,2 km/h (1 Bft) O-SO 105 0,7 C 6,3 km/h (2 Bft) 100 %
27.11.2018 06:19 1,9 C 92 % 1016,9 hPa 0,0 l/m 2,1 km/h (1 Bft) W-SW 253 0,7 C 9,4 km/h (2 Bft) 100 %
27.11.2018 06:20 1,9 C 92 % 1016,9 hPa 0,0 l/m 0,1 km/h (0 Bft) W 281 0,7 C 3,1 km/h (1 Bft) 100 %
27.11.2018 06:21 1,9 C 92 % 1016,9 hPa 0,0 l/m 0,0 km/h (0 Bft) W 281 0,7 C 0,0 km/h (0 Bft) 100 %
27.11.2018 06:22 1,9 C 92 % 1016,9 hPa 0,0 l/m 1,4 km/h (1 Bft) N-NO 20 0,7 C 6,3 km/h (2 Bft) 100 %
27.11.2018 06:23 1,9 C 92 % 1016,9 hPa 0,0 l/m 0,3 km/h (0 Bft) O-NO 60 0,7 C 3,1 km/h (1 Bft) 100 %
27.11.2018 06:24 1,9 C 92 % 1016,9 hPa 0,0 l/m 0,0 km/h (0 Bft) O-NO 60 0,7 C 0,0 km/h (0 Bft) 100 %
27.11.2018 06:25 1,9 C 92 % 1016,9 hPa 0,0 l/m 0,5 km/h (0 Bft) N-NO 30 0,7 C 3,1 km/h (1 Bft) 100 %
27.11.2018 06:26 1,9 C 92 % 1016,9 hPa 0,0 l/m 0,2 km/h (0 Bft) O 80 0,7 C 3,1 km/h (1 Bft) 100 %
27.11.2018 06:27 1,9 C 92 % 1016,9 hPa 0,0 l/m 0,3 km/h (0 Bft) O-NO 76 0,7 C 3,1 km/h (1 Bft) 100 %
27.11.2018 06:28 1,9 C 92 % 1016,9 hPa 0,0 l/m 0,1 km/h (0 Bft) O-NO 77 0,7 C 3,1 km/h (1 Bft) 100 %
27.11.2018 06:29 1,9 C 92 % 1017,0 hPa 0,0 l/m 1,3 km/h (1 Bft) O-NO 77 0,7 C 3,1 km/h (1 Bft) 100 %
27.11.2018 06:30 1,9 C 92 % 1016,9 hPa 0,0 l/m 0,3 km/h (0 Bft) O-NO 77 0,7 C 3,1 km/h (1 Bft) 100 %
27.11.2018 06:31 1,9 C 92 % 1016,9 hPa 0,0 l/m 0,8 km/h (0 Bft) O-NO 69 0,7 C 3,1 km/h (1 Bft) 100 %
27.11.2018 06:32 1,9 C 92 % 1017,0 hPa 0,0 l/m 1,3 km/h (1 Bft) O-SO 110 0,7 C 6,3 km/h (2 Bft) 100 %
27.11.2018 06:33 1,9 C 92 % 1016,9 hPa 0,0 l/m 0,0 km/h (0 Bft) O-SO 105 0,7 C 0,0 km/h (0 Bft) 100 %
27.11.2018 06:34 1,9 C 92 % 1017,0 hPa 0,0 l/m 0,1 km/h (0 Bft) N-NO 25 0,7 C 3,1 km/h (1 Bft) 100 %
27.11.2018 06:35 1,9 C 92 % 1017,0 hPa 0,0 l/m 4,1 km/h (1 Bft) N-NO 25 0,7 C 9,4 km/h (2 Bft) 92 %
27.11.2018 06:36 1,9 C 92 % 1017,0 hPa 0,0 l/m 0,0 km/h (0 Bft) N-NO 25 0,7 C 0,0 km/h (0 Bft) 100 %
27.11.2018 06:37 1,9 C 92 % 1017,0 hPa 0,0 l/m 0,0 km/h (0 Bft) N-NO 26 0,7 C 0,0 km/h (0 Bft) 100 %
27.11.2018 06:38 1,9 C 92 % 1017,0 hPa 0,0 l/m 0,0 km/h (0 Bft) N-NO 26 0,7 C 0,0 km/h (0 Bft) 100 %
27.11.2018 06:39 1,9 C 92 % 1017,1 hPa 0,0 l/m 0,0 km/h (0 Bft) N-NO 25 0,7 C 0,0 km/h (0 Bft) 96 %
27.11.2018 06:40 1,9 C 92 % 1017,1 hPa 0,0 l/m 1,0 km/h (0 Bft) N-NO 26 0,7 C 3,1 km/h (1 Bft) 96 %
27.11.2018 06:41 1,9 C 92 % 1017,0 hPa 0,0 l/m 0,1 km/h (0 Bft) NO 56 0,7 C 3,1 km/h (1 Bft) 100 %
27.11.2018 06:42 1,9 C 92 % 1017,1 hPa 0,0 l/m 2,1 km/h (1 Bft) O-SO 106 0,7 C 6,3 km/h (2 Bft) 100 %
27.11.2018 06:43 1,9 C 92 % 1017,0 hPa 0,0 l/m 0,3 km/h (0 Bft) O-SO 106 0,7 C 3,1 km/h (1 Bft) 100 %
27.11.2018 06:44 1,9 C 92 % 1017,0 hPa 0,0 l/m 0,1 km/h (0 Bft) O 96 0,7 C 3,1 km/h (1 Bft) 100 %
27.11.2018 06:45 1,9 C 92 % 1017,0 hPa 0,0 l/m 0,5 km/h (0 Bft) O-NO 64 0,7 C 3,1 km/h (1 Bft) 96 %
27.11.2018 06:46 1,9 C 92 % 1017,1 hPa 0,0 l/m 3,1 km/h (1 Bft) NO 39 0,7 C 6,3 km/h (2 Bft) 100 %
27.11.2018 06:47 1,9 C 92 % 1017,0 hPa 0,0 l/m 0,6 km/h (0 Bft) O-NO 72 0,7 C 6,3 km/h (2 Bft) 100 %
27.11.2018 06:48 1,9 C 92 % 1017,1 hPa 0,0 l/m 0,0 km/h (0 Bft) O-NO 72 0,7 C 0,0 km/h (0 Bft) 100 %
27.11.2018 06:49 1,9 C 92 % 1017,1 hPa 0,0 l/m 0,0 km/h (0 Bft) O-NO 72 0,7 C 0,0 km/h (0 Bft) 100 %
27.11.2018 06:50 1,9 C 92 % 1017,1 hPa 0,0 l/m 0,3 km/h (0 Bft) O-NO 72 0,7 C 3,1 km/h (1 Bft) 88 %
27.11.2018 06:51 1,9 C 92 % 1017,1 hPa 0,0 l/m 0,0 km/h (0 Bft) O-NO 72 0,7 C 0,0 km/h (0 Bft) 100 %
27.11.2018 06:52 1,9 C 92 % 1017,1 hPa 0,0 l/m 0,0 km/h (0 Bft) O-NO 72 0,7 C 0,0 km/h (0 Bft) 100 %
27.11.2018 06:53 1,9 C 92 % 1017,1 hPa 0,0 l/m 2,5 km/h (1 Bft) O 83 0,7 C 6,3 km/h (2 Bft) 100 %
27.11.2018 06:54 1,9 C 92 % 1017,1 hPa 0,0 l/m 0,1 km/h (0 Bft) O-NO 76 0,7 C 3,1 km/h (1 Bft) 100 %
27.11.2018 06:55 1,9 C 92 % 1017,1 hPa 0,0 l/m 0,0 km/h (0 Bft) O-NO 75 0,7 C 0,0 km/h (0 Bft) 96 %
27.11.2018 06:56 1,9 C 92 % 1017,2 hPa 0,0 l/m 0,0 km/h (0 Bft) O-NO 75 0,7 C 0,0 km/h (0 Bft) 100 %
27.11.2018 06:57 1,9 C 92 % 1017,3 hPa 0,0 l/m 0,0 km/h (0 Bft) O-NO 76 0,7 C 0,0 km/h (0 Bft) 100 %
27.11.2018 06:58 1,9 C 92 % 1017,3 hPa 0,0 l/m 0,4 km/h (0 Bft) O-NO 75 0,7 C 3,1 km/h (1 Bft) 100 %
27.11.2018 06:59 1,9 C 92 % 1017,3 hPa 0,0 l/m 3,9 km/h (1 Bft) NO 49 0,7 C 6,3 km/h (2 Bft) 100 %
27.11.2018 07:00 1,9 C 92 % 1017,3 hPa 0,0 l/m 1,8 km/h (1 Bft) N-NO 26 0,7 C 6,3 km/h (2 Bft) 96 %
27.11.2018 07:01 1,9 C 92 % 1017,3 hPa 0,0 l/m 2,0 km/h (1 Bft) O-SO 106 0,7 C 6,3 km/h (2 Bft) 96 %
27.11.2018 07:02 1,9 C 92 % 1017,3 hPa 0,0 l/m 0,6 km/h (0 Bft) O-SO 104 0,7 C 3,1 km/h (1 Bft) 100 %
27.11.2018 07:03 1,9 C 92 % 1017,3 hPa 0,0 l/m 0,1 km/h (0 Bft) O-SO 104 0,7 C 3,1 km/h (1 Bft) 100 %
27.11.2018 07:04 1,9 C 92 % 1017,3 hPa 0,0 l/m 0,5 km/h (0 Bft) O-SO 104 0,7 C 3,1 km/h (1 Bft) 96 %
27.11.2018 07:05 1,9 C 92 % 1017,4 hPa 0,0 l/m 1,6 km/h (1 Bft) O 83 0,7 C 3,1 km/h (1 Bft) 96 %
27.11.2018 07:06 1,9 C 92 % 1017,4 hPa 0,0 l/m 1,4 km/h (1 Bft) O-NO 63 0,7 C 3,1 km/h (1 Bft) 100 %
27.11.2018 07:07 1,9 C 92 % 1017,3 hPa 0,0 l/m 1,0 km/h (0 Bft) NO 41 0,7 C 3,1 km/h (1 Bft) 96 %
27.11.2018 07:08 1,9 C 92 % 1017,4 hPa 0,0 l/m 0,9 km/h (0 Bft) O 79 0,7 C 6,3 km/h (2 Bft) 100 %
27.11.2018 07:09 1,9 C 92 % 1017,4 hPa 0,0 l/m 1,3 km/h (1 Bft) O 84 0,7 C 6,3 km/h (2 Bft) 96 %
27.11.2018 07:10 1,9 C 92 % 1017,4 hPa 0,0 l/m 0,0 km/h (0 Bft) O 86 0,7 C 0,0 km/h (0 Bft) 100 %
27.11.2018 07:11 1,9 C 92 % 1017,4 hPa 0,0 l/m 1,7 km/h (1 Bft) N 8 0,7 C 6,3 km/h (2 Bft) 96 %
27.11.2018 07:12 1,9 C 92 % 1017,4 hPa 0,0 l/m 0,0 km/h (0 Bft) NO 41 0,7 C 0,0 km/h (0 Bft) 96 %
27.11.2018 07:13 1,9 C 92 % 1017,5 hPa 0,0 l/m 0,5 km/h (0 Bft) O 83 0,7 C 3,1 km/h (1 Bft) 100 %
27.11.2018 07:14 1,9 C 92 % 1017,5 hPa 0,0 l/m 3,3 km/h (1 Bft) O-NO 60 0,7 C 6,3 km/h (2 Bft) 96 %
27.11.2018 07:15 1,9 C 92 % 1017,5 hPa 0,0 l/m 4,3 km/h (1 Bft) NO 51 0,7 C 6,3 km/h (2 Bft) 100 %
27.11.2018 07:16 1,9 C 92 % 1017,5 hPa 0,0 l/m 2,5 km/h (1 Bft) O-NO 67 0,7 C 9,4 km/h (2 Bft) 96 %
27.11.2018 07:17 1,9 C 92 % 1017,5 hPa 0,0 l/m 1,0 km/h (0 Bft) O 87 0,7 C 3,1 km/h (1 Bft) 100 %
27.11.2018 07:18 1,9 C 92 % 1017,5 hPa 0,0 l/m 1,4 km/h (1 Bft) N-NO 19 0,7 C 3,1 km/h (1 Bft) 96 %
27.11.2018 07:19 1,9 C 92 % 1017,5 hPa 0,0 l/m 2,0 km/h (1 Bft) NO 50 0,7 C 3,1 km/h (1 Bft) 100 %
27.11.2018 07:20 1,9 C 92 % 1017,5 hPa 0,0 l/m 1,3 km/h (1 Bft) NO 45 0,7 C 3,1 km/h (1 Bft) 96 %
27.11.2018 07:21 1,9 C 92 % 1017,5 hPa 0,0 l/m 1,2 km/h (1 Bft) NO 38 0,7 C 3,1 km/h (1 Bft) 100 %
27.11.2018 07:22 1,9 C 92 % 1017,5 hPa 0,0 l/m 2,7 km/h (1 Bft) O 92 0,7 C 6,3 km/h (2 Bft) 97 %
27.11.2018 07:23 1,9 C 92 % 1017,5 hPa 0,0 l/m 0,4 km/h (0 Bft) O-SO 108 0,7 C 3,1 km/h (1 Bft) 96 %
27.11.2018 07:24 1,9 C 92 % 1017,5 hPa 0,0 l/m 0,0 km/h (0 Bft) O-SO 108 0,7 C 0,0 km/h (0 Bft) 100 %
27.11.2018 07:25 1,9 C 92 % 1017,5 hPa 0,0 l/m 1,3 km/h (1 Bft) O-NO 68 0,7 C 3,1 km/h (1 Bft) 96 %
27.11.2018 07:26 1,9 C 92 % 1017,5 hPa 0,0 l/m 0,0 km/h (0 Bft) O-NO 75 0,7 C 0,0 km/h (0 Bft) 100 %
27.11.2018 07:27 1,9 C 92 % 1017,6 hPa 0,0 l/m 0,0 km/h (0 Bft) O-NO 75 0,7 C 0,0 km/h (0 Bft) 96 %
27.11.2018 07:28 1,9 C 92 % 1017,6 hPa 0,0 l/m 0,0 km/h (0 Bft) O-NO 75 0,7 C 0,0 km/h (0 Bft) 100 %
27.11.2018 07:29 1,9 C 92 % 1017,6 hPa 0,0 l/m 0,0 km/h (0 Bft) O-NO 75 0,7 C 0,0 km/h (0 Bft) 96 %
27.11.2018 07:30 1,9 C 92 % 1017,6 hPa 0,0 l/m 2,7 km/h (1 Bft) N-NO 33 0,7 C 9,4 km/h (2 Bft) 96 %
27.11.2018 07:31 1,9 C 92 % 1017,6 hPa 0,0 l/m 2,2 km/h (1 Bft) N-NO 31 0,7 C 6,3 km/h (2 Bft) 100 %
27.11.2018 07:32 1,9 C 92 % 1017,6 hPa 0,0 l/m 2,0 km/h (1 Bft) NO 37 0,7 C 6,3 km/h (2 Bft) 96 %
27.11.2018 07:33 1,8 C 92 % 1017,7 hPa 0,0 l/m 1,7 km/h (1 Bft) O-NO 75 0,6 C 3,1 km/h (1 Bft) 100 %
27.11.2018 07:34 1,8 C 92 % 1017,6 hPa 0,0 l/m 0,1 km/h (0 Bft) O-NO 73 0,6 C 3,1 km/h (1 Bft) 96 %
27.11.2018 07:35 1,8 C 92 % 1017,7 hPa 0,0 l/m 0,4 km/h (0 Bft) O-NO 58 0,6 C 3,1 km/h (1 Bft) 100 %
27.11.2018 07:36 1,9 C 92 % 1017,6 hPa 0,0 l/m 0,0 km/h (0 Bft) O-NO 58 0,7 C 0,0 km/h (0 Bft) 96 %
27.11.2018 07:37 1,9 C 92 % 1017,7 hPa 0,0 l/m 1,2 km/h (1 Bft) O-NO 58 0,7 C 3,1 km/h (1 Bft) 96 %
27.11.2018 07:38 1,8 C 92 % 1017,7 hPa 0,0 l/m 0,0 km/h (0 Bft) O-NO 58 0,6 C 0,0 km/h (0 Bft) 100 %
27.11.2018 07:39 1,9 C 92 % 1017,7 hPa 0,0 l/m 0,9 km/h (0 Bft) O-NO 68 0,7 C 3,1 km/h (1 Bft) 96 %
27.11.2018 07:40 1,9 C 92 % 1017,7 hPa 0,0 l/m 0,0 km/h (0 Bft) O-NO 68 0,7 C 0,0 km/h (0 Bft) 100 %
27.11.2018 07:41 1,8 C 91 % 1017,7 hPa 0,0 l/m 0,0 km/h (0 Bft) O-NO 68 0,5 C 0,0 km/h (0 Bft) 96 %
27.11.2018 07:42 1,8 C 91 % 1017,7 hPa 0,0 l/m 0,1 km/h (0 Bft) N-NO 33 0,5 C 3,1 km/h (1 Bft) 100 %
27.11.2018 07:43 1,8 C 92 % 1017,7 hPa 0,0 l/m 0,3 km/h (0 Bft) NO 34 0,6 C 3,1 km/h (1 Bft) 96 %
27.11.2018 07:44 1,8 C 92 % 1017,8 hPa 0,0 l/m 0,5 km/h (0 Bft) O-SO 111 0,6 C 3,1 km/h (1 Bft) 100 %
27.11.2018 07:45 1,8 C 91 % 1017,8 hPa 0,0 l/m 3,5 km/h (1 Bft) O 86 0,5 C 9,4 km/h (2 Bft) 96 %
27.11.2018 07:46 1,8 C 91 % 1017,8 hPa 0,0 l/m 0,4 km/h (0 Bft) O-NO 66 0,5 C 3,1 km/h (1 Bft) 96 %
27.11.2018 07:47 1,8 C 91 % 1017,8 hPa 0,0 l/m 0,8 km/h (0 Bft) O-NO 72 0,5 C 3,1 km/h (1 Bft) 100 %
27.11.2018 07:48 1,8 C 91 % 1017,9 hPa 0,0 l/m 0,7 km/h (0 Bft) O-NO 63 0,5 C 3,1 km/h (1 Bft) 96 %
27.11.2018 07:49 1,8 C 91 % 1017,9 hPa 0,0 l/m 0,0 km/h (0 Bft) O-NO 63 0,5 C 0,0 km/h (0 Bft) 100 %
27.11.2018 07:50 1,8 C 91 % 1017,8 hPa 0,0 l/m 0,1 km/h (0 Bft) O-NO 63 0,5 C 3,1 km/h (1 Bft) 93 %
27.11.2018 07:51 1,8 C 91 % 1017,9 hPa 0,0 l/m 0,1 km/h (0 Bft) O-NO 63 0,5 C 3,1 km/h (1 Bft) 100 %
27.11.2018 07:52 1,8 C 91 % 1017,9 hPa 0,0 l/m 0,0 km/h (0 Bft) O-NO 63 0,5 C 0,0 km/h (0 Bft) 96 %
27.11.2018 07:53 1,8 C 91 % 1017,9 hPa 0,0 l/m 0,0 km/h (0 Bft) O-NO 63 0,5 C 0,0 km/h (0 Bft) 100 %
27.11.2018 07:54 1,8 C 91 % 1017,9 hPa 0,0 l/m 0,0 km/h (0 Bft) O-NO 63 0,5 C 0,0 km/h (0 Bft) 96 %
27.11.2018 07:55 1,8 C 91 % 1017,8 hPa 0,0 l/m 0,0 km/h (0 Bft) O-NO 63 0,5 C 0,0 km/h (0 Bft) 100 %
27.11.2018 07:56 1,9 C 91 % 1017,9 hPa 0,0 l/m 0,0 km/h (0 Bft) O-NO 63 0,6 C 0,0 km/h (0 Bft) 96 %
27.11.2018 07:57 1,8 C 91 % 1017,9 hPa 0,0 l/m 0,0 km/h (0 Bft) O-NO 63 0,5 C 0,0 km/h (0 Bft) 100 %
27.11.2018 07:58 1,8 C 91 % 1017,9 hPa 0,0 l/m 0,0 km/h (0 Bft) O-NO 63 0,5 C 0,0 km/h (0 Bft) 100 %
27.11.2018 07:59 1,8 C 91 % 1017,9 hPa 0,0 l/m 0,3 km/h (0 Bft) O-NO 63 0,5 C 3,1 km/h (1 Bft) 100 %
27.11.2018 08:00 1,8 C 91 % 1017,9 hPa 0,0 l/m 0,1 km/h (0 Bft) O-NO 63 0,5 C 3,1 km/h (1 Bft) 100 %
27.11.2018 08:01 1,8 C 92 % 1017,9 hPa 0,0 l/m 0,0 km/h (0 Bft) O-NO 63 0,6 C 0,0 km/h (0 Bft) 100 %
27.11.2018 08:02 1,8 C 91 % 1018,0 hPa 0,0 l/m 0,0 km/h (0 Bft) O-NO 63 0,5 C 0,0 km/h (0 Bft) 100 %
27.11.2018 08:03 1,8 C 91 % 1018,0 hPa 0,0 l/m 0,0 km/h (0 Bft) O-NO 63 0,5 C 0,0 km/h (0 Bft) 100 %
27.11.2018 08:04 1,8 C 91 % 1018,0 hPa 0,0 l/m 0,1 km/h (0 Bft) O-NO 63 0,5 C 3,1 km/h (1 Bft) 100 %
27.11.2018 08:05 1,8 C 91 % 1018,0 hPa 0,0 l/m 0,0 km/h (0 Bft) O-NO 63 0,5 C 0,0 km/h (0 Bft) 100 %
27.11.2018 08:06 1,8 C 91 % 1018,0 hPa 0,0 l/m 0,0 km/h (0 Bft) O-NO 63 0,5 C 0,0 km/h (0 Bft) 100 %
27.11.2018 08:07 1,8 C 91 % 1018,0 hPa 0,0 l/m 0,0 km/h (0 Bft) O-NO 63 0,5 C 0,0 km/h (0 Bft) 100 %
27.11.2018 08:08 1,8 C 91 % 1018,0 hPa 0,0 l/m 0,0 km/h (0 Bft) O-NO 63 0,5 C 0,0 km/h (0 Bft) 100 %
27.11.2018 08:09 1,8 C 91 % 1018,0 hPa 0,0 l/m 0,0 km/h (0 Bft) O-NO 66 0,5 C 0,0 km/h (0 Bft) 100 %
27.11.2018 08:10 1,8 C 91 % 1018,0 hPa 0,0 l/m 0,0 km/h (0 Bft) O-NO 66 0,5 C 0,0 km/h (0 Bft) 100 %
27.11.2018 08:11 1,8 C 91 % 1018,0 hPa 0,0 l/m 0,0 km/h (0 Bft) O-NO 66 0,5 C 0,0 km/h (0 Bft) 100 %
27.11.2018 08:12 1,8 C 91 % 1018,1 hPa 0,0 l/m 0,0 km/h (0 Bft) O-NO 66 0,5 C 0,0 km/h (0 Bft) 100 %
27.11.2018 08:13 1,8 C 91 % 1018,1 hPa 0,0 l/m 0,0 km/h (0 Bft) O-NO 66 0,5 C 0,0 km/h (0 Bft) 100 %
27.11.2018 08:14 1,8 C 91 % 1018,1 hPa 0,0 l/m 0,1 km/h (0 Bft) O-NO 66 0,5 C 3,1 km/h (1 Bft) 100 %
27.11.2018 08:15 1,8 C 91 % 1018,1 hPa 0,0 l/m 0,1 km/h (0 Bft) O-NO 66 0,5 C 3,1 km/h (1 Bft) 100 %
27.11.2018 08:16 1,8 C 91 % 1018,1 hPa 0,0 l/m 1,4 km/h (1 Bft) NO 47 0,5 C 6,3 km/h (2 Bft) 100 %
27.11.2018 08:17 1,8 C 91 % 1018,1 hPa 0,0 l/m 0,0 km/h (0 Bft) NO 47 0,5 C 0,0 km/h (0 Bft) 100 %
27.11.2018 08:18 1,8 C 91 % 1018,1 hPa 0,0 l/m 0,1 km/h (0 Bft) O-NO 74 0,5 C 3,1 km/h (1 Bft) 100 %
27.11.2018 08:19 1,8 C 91 % 1018,2 hPa 0,0 l/m 0,0 km/h (0 Bft) O-NO 74 0,5 C 0,0 km/h (0 Bft) 100 %
27.11.2018 08:20 1,8 C 91 % 1018,2 hPa 0,0 l/m 0,3 km/h (0 Bft) O-NO 73 0,5 C 3,1 km/h (1 Bft) 100 %
27.11.2018 08:21 1,8 C 91 % 1018,2 hPa 0,0 l/m 0,9 km/h (0 Bft) O-SO 115 0,5 C 3,1 km/h (1 Bft) 100 %
27.11.2018 08:22 1,8 C 91 % 1018,3 hPa 0,0 l/m 2,2 km/h (1 Bft) SO 141 0,5 C 9,4 km/h (2 Bft) 100 %
27.11.2018 08:23 1,8 C 91 % 1018,2 hPa 0,0 l/m 1,6 km/h (1 Bft) O 101 0,5 C 3,1 km/h (1 Bft) 100 %
27.11.2018 08:24 1,8 C 91 % 1018,3 hPa 0,0 l/m 0,4 km/h (0 Bft) O 101 0,5 C 3,1 km/h (1 Bft) 100 %
27.11.2018 08:25 1,8 C 91 % 1018,2 hPa 0,0 l/m 0,0 km/h (0 Bft) O 101 0,5 C 0,0 km/h (0 Bft) 100 %
27.11.2018 08:26 1,8 C 91 % 1018,3 hPa 0,0 l/m 0,0 km/h (0 Bft) O 101 0,5 C 0,0 km/h (0 Bft) 100 %
27.11.2018 08:27 1,8 C 91 % 1018,3 hPa 0,0 l/m 0,0 km/h (0 Bft) O 101 0,5 C 0,0 km/h (0 Bft) 100 %
27.11.2018 08:28 1,8 C 91 % 1018,3 hPa 0,0 l/m 0,0 km/h (0 Bft) O 101 0,5 C 0,0 km/h (0 Bft) 100 %
27.11.2018 08:29 1,8 C 91 % 1018,3 hPa 0,0 l/m 0,0 km/h (0 Bft) O 101 0,5 C 0,0 km/h (0 Bft) 100 %
27.11.2018 08:30 1,8 C 91 % 1018,3 hPa 0,0 l/m 0,1 km/h (0 Bft) O 101 0,5 C 3,1 km/h (1 Bft) 100 %
27.11.2018 08:31 1,8 C 91 % 1018,3 hPa 0,0 l/m 0,0 km/h (0 Bft) O-SO 117 0,5 C 0,0 km/h (0 Bft) 100 %
27.11.2018 08:32 1,8 C 91 % 1018,4 hPa 0,0 l/m 0,3 km/h (0 Bft) O-SO 119 0,5 C 3,1 km/h (1 Bft) 100 %
27.11.2018 08:33 1,8 C 91 % 1018,4 hPa 0,0 l/m 0,0 km/h (0 Bft) O-SO 119 0,5 C 0,0 km/h (0 Bft) 100 %
27.11.2018 08:34 1,8 C 91 % 1018,3 hPa 0,0 l/m 0,0 km/h (0 Bft) O-SO 119 0,5 C 0,0 km/h (0 Bft) 100 %
27.11.2018 08:35 1,8 C 91 % 1018,4 hPa 0,0 l/m 0,0 km/h (0 Bft) O-SO 119 0,5 C 0,0 km/h (0 Bft) 100 %
27.11.2018 08:36 1,8 C 91 % 1018,4 hPa 0,0 l/m 0,0 km/h (0 Bft) O-SO 119 0,5 C 0,0 km/h (0 Bft) 100 %
27.11.2018 08:37 1,8 C 91 % 1018,4 hPa 0,0 l/m 0,0 km/h (0 Bft) O-SO 119 0,5 C 0,0 km/h (0 Bft) 100 %
27.11.2018 08:38 1,8 C 91 % 1018,4 hPa 0,0 l/m 0,0 km/h (0 Bft) O-SO 119 0,5 C 0,0 km/h (0 Bft) 100 %
27.11.2018 08:39 1,8 C 91 % 1018,4 hPa 0,0 l/m 0,4 km/h (0 Bft) O-SO 111 0,5 C 3,1 km/h (1 Bft) 100 %
27.11.2018 08:40 1,8 C 91 % 1018,4 hPa 0,0 l/m 0,0 km/h (0 Bft) O-SO 111 0,5 C 0,0 km/h (0 Bft) 100 %
27.11.2018 08:41 1,8 C 91 % 1018,4 hPa 0,0 l/m 0,0 km/h (0 Bft) O-SO 111 0,5 C 0,0 km/h (0 Bft) 100 %
27.11.2018 08:42 1,8 C 91 % 1018,4 hPa 0,0 l/m 0,0 km/h (0 Bft) O-SO 111 0,5 C 0,0 km/h (0 Bft) 100 %
27.11.2018 08:43 1,8 C 91 % 1018,5 hPa 0,0 l/m 0,0 km/h (0 Bft) O-SO 111 0,5 C 0,0 km/h (0 Bft) 100 %
27.11.2018 08:44 1,8 C 91 % 1018,4 hPa 0,0 l/m 0,0 km/h (0 Bft) O-SO 111 0,5 C 0,0 km/h (0 Bft) 100 %
27.11.2018 08:45 1,8 C 91 % 1018,5 hPa 0,0 l/m 0,2 km/h (0 Bft) O-SO 111 0,5 C 3,1 km/h (1 Bft) 100 %
27.11.2018 08:46 1,8 C 91 % 1018,5 hPa 0,0 l/m 0,0 km/h (0 Bft) O-SO 111 0,5 C 0,0 km/h (0 Bft) 100 %
27.11.2018 08:47 1,8 C 91 % 1018,5 hPa 0,0 l/m 0,0 km/h (0 Bft) O-SO 111 0,5 C 0,0 km/h (0 Bft) 100 %
27.11.2018 08:48 1,8 C 91 % 1018,6 hPa 0,0 l/m 0,0 km/h (0 Bft) O-SO 111 0,5 C 0,0 km/h (0 Bft) 100 %
27.11.2018 08:49 1,8 C 91 % 1018,6 hPa 0,0 l/m 0,0 km/h (0 Bft) O-SO 111 0,5 C 0,0 km/h (0 Bft) 100 %
27.11.2018 08:50 1,8 C 92 % 1018,6 hPa 0,0 l/m 0,2 km/h (0 Bft) O-SO 111 0,6 C 3,1 km/h (1 Bft) 100 %
27.11.2018 08:51 1,8 C 91 % 1018,6 hPa 0,0 l/m 0,0 km/h (0 Bft) O-SO 111 0,5 C 0,0 km/h (0 Bft) 100 %
27.11.2018 08:52 1,8 C 91 % 1018,6 hPa 0,0 l/m 0,0 km/h (0 Bft) O-SO 111 0,5 C 0,0 km/h (0 Bft) 100 %
27.11.2018 08:53 1,8 C 91 % 1018,6 hPa 0,0 l/m 0,1 km/h (0 Bft) O-SO 111 0,5 C 3,1 km/h (1 Bft) 100 %
27.11.2018 08:54 1,8 C 91 % 1018,6 hPa 0,0 l/m 0,0 km/h (0 Bft) O-SO 111 0,5 C 0,0 km/h (0 Bft) 96 %
27.11.2018 08:55 1,8 C 92 % 1018,6 hPa 0,0 l/m 0,0 km/h (0 Bft) O-SO 111 0,6 C 0,0 km/h (0 Bft) 100 %
27.11.2018 08:56 1,8 C 92 % 1018,7 hPa 0,0 l/m 0,1 km/h (0 Bft) O-SO 111 0,6 C 3,1 km/h (1 Bft) 100 %
27.11.2018 08:57 1,8 C 92 % 1018,7 hPa 0,0 l/m 0,2 km/h (0 Bft) O-SO 111 0,6 C 3,1 km/h (1 Bft) 100 %
27.11.2018 08:58 1,8 C 91 % 1018,7 hPa 0,0 l/m 0,0 km/h (0 Bft) O-SO 111 0,5 C 0,0 km/h (0 Bft) 100 %
27.11.2018 08:59 1,8 C 91 % 1018,7 hPa 0,0 l/m 0,0 km/h (0 Bft) O-SO 111 0,5 C 0,0 km/h (0 Bft) 100 %
27.11.2018 09:00 1,8 C 91 % 1018,7 hPa 0,0 l/m 0,0 km/h (0 Bft) O-SO 111 0,5 C 0,0 km/h (0 Bft) 100 %
27.11.2018 09:01 1,8 C 91 % 1018,7 hPa 0,0 l/m 0,0 km/h (0 Bft) O-SO 111 0,5 C 0,0 km/h (0 Bft) 100 %
27.11.2018 09:02 1,8 C 91 % 1018,7 hPa 0,0 l/m 1,1 km/h (1 Bft) O-NO 63 0,5 C 6,3 km/h (2 Bft) 100 %
27.11.2018 09:03 1,8 C 91 % 1018,7 hPa 0,0 l/m 0,8 km/h (0 Bft) O-NO 64 0,5 C 3,1 km/h (1 Bft) 100 %
27.11.2018 09:04 1,8 C 91 % 1018,7 hPa 0,0 l/m 1,3 km/h (1 Bft) O-NO 63 0,5 C 3,1 km/h (1 Bft) 100 %
27.11.2018 09:05 1,8 C 91 % 1018,8 hPa 0,0 l/m 1,9 km/h (1 Bft) NO 53 0,5 C 3,1 km/h (1 Bft) 100 %
27.11.2018 09:06 1,8 C 91 % 1018,8 hPa 0,0 l/m 0,0 km/h (0 Bft) NO 53 0,5 C 0,0 km/h (0 Bft) 100 %
27.11.2018 09:07 1,8 C 91 % 1018,8 hPa 0,0 l/m 0,1 km/h (0 Bft) NO 53 0,5 C 3,1 km/h (1 Bft) 100 %
27.11.2018 09:08 1,8 C 91 % 1018,8 hPa 0,0 l/m 1,4 km/h (1 Bft) O-SO 103 0,5 C 6,3 km/h (2 Bft) 100 %
27.11.2018 09:09 1,8 C 91 % 1018,8 hPa 0,0 l/m 0,8 km/h (0 Bft) O 82 0,5 C 3,1 km/h (1 Bft) 100 %
27.11.2018 09:10 1,8 C 91 % 1018,9 hPa 0,0 l/m 0,0 km/h (0 Bft) O 82 0,5 C 0,0 km/h (0 Bft) 100 %
27.11.2018 09:11 1,8 C 91 % 1018,9 hPa 0,0 l/m 0,1 km/h (0 Bft) O 83 0,5 C 3,1 km/h (1 Bft) 100 %
27.11.2018 09:12 1,8 C 91 % 1018,9 hPa 0,0 l/m 0,0 km/h (0 Bft) O 83 0,5 C 0,0 km/h (0 Bft) 100 %
27.11.2018 09:13 1,8 C 91 % 1018,8 hPa 0,0 l/m 0,0 km/h (0 Bft) O 82 0,5 C 0,0 km/h (0 Bft) 100 %
27.11.2018 09:14 1,8 C 91 % 1018,9 hPa 0,0 l/m 0,0 km/h (0 Bft) O 83 0,5 C 0,0 km/h (0 Bft) 100 %
27.11.2018 09:15 1,8 C 91 % 1018,8 hPa 0,0 l/m 1,0 km/h (0 Bft) O-SO 107 0,5 C 6,3 km/h (2 Bft) 100 %
27.11.2018 09:16 1,8 C 91 % 1018,9 hPa 0,0 l/m 0,0 km/h (0 Bft) O-SO 107 0,5 C 0,0 km/h (0 Bft) 100 %
27.11.2018 09:17 1,8 C 91 % 1018,9 hPa 0,0 l/m 0,0 km/h (0 Bft) O-SO 107 0,5 C 0,0 km/h (0 Bft) 100 %
27.11.2018 09:18 1,8 C 91 % 1018,9 hPa 0,0 l/m 0,0 km/h (0 Bft) O-SO 107 0,5 C 0,0 km/h (0 Bft) 100 %
27.11.2018 09:22 1,8 C 91 % 1018,9 hPa 0,0 l/m 0,0 km/h (0 Bft) O-SO 107 0,5 C 0,0 km/h (0 Bft) 100 %
27.11.2018 09:23 1,8 C 91 % 1018,9 hPa 0,0 l/m 0,9 km/h (0 Bft) O-NO 60 0,5 C 3,1 km/h (1 Bft) 100 %
27.11.2018 09:24 1,8 C 91 % 1018,9 hPa 0,0 l/m 0,0 km/h (0 Bft) O-NO 60 0,5 C 0,0 km/h (0 Bft) 100 %
27.11.2018 09:25 1,8 C 91 % 1019,0 hPa 0,0 l/m 0,1 km/h (0 Bft) O-NO 63 0,5 C 3,1 km/h (1 Bft) 100 %
27.11.2018 09:26 1,8 C 91 % 1018,9 hPa 0,0 l/m 0,0 km/h (0 Bft) O-NO 75 0,5 C 0,0 km/h (0 Bft) 100 %
27.11.2018 09:27 1,8 C 90 % 1019,0 hPa 0,0 l/m 0,0 km/h (0 Bft) O-NO 75 0,3 C 0,0 km/h (0 Bft) 100 %
27.11.2018 09:28 1,8 C 90 % 1019,0 hPa 0,0 l/m 0,0 km/h (0 Bft) O-NO 75 0,3 C 0,0 km/h (0 Bft) 100 %
27.11.2018 09:29 1,8 C 90 % 1019,0 hPa 0,0 l/m 0,0 km/h (0 Bft) O-NO 75 0,3 C 0,0 km/h (0 Bft) 95 %
27.11.2018 09:30 1,8 C 90 % 1019,0 hPa 0,0 l/m 0,0 km/h (0 Bft) O-NO 75 0,3 C 0,0 km/h (0 Bft) 100 %
27.11.2018 09:31 1,8 C 90 % 1019,1 hPa 0,0 l/m 0,0 km/h (0 Bft) O-NO 75 0,3 C 0,0 km/h (0 Bft) 100 %
27.11.2018 09:32 1,8 C 90 % 1019,1 hPa 0,0 l/m 0,0 km/h (0 Bft) O-NO 75 0,3 C 0,0 km/h (0 Bft) 100 %
27.11.2018 09:33 1,8 C 90 % 1019,1 hPa 0,0 l/m 0,0 km/h (0 Bft) O-NO 75 0,3 C 0,0 km/h (0 Bft) 100 %
27.11.2018 09:34 1,8 C 90 % 1019,1 hPa 0,0 l/m 0,0 km/h (0 Bft) O-NO 75 0,3 C 0,0 km/h (0 Bft) 100 %
27.11.2018 09:35 1,8 C 90 % 1019,1 hPa 0,0 l/m 0,0 km/h (0 Bft) O-NO 75 0,3 C 0,0 km/h (0 Bft) 100 %
27.11.2018 09:36 1,8 C 90 % 1019,1 hPa 0,0 l/m 0,0 km/h (0 Bft) O-NO 75 0,3 C 0,0 km/h (0 Bft) 100 %
27.11.2018 09:37 1,8 C 90 % 1019,0 hPa 0,0 l/m 0,0 km/h (0 Bft) O-NO 75 0,3 C 0,0 km/h (0 Bft) 100 %
27.11.2018 09:38 1,8 C 90 % 1019,1 hPa 0,0 l/m 0,0 km/h (0 Bft) O-NO 75 0,3 C 0,0 km/h (0 Bft) 100 %
27.11.2018 09:39 1,8 C 89 % 1019,1 hPa 0,0 l/m 0,0 km/h (0 Bft) O-NO 75 0,2 C 0,0 km/h (0 Bft) 100 %
27.11.2018 09:40 1,8 C 89 % 1019,1 hPa 0,0 l/m 0,0 km/h (0 Bft) O-NO 75 0,2 C 0,0 km/h (0 Bft) 100 %
27.11.2018 09:41 1,9 C 89 % 1019,2 hPa 0,0 l/m 0,0 km/h (0 Bft) O-NO 75 0,3 C 0,0 km/h (0 Bft) 100 %
27.11.2018 09:42 1,9 C 89 % 1019,2 hPa 0,0 l/m 0,0 km/h (0 Bft) O-NO 75 0,3 C 0,0 km/h (0 Bft) 100 %
27.11.2018 09:43 1,9 C 89 % 1019,1 hPa 0,0 l/m 0,0 km/h (0 Bft) O-NO 75 0,3 C 0,0 km/h (0 Bft) 100 %
27.11.2018 09:44 1,9 C 89 % 1019,2 hPa 0,0 l/m 0,3 km/h (0 Bft) O-NO 76 0,3 C 3,1 km/h (1 Bft) 100 %
27.11.2018 09:45 1,9 C 89 % 1019,2 hPa 0,0 l/m 0,9 km/h (0 Bft) O 86 0,3 C 3,1 km/h (1 Bft) 100 %
27.11.2018 09:46 1,9 C 88 % 1019,2 hPa 0,0 l/m 0,0 km/h (0 Bft) O 86 0,1 C 0,0 km/h (0 Bft) 100 %
27.11.2018 09:47 1,9 C 88 % 1019,3 hPa 0,0 l/m 0,0 km/h (0 Bft) O 86 0,1 C 0,0 km/h (0 Bft) 100 %
27.11.2018 09:48 1,9 C 88 % 1019,2 hPa 0,0 l/m 0,0 km/h (0 Bft) O 86 0,1 C 0,0 km/h (0 Bft) 100 %
27.11.2018 09:49 1,9 C 88 % 1019,3 hPa 0,0 l/m 0,0 km/h (0 Bft) O 86 0,1 C 0,0 km/h (0 Bft) 100 %
27.11.2018 09:50 1,9 C 88 % 1019,3 hPa 0,0 l/m 0,0 km/h (0 Bft) O 86 0,1 C 0,0 km/h (0 Bft) 100 %
27.11.2018 09:51 1,9 C 88 % 1019,3 hPa 0,0 l/m 0,0 km/h (0 Bft) O 86 0,1 C 0,0 km/h (0 Bft) 100 %
27.11.2018 09:52 2,0 C 88 % 1019,3 hPa 0,0 l/m 0,0 km/h (0 Bft) O 86 0,2 C 0,0 km/h (0 Bft) 100 %
27.11.2018 09:53 2,0 C 88 % 1019,3 hPa 0,0 l/m 0,0 km/h (0 Bft) O 86 0,2 C 0,0 km/h (0 Bft) 100 %
27.11.2018 09:54 2,0 C 88 % 1019,4 hPa 0,0 l/m 0,0 km/h (0 Bft) O 86 0,2 C 0,0 km/h (0 Bft) 100 %
27.11.2018 09:55 2,0 C 87 % 1019,3 hPa 0,0 l/m 0,0 km/h (0 Bft) O 86 0,1 C 0,0 km/h (0 Bft) 100 %
27.11.2018 09:56 2,1 C 88 % 1019,4 hPa 0,0 l/m 0,0 km/h (0 Bft) O 86 0,3 C 0,0 km/h (0 Bft) 100 %
27.11.2018 09:57 2,1 C 87 % 1019,3 hPa 0,0 l/m 0,9 km/h (0 Bft) O 86 0,2 C 3,1 km/h (1 Bft) 100 %
27.11.2018 09:58 2,1 C 87 % 1019,4 hPa 0,0 l/m 0,4 km/h (0 Bft) SW 221 0,2 C 3,1 km/h (1 Bft) 100 %
27.11.2018 09:59 2,1 C 86 % 1019,4 hPa 0,0 l/m 2,2 km/h (1 Bft) O 99 0,0 C 6,3 km/h (2 Bft) 100 %
27.11.2018 10:00 2,1 C 86 % 1019,3 hPa 0,0 l/m 0,1 km/h (0 Bft) O 99 0,0 C 3,1 km/h (1 Bft) 100 %
27.11.2018 10:01 2,2 C 86 % 1019,4 hPa 0,0 l/m 0,0 km/h (0 Bft) O 99 0,1 C 0,0 km/h (0 Bft) 100 %
27.11.2018 10:02 2,2 C 86 % 1019,4 hPa 0,0 l/m 0,4 km/h (0 Bft) O 99 0,1 C 3,1 km/h (1 Bft) 100 %
27.11.2018 10:03 2,2 C 86 % 1019,4 hPa 0,0 l/m 0,0 km/h (0 Bft) O 99 0,1 C 0,0 km/h (0 Bft) 100 %
27.11.2018 10:04 2,2 C 86 % 1019,4 hPa 0,0 l/m 0,1 km/h (0 Bft) O 99 0,1 C 3,1 km/h (1 Bft) 100 %
27.11.2018 10:05 2,2 C 86 % 1019,4 hPa 0,0 l/m 0,7 km/h (0 Bft) N-NO 23 0,1 C 3,1 km/h (1 Bft) 100 %
27.11.2018 10:06 2,2 C 85 % 1019,4 hPa 0,0 l/m 0,7 km/h (0 Bft) O 84 -0,1 C 3,1 km/h (1 Bft) 100 %
27.11.2018 10:07 2,2 C 85 % 1019,5 hPa 0,0 l/m 3,4 km/h (1 Bft) O 80 -0,1 C 9,4 km/h (2 Bft) 100 %
27.11.2018 10:08 2,2 C 84 % 1019,5 hPa 0,0 l/m 2,0 km/h (1 Bft) O 89 -0,2 C 6,3 km/h (2 Bft) 100 %
27.11.2018 10:09 2,2 C 84 % 1019,5 hPa 0,0 l/m 3,7 km/h (1 Bft) NO 36 -0,2 C 9,4 km/h (2 Bft) 100 %
27.11.2018 10:10 2,2 C 84 % 1019,6 hPa 0,0 l/m 2,9 km/h (1 Bft) NO 36 -0,2 C 6,3 km/h (2 Bft) 100 %
27.11.2018 10:11 2,2 C 84 % 1019,6 hPa 0,0 l/m 0,2 km/h (0 Bft) NO 36 -0,2 C 3,1 km/h (1 Bft) 100 %
27.11.2018 10:12 2,2 C 84 % 1019,6 hPa 0,0 l/m 0,0 km/h (0 Bft) NO 36 -0,2 C 0,0 km/h (0 Bft) 100 %
27.11.2018 10:13 2,3 C 84 % 1019,6 hPa 0,0 l/m 0,2 km/h (0 Bft) O-SO 108 -0,1 C 3,1 km/h (1 Bft) 100 %
27.11.2018 10:14 2,3 C 84 % 1019,6 hPa 0,0 l/m 1,8 km/h (1 Bft) SO 128 -0,1 C 6,3 km/h (2 Bft) 100 %
27.11.2018 10:15 2,3 C 84 % 1019,7 hPa 0,0 l/m 2,4 km/h (1 Bft) O-NO 69 -0,1 C 6,3 km/h (2 Bft) 100 %
27.11.2018 10:16 2,3 C 84 % 1019,7 hPa 0,0 l/m 0,0 km/h (0 Bft) O-NO 69 -0,1 C 0,0 km/h (0 Bft) 100 %
27.11.2018 10:17 2,3 C 84 % 1019,7 hPa 0,0 l/m 0,0 km/h (0 Bft) O-NO 69 -0,1 C 0,0 km/h (0 Bft) 100 %
27.11.2018 10:18 2,3 C 84 % 1019,7 hPa 0,0 l/m 0,0 km/h (0 Bft) O-NO 69 -0,1 C 0,0 km/h (0 Bft) 100 %
27.11.2018 10:19 2,3 C 84 % 1019,7 hPa 0,0 l/m 1,3 km/h (1 Bft) O 99 -0,1 C 3,1 km/h (1 Bft) 100 %
27.11.2018 10:20 2,4 C 84 % 1019,7 hPa 0,0 l/m 0,1 km/h (0 Bft) O 99 -0,0 C 3,1 km/h (1 Bft) 100 %
27.11.2018 10:21 2,4 C 84 % 1019,7 hPa 0,0 l/m 0,4 km/h (0 Bft) N-NW 333 -0,0 C 3,1 km/h (1 Bft) 100 %
27.11.2018 10:22 2,4 C 85 % 1019,7 hPa 0,0 l/m 0,7 km/h (0 Bft) N 359 0,1 C 3,1 km/h (1 Bft) 100 %
27.11.2018 10:23 2,4 C 85 % 1019,7 hPa 0,0 l/m 0,5 km/h (0 Bft) NO 46 0,1 C 3,1 km/h (1 Bft) 100 %
27.11.2018 10:24 2,4 C 85 % 1019,7 hPa 0,0 l/m 3,7 km/h (1 Bft) O-NO 75 0,1 C 9,4 km/h (2 Bft) 100 %
27.11.2018 10:25 2,4 C 84 % 1019,6 hPa 0,0 l/m 4,6 km/h (1 Bft) NO 47 -0,0 C 9,4 km/h (2 Bft) 100 %
27.11.2018 10:26 2,4 C 84 % 1019,7 hPa 0,0 l/m 0,1 km/h (0 Bft) SO 137 -0,0 C 3,1 km/h (1 Bft) 100 %
27.11.2018 10:27 2,4 C 84 % 1019,7 hPa 0,0 l/m 3,8 km/h (1 Bft) NO 53 -0,0 C 6,3 km/h (2 Bft) 100 %
27.11.2018 10:28 2,4 C 84 % 1019,7 hPa 0,0 l/m 3,5 km/h (1 Bft) NO 45 -0,0 C 6,3 km/h (2 Bft) 100 %
27.11.2018 10:29 2,4 C 84 % 1019,7 hPa 0,0 l/m 2,4 km/h (1 Bft) NO 46 -0,0 C 6,3 km/h (2 Bft) 100 %
27.11.2018 10:30 2,4 C 84 % 1019,7 hPa 0,0 l/m 0,5 km/h (0 Bft) O 89 -0,0 C 3,1 km/h (1 Bft) 100 %
27.11.2018 10:31 2,4 C 84 % 1019,7 hPa 0,0 l/m 2,9 km/h (1 Bft) O-NO 67 -0,0 C 3,1 km/h (1 Bft) 100 %
27.11.2018 10:32 2,3 C 84 % 1019,7 hPa 0,0 l/m 0,9 km/h (0 Bft) O-NO 68 -0,1 C 3,1 km/h (1 Bft) 100 %
27.11.2018 10:33 2,4 C 84 % 1019,7 hPa 0,0 l/m 0,3 km/h (0 Bft) O-NO 77 -0,0 C 3,1 km/h (1 Bft) 100 %
27.11.2018 10:34 2,3 C 84 % 1019,7 hPa 0,0 l/m 1,7 km/h (1 Bft) O-NO 65 -0,1 C 3,1 km/h (1 Bft) 100 %
27.11.2018 10:35 2,4 C 84 % 1019,6 hPa 0,0 l/m 2,9 km/h (1 Bft) NO 35 -0,0 C 6,3 km/h (2 Bft) 100 %
27.11.2018 10:36 2,3 C 84 % 1019,7 hPa 0,0 l/m 1,8 km/h (1 Bft) O-NO 77 -0,1 C 6,3 km/h (2 Bft) 100 %
27.11.2018 10:37 2,3 C 84 % 1019,7 hPa 0,0 l/m 3,1 km/h (1 Bft) NO 48 -0,1 C 6,3 km/h (2 Bft) 100 %
27.11.2018 10:38 2,3 C 84 % 1019,7 hPa 0,0 l/m 0,8 km/h (0 Bft) O-NO 68 -0,1 C 3,1 km/h (1 Bft) 100 %
27.11.2018 10:39 2,3 C 85 % 1019,7 hPa 0,0 l/m 0,5 km/h (0 Bft) O-NO 68 0,0 C 3,1 km/h (1 Bft) 100 %
27.11.2018 10:40 2,3 C 85 % 1019,7 hPa 0,0 l/m 1,0 km/h (0 Bft) SO 139 0,0 C 3,1 km/h (1 Bft) 100 %
27.11.2018 10:41 2,3 C 85 % 1019,7 hPa 0,0 l/m 0,0 km/h (0 Bft) S-SO 155 0,0 C 0,0 km/h (0 Bft) 100 %
27.11.2018 10:42 2,4 C 85 % 1019,7 hPa 0,0 l/m 2,4 km/h (1 Bft) O 93 0,1 C 6,3 km/h (2 Bft) 100 %
27.11.2018 10:43 2,4 C 85 % 1019,7 hPa 0,0 l/m 0,5 km/h (0 Bft) NO 40 0,1 C 3,1 km/h (1 Bft) 100 %
27.11.2018 10:44 2,4 C 84 % 1019,7 hPa 0,0 l/m 1,0 km/h (0 Bft) O-NO 63 -0,0 C 3,1 km/h (1 Bft) 100 %
27.11.2018 10:45 2,4 C 84 % 1019,8 hPa 0,0 l/m 0,8 km/h (0 Bft) O-NO 65 -0,0 C 3,1 km/h (1 Bft) 100 %
27.11.2018 10:46 2,4 C 84 % 1019,7 hPa 0,0 l/m 0,0 km/h (0 Bft) O-NO 65 -0,0 C 0,0 km/h (0 Bft) 100 %
27.11.2018 10:47 2,4 C 83 % 1019,7 hPa 0,0 l/m 0,1 km/h (0 Bft) O-NO 63 -0,2 C 3,1 km/h (1 Bft) 100 %
27.11.2018 10:48 2,4 C 83 % 1019,8 hPa 0,0 l/m 1,3 km/h (1 Bft) O-SO 110 -0,2 C 6,3 km/h (2 Bft) 100 %
27.11.2018 10:49 2,4 C 83 % 1019,8 hPa 0,0 l/m 1,7 km/h (1 Bft) SO 125 -0,2 C 9,4 km/h (2 Bft) 100 %
27.11.2018 10:50 2,4 C 82 % 1019,7 hPa 0,0 l/m 2,9 km/h (1 Bft) O-SO 117 -0,4 C 6,3 km/h (2 Bft) 100 %
27.11.2018 10:51 2,3 C 82 % 1019,7 hPa 0,0 l/m 0,3 km/h (0 Bft) O-SO 102 -0,4 C 3,1 km/h (1 Bft) 100 %
27.11.2018 10:52 2,3 C 82 % 1019,8 hPa 0,0 l/m 1,2 km/h (1 Bft) O-NO 72 -0,4 C 3,1 km/h (1 Bft) 100 %
27.11.2018 10:53 2,3 C 82 % 1019,8 hPa 0,0 l/m 1,2 km/h (1 Bft) O 98 -0,4 C 3,1 km/h (1 Bft) 100 %
27.11.2018 10:54 2,3 C 82 % 1019,8 hPa 0,0 l/m 0,2 km/h (0 Bft) O 98 -0,4 C 3,1 km/h (1 Bft) 100 %
27.11.2018 10:55 2,3 C 82 % 1019,8 hPa 0,0 l/m 2,1 km/h (1 Bft) O 84 -0,4 C 6,3 km/h (2 Bft) 100 %
27.11.2018 10:56 2,3 C 81 % 1019,7 hPa 0,0 l/m 1,4 km/h (1 Bft) O 89 -0,6 C 3,1 km/h (1 Bft) 100 %
27.11.2018 10:57 2,3 C 81 % 1019,7 hPa 0,0 l/m 3,0 km/h (1 Bft) NO 55 -0,6 C 9,4 km/h (2 Bft) 100 %
27.11.2018 10:58 2,3 C 81 % 1019,8 hPa 0,0 l/m 2,9 km/h (1 Bft) O-SO 117 -0,6 C 6,3 km/h (2 Bft) 100 %
27.11.2018 10:59 2,2 C 81 % 1019,7 hPa 0,0 l/m 0,5 km/h (0 Bft) NO 44 -0,7 C 3,1 km/h (1 Bft) 100 %
27.11.2018 11:00 2,2 C 81 % 1019,8 hPa 0,0 l/m 1,0 km/h (0 Bft) O 91 -0,7 C 3,1 km/h (1 Bft) 100 %
27.11.2018 11:01 2,2 C 81 % 1019,8 hPa 0,0 l/m 2,0 km/h (1 Bft) NO 45 -0,7 C 3,1 km/h (1 Bft) 100 %
27.11.2018 11:02 2,2 C 81 % 1019,8 hPa 0,0 l/m 0,5 km/h (0 Bft) O-NO 60 -0,7 C 3,1 km/h (1 Bft) 100 %
27.11.2018 11:03 2,2 C 81 % 1019,8 hPa 0,0 l/m 0,0 km/h (0 Bft) O-NO 60 -0,7 C 0,0 km/h (0 Bft) 100 %
27.11.2018 11:04 2,2 C 81 % 1019,8 hPa 0,0 l/m 0,3 km/h (0 Bft) O-NO 60 -0,7 C 3,1 km/h (1 Bft) 100 %
27.11.2018 11:05 2,2 C 80 % 1019,8 hPa 0,0 l/m 0,6 km/h (0 Bft) O 93 -0,9 C 3,1 km/h (1 Bft) 100 %
27.11.2018 11:06 2,2 C 79 % 1019,8 hPa 0,0 l/m 0,6 km/h (0 Bft) NO 52 -1,1 C 3,1 km/h (1 Bft) 100 %
27.11.2018 11:07 2,2 C 79 % 1019,8 hPa 0,0 l/m 2,0 km/h (1 Bft) O-NO 71 -1,1 C 6,3 km/h (2 Bft) 100 %
27.11.2018 11:08 2,2 C 79 % 1019,8 hPa 0,0 l/m 0,9 km/h (0 Bft) O-SO 104 -1,1 C 3,1 km/h (1 Bft) 100 %
27.11.2018 11:09 2,2 C 79 % 1019,8 hPa 0,0 l/m 2,7 km/h (1 Bft) S-SW 205 -1,1 C 9,4 km/h (2 Bft) 100 %
27.11.2018 11:10 2,2 C 79 % 1019,8 hPa 0,0 l/m 0,9 km/h (0 Bft) O-SO 117 -1,1 C 3,1 km/h (1 Bft) 100 %
27.11.2018 11:11 2,2 C 80 % 1019,8 hPa 0,0 l/m 0,9 km/h (0 Bft) O 93 -0,9 C 3,1 km/h (1 Bft) 100 %
27.11.2018 11:12 2,2 C 80 % 1019,8 hPa 0,0 l/m 0,0 km/h (0 Bft) O 93 -0,9 C 0,0 km/h (0 Bft) 100 %
27.11.2018 11:13 2,2 C 80 % 1019,8 hPa 0,0 l/m 0,9 km/h (0 Bft) O-NO 71 -0,9 C 3,1 km/h (1 Bft) 100 %
27.11.2018 11:14 2,2 C 80 % 1019,8 hPa 0,0 l/m 0,8 km/h (0 Bft) O-NO 72 -0,9 C 3,1 km/h (1 Bft) 100 %
27.11.2018 11:15 2,2 C 80 % 1019,9 hPa 0,0 l/m 0,7 km/h (0 Bft) NO 49 -0,9 C 3,1 km/h (1 Bft) 100 %
27.11.2018 11:16 2,2 C 80 % 1019,9 hPa 0,0 l/m 0,9 km/h (0 Bft) O-SO 104 -0,9 C 3,1 km/h (1 Bft) 100 %
27.11.2018 11:17 2,2 C 80 % 1019,8 hPa 0,0 l/m 4,4 km/h (1 Bft) O 97 -0,9 C 12,6 km/h (3 Bft) 100 %
27.11.2018 11:18 2,2 C 80 % 1019,9 hPa 0,0 l/m 0,8 km/h (0 Bft) NO 44 -0,9 C 6,3 km/h (2 Bft) 100 %
27.11.2018 11:19 2,2 C 80 % 1019,8 hPa 0,0 l/m 2,4 km/h (1 Bft) O 84 -0,9 C 6,3 km/h (2 Bft) 100 %
27.11.2018 11:20 2,2 C 80 % 1019,8 hPa 0,0 l/m 2,0 km/h (1 Bft) S-SW 192 -0,9 C 6,3 km/h (2 Bft) 100 %
27.11.2018 11:21 2,2 C 80 % 1019,9 hPa 0,0 l/m 0,0 km/h (0 Bft) S-SW 192 -0,9 C 0,0 km/h (0 Bft) 100 %
27.11.2018 11:22 2,2 C 81 % 1019,8 hPa 0,0 l/m 0,0 km/h (0 Bft) SO 134 -0,7 C 0,0 km/h (0 Bft) 100 %
27.11.2018 11:23 2,2 C 81 % 1019,8 hPa 0,0 l/m 0,0 km/h (0 Bft) SO 130 -0,7 C 0,0 km/h (0 Bft) 100 %
27.11.2018 11:24 2,3 C 80 % 1019,8 hPa 0,0 l/m 3,5 km/h (1 Bft) O-NO 69 -0,8 C 9,4 km/h (2 Bft) 100 %
27.11.2018 11:25 2,2 C 80 % 1019,9 hPa 0,0 l/m 2,7 km/h (1 Bft) O-NO 75 -0,9 C 6,3 km/h (2 Bft) 100 %
27.11.2018 11:26 2,2 C 79 % 1019,8 hPa 0,0 l/m 7,5 km/h (2 Bft) O 80 -1,1 C 12,6 km/h (3 Bft) 100 %
27.11.2018 11:27 2,2 C 79 % 1019,9 hPa 0,0 l/m 1,4 km/h (1 Bft) O 91 -1,1 C 3,1 km/h (1 Bft) 100 %
27.11.2018 11:28 2,2 C 79 % 1020,0 hPa 0,0 l/m 2,4 km/h (1 Bft) NO 41 -1,1 C 6,3 km/h (2 Bft) 100 %
27.11.2018 11:29 2,2 C 79 % 1019,9 hPa 0,0 l/m 2,9 km/h (1 Bft) O 96 -1,1 C 6,3 km/h (2 Bft) 100 %
27.11.2018 11:30 2,2 C 79 % 1019,9 hPa 0,0 l/m 1,3 km/h (1 Bft) O-NO 78 -1,1 C 3,1 km/h (1 Bft) 100 %
27.11.2018 11:31 2,3 C 80 % 1019,9 hPa 0,0 l/m 0,0 km/h (0 Bft) O-NO 78 -0,8 C 0,0 km/h (0 Bft) 100 %
27.11.2018 11:32 2,3 C 80 % 1019,9 hPa 0,0 l/m 0,1 km/h (0 Bft) O-NO 78 -0,8 C 3,1 km/h (1 Bft) 100 %
27.11.2018 11:33 2,3 C 80 % 1019,9 hPa 0,0 l/m 1,7 km/h (1 Bft) O-SO 103 -0,8 C 6,3 km/h (2 Bft) 100 %
27.11.2018 11:34 2,3 C 80 % 1020,0 hPa 0,0 l/m 1,8 km/h (1 Bft) SO 145 -0,8 C 6,3 km/h (2 Bft) 100 %
27.11.2018 11:35 2,3 C 80 % 1019,9 hPa 0,0 l/m 0,2 km/h (0 Bft) SO 139 -0,8 C 3,1 km/h (1 Bft) 100 %
27.11.2018 11:36 2,3 C 80 % 1019,9 hPa 0,0 l/m 0,1 km/h (0 Bft) SO 139 -0,8 C 3,1 km/h (1 Bft) 100 %
27.11.2018 11:37 2,3 C 80 % 1019,9 hPa 0,0 l/m 0,4 km/h (0 Bft) N-NW 342 -0,8 C 3,1 km/h (1 Bft) 100 %
27.11.2018 11:38 2,3 C 80 % 1019,9 hPa 0,0 l/m 0,4 km/h (0 Bft) O-NO 75 -0,8 C 3,1 km/h (1 Bft) 100 %
27.11.2018 11:39 2,3 C 80 % 1019,9 hPa 0,0 l/m 3,1 km/h (1 Bft) NO 44 -0,8 C 6,3 km/h (2 Bft) 100 %
27.11.2018 11:40 2,3 C 80 % 1019,9 hPa 0,0 l/m 5,0 km/h (1 Bft) O-NO 75 -0,8 C 12,6 km/h (3 Bft) 100 %
27.11.2018 11:41 2,3 C 80 % 1019,9 hPa 0,0 l/m 1,0 km/h (0 Bft) NO 56 -0,8 C 3,1 km/h (1 Bft) 100 %
27.11.2018 11:42 2,3 C 80 % 1019,9 hPa 0,0 l/m 0,6 km/h (0 Bft) O-NO 64 -0,8 C 3,1 km/h (1 Bft) 100 %
27.11.2018 11:43 2,3 C 80 % 1019,9 hPa 0,0 l/m 2,4 km/h (1 Bft) O-NO 75 -0,8 C 6,3 km/h (2 Bft) 100 %
27.11.2018 11:44 2,3 C 80 % 1019,9 hPa 0,0 l/m 2,8 km/h (1 Bft) O-SO 114 -0,8 C 6,3 km/h (2 Bft) 100 %
27.11.2018 11:45 2,3 C 80 % 1019,9 hPa 0,0 l/m 2,0 km/h (1 Bft) O 93 -0,8 C 6,3 km/h (2 Bft) 100 %
27.11.2018 11:46 2,3 C 80 % 1019,8 hPa 0,0 l/m 1,3 km/h (1 Bft) N-NO 25 -0,8 C 6,3 km/h (2 Bft) 100 %
27.11.2018 11:47 2,3 C 80 % 1019,8 hPa 0,0 l/m 0,0 km/h (0 Bft) O-NO 58 -0,8 C 0,0 km/h (0 Bft) 100 %
27.11.2018 11:48 2,3 C 80 % 1019,8 hPa 0,0 l/m 2,5 km/h (1 Bft) O-NO 65 -0,8 C 6,3 km/h (2 Bft) 100 %
27.11.2018 11:49 2,3 C 80 % 1019,8 hPa 0,0 l/m 0,9 km/h (0 Bft) O-NO 67 -0,8 C 3,1 km/h (1 Bft) 100 %
27.11.2018 11:50 2,3 C 80 % 1019,8 hPa 0,0 l/m 0,1 km/h (0 Bft) O-NO 65 -0,8 C 3,1 km/h (1 Bft) 96 %
27.11.2018 11:51 2,3 C 80 % 1019,8 hPa 0,0 l/m 1,3 km/h (1 Bft) O-NO 58 -0,8 C 6,3 km/h (2 Bft) 100 %
27.11.2018 11:52 2,3 C 80 % 1019,7 hPa 0,0 l/m 0,1 km/h (0 Bft) O-NO 60 -0,8 C 3,1 km/h (1 Bft) 100 %
27.11.2018 11:53 2,3 C 80 % 1019,8 hPa 0,0 l/m 4,7 km/h (1 Bft) O-NO 70 -0,8 C 12,6 km/h (3 Bft) 96 %
27.11.2018 11:54 2,3 C 80 % 1019,7 hPa 0,0 l/m 0,9 km/h (0 Bft) O-SO 115 -0,8 C 3,1 km/h (1 Bft) 96 %
27.11.2018 11:55 2,3 C 80 % 1019,7 hPa 0,0 l/m 3,1 km/h (1 Bft) O-NO 69 -0,8 C 9,4 km/h (2 Bft) 100 %
27.11.2018 11:56 2,3 C 80 % 1019,7 hPa 0,0 l/m 3,0 km/h (1 Bft) O-SO 109 -0,8 C 9,4 km/h (2 Bft) 100 %
27.11.2018 11:57 2,3 C 80 % 1019,8 hPa 0,0 l/m 2,0 km/h (1 Bft) SO 133 -0,8 C 6,3 km/h (2 Bft) 100 %
27.11.2018 11:58 2,3 C 80 % 1019,8 hPa 0,0 l/m 5,6 km/h (1 Bft) O 86 -0,8 C 12,6 km/h (3 Bft) 96 %
27.11.2018 11:59 2,3 C 80 % 1019,8 hPa 0,0 l/m 0,1 km/h (0 Bft) O 84 -0,8 C 3,1 km/h (1 Bft) 100 %
27.11.2018 12:00 2,3 C 80 % 1019,8 hPa 0,0 l/m 0,4 km/h (0 Bft) O 84 -0,8 C 3,1 km/h (1 Bft) 96 %
27.11.2018 12:01 2,3 C 80 % 1019,8 hPa 0,0 l/m 0,0 km/h (0 Bft) O 84 -0,8 C 0,0 km/h (0 Bft) 96 %
27.11.2018 12:02 2,3 C 80 % 1019,8 hPa 0,0 l/m 1,2 km/h (1 Bft) S-SO 151 -0,8 C 3,1 km/h (1 Bft) 100 %
27.11.2018 12:03 2,3 C 79 % 1019,8 hPa 0,0 l/m 0,0 km/h (0 Bft) S-SO 151 -1,0 C 0,0 km/h (0 Bft) 100 %
27.11.2018 12:04 2,3 C 79 % 1019,9 hPa 0,0 l/m 3,6 km/h (1 Bft) O 99 -1,0 C 12,6 km/h (3 Bft) 100 %
27.11.2018 12:05 2,4 C 80 % 1019,9 hPa 0,0 l/m 0,1 km/h (0 Bft) O 99 -0,7 C 3,1 km/h (1 Bft) 96 %
27.11.2018 12:06 2,4 C 80 % 1019,8 hPa 0,0 l/m 0,1 km/h (0 Bft) O-NO 73 -0,7 C 3,1 km/h (1 Bft) 100 %
27.11.2018 12:07 2,4 C 80 % 1019,8 hPa 0,0 l/m 0,7 km/h (0 Bft) O-NO 73 -0,7 C 3,1 km/h (1 Bft) 100 %
27.11.2018 12:08 2,4 C 80 % 1019,8 hPa 0,0 l/m 0,5 km/h (0 Bft) O-NO 75 -0,7 C 3,1 km/h (1 Bft) 100 %
27.11.2018 12:09 2,4 C 79 % 1019,8 hPa 0,0 l/m 0,1 km/h (0 Bft) O-NO 76 -0,9 C 3,1 km/h (1 Bft) 100 %
27.11.2018 12:10 2,4 C 80 % 1019,8 hPa 0,0 l/m 0,3 km/h (0 Bft) O-NO 76 -0,7 C 3,1 km/h (1 Bft) 96 %
27.11.2018 12:11 2,4 C 79 % 1019,8 hPa 0,0 l/m 4,1 km/h (1 Bft) NO 37 -0,9 C 9,4 km/h (2 Bft) 96 %
27.11.2018 12:12 2,4 C 79 % 1019,7 hPa 0,0 l/m 0,1 km/h (0 Bft) SO 125 -0,9 C 3,1 km/h (1 Bft) 100 %
27.11.2018 12:13 2,5 C 79 % 1019,8 hPa 0,0 l/m 0,0 km/h (0 Bft) SO 125 -0,8 C 0,0 km/h (0 Bft) 96 %
27.11.2018 12:14 2,5 C 79 % 1019,7 hPa 0,0 l/m 2,0 km/h (1 Bft) O 96 -0,8 C 6,3 km/h (2 Bft) 100 %
27.11.2018 12:15 2,5 C 79 % 1019,7 hPa 0,0 l/m 1,6 km/h (1 Bft) O-SO 108 -0,8 C 6,3 km/h (2 Bft) 96 %
27.11.2018 12:16 2,5 C 78 % 1019,8 hPa 0,0 l/m 4,2 km/h (1 Bft) N-NO 27 -0,9 C 12,6 km/h (3 Bft) 100 %
27.11.2018 12:17 2,5 C 78 % 1019,7 hPa 0,0 l/m 0,0 km/h (0 Bft) NW 316 -0,9 C 0,0 km/h (0 Bft) 96 %
27.11.2018 12:18 2,5 C 78 % 1019,7 hPa 0,0 l/m 6,0 km/h (2 Bft) O 84 -0,9 C 12,6 km/h (3 Bft) 100 %
27.11.2018 12:19 2,4 C 78 % 1019,7 hPa 0,0 l/m 2,7 km/h (1 Bft) NO 55 -1,0 C 9,4 km/h (2 Bft) 96 %
27.11.2018 12:20 2,4 C 78 % 1019,7 hPa 0,0 l/m 0,0 km/h (0 Bft) NO 56 -1,0 C 0,0 km/h (0 Bft) 96 %
27.11.2018 12:21 2,4 C 78 % 1019,8 hPa 0,0 l/m 0,1 km/h (0 Bft) NO 56 -1,0 C 3,1 km/h (1 Bft) 100 %
27.11.2018 12:22 2,4 C 78 % 1019,8 hPa 0,0 l/m 1,0 km/h (0 Bft) O-SO 108 -1,0 C 3,1 km/h (1 Bft) 96 %
27.11.2018 12:23 2,4 C 78 % 1019,8 hPa 0,0 l/m 3,8 km/h (1 Bft) NO 46 -1,0 C 12,6 km/h (3 Bft) 100 %
27.11.2018 12:24 2,4 C 77 % 1019,8 hPa 0,0 l/m 5,2 km/h (1 Bft) O-NO 72 -1,2 C 12,6 km/h (3 Bft) 96 %
27.11.2018 12:25 2,4 C 77 % 1019,8 hPa 0,0 l/m 0,5 km/h (0 Bft) O-NO 67 -1,2 C 3,1 km/h (1 Bft) 100 %
27.11.2018 12:26 2,4 C 78 % 1019,8 hPa 0,0 l/m 1,7 km/h (1 Bft) O 91 -1,0 C 3,1 km/h (1 Bft) 96 %
27.11.2018 12:27 2,4 C 78 % 1019,9 hPa 0,0 l/m 1,0 km/h (0 Bft) O 84 -1,0 C 3,1 km/h (1 Bft) 96 %
27.11.2018 12:28 2,4 C 78 % 1019,9 hPa 0,0 l/m 1,8 km/h (1 Bft) NO 45 -1,0 C 6,3 km/h (2 Bft) 100 %
27.11.2018 12:29 2,4 C 78 % 1019,9 hPa 0,0 l/m 3,7 km/h (1 Bft) N-NO 23 -1,0 C 6,3 km/h (2 Bft) 96 %
27.11.2018 12:30 2,4 C 77 % 1019,9 hPa 0,0 l/m 1,4 km/h (1 Bft) O-NO 61 -1,2 C 3,1 km/h (1 Bft) 100 %
27.11.2018 12:31 2,4 C 78 % 1019,8 hPa 0,0 l/m 1,3 km/h (1 Bft) NO 50 -1,0 C 3,1 km/h (1 Bft) 96 %
27.11.2018 12:32 2,4 C 78 % 1019,9 hPa 0,0 l/m 0,4 km/h (0 Bft) NO 50 -1,0 C 3,1 km/h (1 Bft) 100 %
27.11.2018 12:33 2,4 C 78 % 1019,9 hPa 0,0 l/m 0,0 km/h (0 Bft) O-SO 112 -1,0 C 0,0 km/h (0 Bft) 96 %
27.11.2018 12:34 2,4 C 78 % 1019,8 hPa 0,0 l/m 0,9 km/h (0 Bft) O 89 -1,0 C 3,1 km/h (1 Bft) 100 %
27.11.2018 12:35 2,4 C 78 % 1019,9 hPa 0,0 l/m 0,7 km/h (0 Bft) O 91 -1,0 C 3,1 km/h (1 Bft) 96 %
27.11.2018 12:36 2,3 C 78 % 1019,8 hPa 0,0 l/m 0,8 km/h (0 Bft) SO 125 -1,1 C 6,3 km/h (2 Bft) 96 %
27.11.2018 12:37 2,3 C 78 % 1019,9 hPa 0,0 l/m 4,2 km/h (1 Bft) O 96 -1,1 C 12,6 km/h (3 Bft) 96 %
27.11.2018 12:38 2,3 C 78 % 1019,8 hPa 0,0 l/m 3,8 km/h (1 Bft) O-NO 63 -1,1 C 9,4 km/h (2 Bft) 96 %
27.11.2018 12:39 2,3 C 78 % 1019,9 hPa 0,0 l/m 1,6 km/h (1 Bft) O-NO 60 -1,1 C 6,3 km/h (2 Bft) 100 %
27.11.2018 12:40 2,3 C 78 % 1019,9 hPa 0,0 l/m 0,7 km/h (0 Bft) O-NO 77 -1,1 C 3,1 km/h (1 Bft) 96 %
27.11.2018 12:41 2,3 C 79 % 1019,9 hPa 0,0 l/m 0,3 km/h (0 Bft) O-NO 76 -1,0 C 3,1 km/h (1 Bft) 100 %
27.11.2018 12:42 2,3 C 79 % 1019,9 hPa 0,0 l/m 1,8 km/h (1 Bft) O 88 -1,0 C 6,3 km/h (2 Bft) 96 %
27.11.2018 12:43 2,3 C 79 % 1020,0 hPa 0,0 l/m 0,0 km/h (0 Bft) O 88 -1,0 C 0,0 km/h (0 Bft) 100 %
27.11.2018 12:44 2,3 C 79 % 1019,9 hPa 0,0 l/m 0,7 km/h (0 Bft) O-SO 110 -1,0 C 6,3 km/h (2 Bft) 96 %
27.11.2018 12:45 2,3 C 79 % 1019,9 hPa 0,0 l/m 0,7 km/h (0 Bft) O-SO 110 -1,0 C 3,1 km/h (1 Bft) 96 %
27.11.2018 12:46 2,3 C 79 % 1019,9 hPa 0,0 l/m 0,8 km/h (0 Bft) O-SO 110 -1,0 C 3,1 km/h (1 Bft) 100 %
27.11.2018 12:47 2,3 C 79 % 1019,9 hPa 0,0 l/m 0,5 km/h (0 Bft) O-SO 110 -1,0 C 3,1 km/h (1 Bft) 100 %
27.11.2018 12:48 2,3 C 79 % 1019,9 hPa 0,0 l/m 0,7 km/h (0 Bft) SO 124 -1,0 C 3,1 km/h (1 Bft) 100 %
27.11.2018 12:49 2,3 C 79 % 1019,9 hPa 0,0 l/m 0,8 km/h (0 Bft) O 86 -1,0 C 3,1 km/h (1 Bft) 100 %
27.11.2018 12:50 2,4 C 79 % 1019,9 hPa 0,0 l/m 0,8 km/h (0 Bft) O-SO 105 -0,9 C 3,1 km/h (1 Bft) 100 %
27.11.2018 12:51 2,4 C 79 % 1019,9 hPa 0,0 l/m 0,0 km/h (0 Bft) O-SO 105 -0,9 C 0,0 km/h (0 Bft) 100 %
27.11.2018 12:52 2,4 C 78 % 1019,9 hPa 0,0 l/m 0,0 km/h (0 Bft) O-SO 105 -1,0 C 0,0 km/h (0 Bft) 100 %
27.11.2018 12:53 2,4 C 78 % 1019,9 hPa 0,0 l/m 1,4 km/h (1 Bft) O 96 -1,0 C 6,3 km/h (2 Bft) 100 %
27.11.2018 12:54 2,4 C 78 % 1019,9 hPa 0,0 l/m 0,0 km/h (0 Bft) O 96 -1,0 C 0,0 km/h (0 Bft) 100 %
27.11.2018 12:55 2,4 C 78 % 1020,0 hPa 0,0 l/m 0,5 km/h (0 Bft) O-NO 65 -1,0 C 3,1 km/h (1 Bft) 100 %
27.11.2018 12:56 2,4 C 78 % 1019,9 hPa 0,0 l/m 0,1 km/h (0 Bft) O 82 -1,0 C 3,1 km/h (1 Bft) 100 %
27.11.2018 12:57 2,4 C 78 % 1019,9 hPa 0,0 l/m 1,0 km/h (0 Bft) O 82 -1,0 C 3,1 km/h (1 Bft) 100 %
27.11.2018 12:58 2,4 C 78 % 1020,0 hPa 0,0 l/m 0,0 km/h (0 Bft) O 81 -1,0 C 0,0 km/h (0 Bft) 100 %
27.11.2018 12:59 2,5 C 79 % 1020,0 hPa 0,0 l/m 0,0 km/h (0 Bft) O 81 -0,8 C 0,0 km/h (0 Bft) 100 %
27.11.2018 13:00 2,5 C 79 % 1020,0 hPa 0,0 l/m 1,3 km/h (1 Bft) O-NO 77 -0,8 C 3,1 km/h (1 Bft) 100 %
27.11.2018 13:01 2,6 C 79 % 1020,0 hPa 0,0 l/m 2,9 km/h (1 Bft) O-SO 117 -0,7 C 12,6 km/h (3 Bft) 100 %
27.11.2018 13:02 2,6 C 78 % 1020,0 hPa 0,0 l/m 2,4 km/h (1 Bft) SW 215 -0,8 C 6,3 km/h (2 Bft) 100 %
27.11.2018 13:03 2,6 C 79 % 1020,0 hPa 0,0 l/m 0,0 km/h (0 Bft) SW 214 -0,7 C 0,0 km/h (0 Bft) 100 %
27.11.2018 13:04 2,7 C 79 % 1020,0 hPa 0,0 l/m 0,0 km/h (0 Bft) S-SW 212 -0,6 C 0,0 km/h (0 Bft) 100 %
27.11.2018 13:05 2,7 C 79 % 1020,0 hPa 0,0 l/m 0,0 km/h (0 Bft) S-SW 212 -0,6 C 0,0 km/h (0 Bft) 96 %
27.11.2018 13:06 2,8 C 79 % 1020,0 hPa 0,0 l/m 0,4 km/h (0 Bft) O 79 -0,5 C 3,1 km/h (1 Bft) 100 %
27.11.2018 13:07 2,8 C 78 % 1020,0 hPa 0,0 l/m 0,4 km/h (0 Bft) O 85 -0,6 C 3,1 km/h (1 Bft) 100 %
27.11.2018 13:08 2,8 C 77 % 1020,0 hPa 0,0 l/m 0,0 km/h (0 Bft) O 82 -0,8 C 0,0 km/h (0 Bft) 100 %
27.11.2018 13:09 2,9 C 77 % 1020,0 hPa 0,0 l/m 0,0 km/h (0 Bft) O 83 -0,7 C 0,0 km/h (0 Bft) 100 %
27.11.2018 13:10 2,9 C 77 % 1020,1 hPa 0,0 l/m 0,0 km/h (0 Bft) S 183 -0,7 C 0,0 km/h (0 Bft) 100 %
27.11.2018 13:11 2,9 C 77 % 1020,0 hPa 0,0 l/m 0,0 km/h (0 Bft) S 183 -0,7 C 0,0 km/h (0 Bft) 100 %
27.11.2018 13:12 3,1 C 77 % 1020,1 hPa 0,0 l/m 0,0 km/h (0 Bft) S-SO 158 -0,5 C 0,0 km/h (0 Bft) 100 %
27.11.2018 13:13 3,1 C 77 % 1020,0 hPa 0,0 l/m 0,0 km/h (0 Bft) S-SO 158 -0,5 C 0,0 km/h (0 Bft) 100 %
27.11.2018 13:14 3,2 C 77 % 1020,1 hPa 0,0 l/m 3,5 km/h (1 Bft) O 84 -0,4 C 9,4 km/h (2 Bft) 100 %
27.11.2018 13:15 3,2 C 76 % 1020,1 hPa 0,0 l/m 0,5 km/h (0 Bft) O 91 -0,6 C 3,1 km/h (1 Bft) 100 %
27.11.2018 13:16 3,2 C 75 % 1020,1 hPa 0,0 l/m 2,5 km/h (1 Bft) NO 47 -0,8 C 9,4 km/h (2 Bft) 100 %
27.11.2018 13:17 3,2 C 75 % 1020,1 hPa 0,0 l/m 1,2 km/h (1 Bft) O-NO 75 -0,8 C 6,3 km/h (2 Bft) 100 %
27.11.2018 13:18 3,2 C 75 % 1020,1 hPa 0,0 l/m 0,6 km/h (0 Bft) S 181 -0,8 C 3,1 km/h (1 Bft) 100 %
27.11.2018 13:19 3,2 C 75 % 1020,1 hPa 0,0 l/m 0,0 km/h (0 Bft) O-SO 122 -0,8 C 0,0 km/h (0 Bft) 100 %
27.11.2018 13:20 3,2 C 76 % 1020,2 hPa 0,0 l/m 0,0 km/h (0 Bft) O-SO 122 -0,6 C 0,0 km/h (0 Bft) 93 %
27.11.2018 13:21 3,3 C 76 % 1020,1 hPa 0,0 l/m 0,0 km/h (0 Bft) O 101 -0,5 C 0,0 km/h (0 Bft) 94 %
27.11.2018 13:22 3,3 C 76 % 1020,1 hPa 0,0 l/m 1,2 km/h (1 Bft) O-NO 65 -0,5 C 6,3 km/h (2 Bft) 97 %
27.11.2018 13:23 3,3 C 76 % 1020,1 hPa 0,0 l/m 4,7 km/h (1 Bft) O-SO 111 -0,5 C 6,3 km/h (2 Bft) 100 %
27.11.2018 13:24 3,3 C 76 % 1020,1 hPa 0,0 l/m 0,1 km/h (0 Bft) O 99 -0,5 C 3,1 km/h (1 Bft) 100 %
27.11.2018 13:25 3,4 C 75 % 1020,0 hPa 0,0 l/m 0,6 km/h (0 Bft) O 98 -0,6 C 3,1 km/h (1 Bft) 100 %
27.11.2018 13:26 3,4 C 75 % 1020,1 hPa 0,0 l/m 0,1 km/h (0 Bft) O 98 -0,6 C 3,1 km/h (1 Bft) 100 %
27.11.2018 13:27 3,4 C 75 % 1020,1 hPa 0,0 l/m 3,8 km/h (1 Bft) O 95 -0,6 C 12,6 km/h (3 Bft) 100 %
27.11.2018 13:28 3,4 C 74 % 1020,1 hPa 0,0 l/m 3,9 km/h (1 Bft) O-NO 75 -0,8 C 12,6 km/h (3 Bft) 100 %
27.11.2018 13:29 3,4 C 74 % 1020,1 hPa 0,0 l/m 3,7 km/h (1 Bft) O-SO 102 -0,8 C 9,4 km/h (2 Bft) 100 %
27.11.2018 13:30 3,4 C 74 % 1020,0 hPa 0,0 l/m 0,4 km/h (0 Bft) NO 44 -0,8 C 3,1 km/h (1 Bft) 100 %
27.11.2018 13:31 3,4 C 75 % 1020,1 hPa 0,0 l/m 0,1 km/h (0 Bft) NO 44 -0,6 C 3,1 km/h (1 Bft) 100 %
27.11.2018 13:32 3,4 C 75 % 1020,1 hPa 0,0 l/m 0,1 km/h (0 Bft) NO 45 -0,6 C 3,1 km/h (1 Bft) 100 %
27.11.2018 13:33 3,4 C 75 % 1020,1 hPa 0,0 l/m 0,5 km/h (0 Bft) O-NO 74 -0,6 C 3,1 km/h (1 Bft) 100 %
27.11.2018 13:34 3,5 C 75 % 1020,0 hPa 0,0 l/m 1,3 km/h (1 Bft) O 82 -0,5 C 3,1 km/h (1 Bft) 100 %
27.11.2018 13:35 3,5 C 75 % 1019,9 hPa 0,0 l/m 0,8 km/h (0 Bft) O-NO 72 -0,5 C 3,1 km/h (1 Bft) 100 %
27.11.2018 13:36 3,5 C 74 % 1020,0 hPa 0,0 l/m 5,8 km/h (2 Bft) O-NO 77 -0,7 C 12,6 km/h (3 Bft) 100 %
27.11.2018 13:37 3,4 C 74 % 1020,0 hPa 0,0 l/m 0,0 km/h (0 Bft) S 179 -0,8 C 0,0 km/h (0 Bft) 99 %
27.11.2018 13:38 3,4 C 75 % 1020,0 hPa 0,0 l/m 0,0 km/h (0 Bft) S 179 -0,6 C 0,0 km/h (0 Bft) 100 %
27.11.2018 13:39 3,4 C 75 % 1020,0 hPa 0,0 l/m 0,0 km/h (0 Bft) S 179 -0,6 C 0,0 km/h (0 Bft) 100 %
27.11.2018 13:40 3,5 C 75 % 1020,0 hPa 0,0 l/m 1,6 km/h (1 Bft) O-NO 69 -0,5 C 6,3 km/h (2 Bft) 100 %
27.11.2018 13:41 3,5 C 75 % 1020,1 hPa 0,0 l/m 3,3 km/h (1 Bft) O 91 -0,5 C 9,4 km/h (2 Bft) 100 %
27.11.2018 13:42 3,4 C 74 % 1020,1 hPa 0,0 l/m 0,2 km/h (0 Bft) O 87 -0,8 C 3,1 km/h (1 Bft) 100 %
27.11.2018 13:43 3,4 C 75 % 1020,1 hPa 0,0 l/m 1,1 km/h (1 Bft) O-NO 68 -0,6 C 6,3 km/h (2 Bft) 100 %
27.11.2018 13:44 3,4 C 75 % 1020,0 hPa 0,0 l/m 0,8 km/h (0 Bft) NO 54 -0,6 C 3,1 km/h (1 Bft) 100 %
27.11.2018 13:45 3,4 C 74 % 1020,0 hPa 0,0 l/m 3,9 km/h (1 Bft) O-NO 66 -0,8 C 6,3 km/h (2 Bft) 100 %
27.11.2018 13:46 3,3 C 75 % 1020,1 hPa 0,0 l/m 0,0 km/h (0 Bft) O-NO 66 -0,7 C 0,0 km/h (0 Bft) 100 %
27.11.2018 13:47 3,4 C 75 % 1020,1 hPa 0,0 l/m 0,0 km/h (0 Bft) O-NO 66 -0,6 C 0,0 km/h (0 Bft) 100 %
27.11.2018 13:48 3,3 C 75 % 1020,1 hPa 0,0 l/m 0,0 km/h (0 Bft) O-NO 66 -0,7 C 0,0 km/h (0 Bft) 100 %
27.11.2018 13:49 3,3 C 75 % 1020,0 hPa 0,0 l/m 0,6 km/h (0 Bft) SO 124 -0,7 C 3,1 km/h (1 Bft) 91 %
27.11.2018 13:50 3,4 C 75 % 1020,0 hPa 0,0 l/m 0,0 km/h (0 Bft) SO 125 -0,6 C 0,0 km/h (0 Bft) 100 %
27.11.2018 13:51 3,4 C 76 % 1020,0 hPa 0,0 l/m 0,1 km/h (0 Bft) SO 124 -0,4 C 3,1 km/h (1 Bft) 100 %
27.11.2018 13:52 3,4 C 75 % 1020,0 hPa 0,0 l/m 0,5 km/h (0 Bft) SO 124 -0,6 C 3,1 km/h (1 Bft) 100 %
27.11.2018 13:53 3,4 C 75 % 1020,0 hPa 0,0 l/m 3,8 km/h (1 Bft) O-NO 68 -0,6 C 6,3 km/h (2 Bft) 100 %
27.11.2018 13:54 3,4 C 74 % 1020,0 hPa 0,0 l/m 0,9 km/h (0 Bft) SO 138 -0,8 C 3,1 km/h (1 Bft) 100 %
27.11.2018 13:55 3,3 C 74 % 1020,0 hPa 0,0 l/m 3,8 km/h (1 Bft) O-NO 76 -0,9 C 9,4 km/h (2 Bft) 100 %
27.11.2018 13:56 3,3 C 74 % 1019,9 hPa 0,0 l/m 1,3 km/h (1 Bft) O 82 -0,9 C 6,3 km/h (2 Bft) 100 %
27.11.2018 13:57 3,2 C 75 % 1020,0 hPa 0,0 l/m 0,3 km/h (0 Bft) O 84 -0,8 C 3,1 km/h (1 Bft) 100 %
27.11.2018 13:58 3,2 C 75 % 1019,9 hPa 0,0 l/m 0,0 km/h (0 Bft) O 89 -0,8 C 0,0 km/h (0 Bft) 100 %
27.11.2018 13:59 3,2 C 74 % 1019,9 hPa 0,0 l/m 2,1 km/h (1 Bft) O-NO 77 -1,0 C 6,3 km/h (2 Bft) 100 %
27.11.2018 14:00 3,2 C 74 % 1019,9 hPa 0,0 l/m 0,0 km/h (0 Bft) O-NO 77 -1,0 C 0,0 km/h (0 Bft) 100 %
27.11.2018 14:01 3,1 C 75 % 1019,9 hPa 0,0 l/m 0,0 km/h (0 Bft) O-NO 73 -0,9 C 0,0 km/h (0 Bft) 100 %
27.11.2018 14:02 3,1 C 75 % 1020,0 hPa 0,0 l/m 0,1 km/h (0 Bft) O-NO 73 -0,9 C 3,1 km/h (1 Bft) 100 %
27.11.2018 14:03 3,1 C 75 % 1020,0 hPa 0,0 l/m 0,1 km/h (0 Bft) O-NO 73 -0,9 C 3,1 km/h (1 Bft) 100 %
27.11.2018 14:04 3,1 C 75 % 1020,0 hPa 0,0 l/m 1,7 km/h (1 Bft) NO 34 -0,9 C 3,1 km/h (1 Bft) 100 %
27.11.2018 14:05 3,1 C 75 % 1020,0 hPa 0,0 l/m 1,6 km/h (1 Bft) O-SO 103 -0,9 C 3,1 km/h (1 Bft) 100 %
27.11.2018 14:06 3,0 C 75 % 1020,0 hPa 0,0 l/m 0,0 km/h (0 Bft) O 100 -1,0 C 0,0 km/h (0 Bft) 100 %
27.11.2018 14:07 3,0 C 75 % 1020,0 hPa 0,0 l/m 2,1 km/h (1 Bft) O-NO 70 -1,0 C 6,3 km/h (2 Bft) 100 %
27.11.2018 14:08 3,0 C 76 % 1020,0 hPa 0,0 l/m 0,0 km/h (0 Bft) O-NO 70 -0,8 C 0,0 km/h (0 Bft) 100 %
27.11.2018 14:09 3,0 C 76 % 1020,0 hPa 0,0 l/m 0,3 km/h (0 Bft) O-NO 70 -0,8 C 3,1 km/h (1 Bft) 100 %
27.11.2018 14:10 3,0 C 76 % 1020,0 hPa 0,0 l/m 0,1 km/h (0 Bft) O-NO 70 -0,8 C 3,1 km/h (1 Bft) 100 %
27.11.2018 14:11 3,0 C 76 % 1020,0 hPa 0,0 l/m 0,0 km/h (0 Bft) O-NO 70 -0,8 C 0,0 km/h (0 Bft) 100 %
27.11.2018 14:12 3,0 C 76 % 1020,0 hPa 0,0 l/m 0,0 km/h (0 Bft) O-NO 70 -0,8 C 0,0 km/h (0 Bft) 100 %
27.11.2018 14:13 3,0 C 76 % 1020,0 hPa 0,0 l/m 0,1 km/h (0 Bft) O-NO 70 -0,8 C 3,1 km/h (1 Bft) 100 %
27.11.2018 14:14 3,0 C 76 % 1020,0 hPa 0,0 l/m 0,1 km/h (0 Bft) O-NO 71 -0,8 C 3,1 km/h (1 Bft) 100 %
27.11.2018 14:15 3,0 C 76 % 1020,0 hPa 0,0 l/m 0,0 km/h (0 Bft) NW 313 -0,8 C 0,0 km/h (0 Bft) 96 %
27.11.2018 14:16 3,0 C 75 % 1020,0 hPa 0,0 l/m 2,7 km/h (1 Bft) O 84 -1,0 C 6,3 km/h (2 Bft) 100 %
27.11.2018 14:17 3,0 C 75 % 1020,1 hPa 0,0 l/m 0,0 km/h (0 Bft) O 84 -1,0 C 0,0 km/h (0 Bft) 100 %
27.11.2018 14:18 3,0 C 76 % 1020,0 hPa 0,0 l/m 0,6 km/h (0 Bft) O-NO 70 -0,8 C 6,3 km/h (2 Bft) 100 %
27.11.2018 14:19 3,0 C 76 % 1020,0 hPa 0,0 l/m 0,8 km/h (0 Bft) O-NO 73 -0,8 C 6,3 km/h (2 Bft) 100 %
27.11.2018 14:20 3,0 C 76 % 1020,0 hPa 0,0 l/m 0,8 km/h (0 Bft) O 94 -0,8 C 3,1 km/h (1 Bft) 100 %
27.11.2018 14:21 3,0 C 75 % 1020,0 hPa 0,0 l/m 1,3 km/h (1 Bft) O 101 -1,0 C 6,3 km/h (2 Bft) 100 %
27.11.2018 14:22 3,0 C 75 % 1020,0 hPa 0,0 l/m 0,8 km/h (0 Bft) O 92 -1,0 C 3,1 km/h (1 Bft) 100 %
27.11.2018 14:23 3,0 C 75 % 1019,9 hPa 0,0 l/m 0,5 km/h (0 Bft) O-NO 69 -1,0 C 3,1 km/h (1 Bft) 100 %
27.11.2018 14:24 2,9 C 75 % 1020,0 hPa 0,0 l/m 3,4 km/h (1 Bft) O-SO 122 -1,1 C 9,4 km/h (2 Bft) 100 %
27.11.2018 14:25 2,9 C 75 % 1019,9 hPa 0,0 l/m 4,1 km/h (1 Bft) O-NO 76 -1,1 C 9,4 km/h (2 Bft) 100 %
27.11.2018 14:26 2,9 C 75 % 1019,9 hPa 0,0 l/m 0,3 km/h (0 Bft) O-NO 76 -1,1 C 3,1 km/h (1 Bft) 100 %
27.11.2018 14:27 2,9 C 76 % 1020,0 hPa 0,0 l/m 0,0 km/h (0 Bft) O-NO 76 -0,9 C 0,0 km/h (0 Bft) 100 %
27.11.2018 14:28 2,9 C 76 % 1020,0 hPa 0,0 l/m 0,5 km/h (0 Bft) O-NO 76 -0,9 C 3,1 km/h (1 Bft) 100 %
27.11.2018 14:29 2,9 C 75 % 1020,0 hPa 0,0 l/m 0,8 km/h (0 Bft) SW 236 -1,1 C 3,1 km/h (1 Bft) 100 %
27.11.2018 14:30 2,9 C 75 % 1020,0 hPa 0,0 l/m 0,0 km/h (0 Bft) SW 235 -1,1 C 0,0 km/h (0 Bft) 100 %
27.11.2018 14:31 2,9 C 75 % 1020,0 hPa 0,0 l/m 1,2 km/h (1 Bft) O-SO 104 -1,1 C 6,3 km/h (2 Bft) 100 %
27.11.2018 14:32 2,8 C 75 % 1020,0 hPa 0,0 l/m 2,1 km/h (1 Bft) O-SO 105 -1,2 C 6,3 km/h (2 Bft) 100 %
27.11.2018 14:33 2,8 C 75 % 1020,0 hPa 0,0 l/m 0,3 km/h (0 Bft) O 79 -1,2 C 3,1 km/h (1 Bft) 96 %
27.11.2018 14:34 2,8 C 75 % 1020,0 hPa 0,0 l/m 0,0 km/h (0 Bft) O 79 -1,2 C 0,0 km/h (0 Bft) 100 %
27.11.2018 14:35 2,8 C 75 % 1020,0 hPa 0,0 l/m 0,3 km/h (0 Bft) O 79 -1,2 C 3,1 km/h (1 Bft) 91 %
27.11.2018 14:36 2,8 C 75 % 1020,0 hPa 0,0 l/m 0,1 km/h (0 Bft) S-SW 212 -1,2 C 3,1 km/h (1 Bft) 100 %
27.11.2018 14:37 2,8 C 76 % 1020,0 hPa 0,0 l/m 0,0 km/h (0 Bft) S-SW 212 -1,0 C 0,0 km/h (0 Bft) 96 %
27.11.2018 14:38 2,8 C 76 % 1020,0 hPa 0,0 l/m 0,2 km/h (0 Bft) O 82 -1,0 C 3,1 km/h (1 Bft) 96 %
27.11.2018 14:39 2,8 C 75 % 1020,0 hPa 0,0 l/m 3,3 km/h (1 Bft) SO 141 -1,2 C 9,4 km/h (2 Bft) 100 %
27.11.2018 14:40 2,8 C 75 % 1020,0 hPa 0,0 l/m 1,6 km/h (1 Bft) O-NO 75 -1,2 C 6,3 km/h (2 Bft) 100 %
27.11.2018 14:41 2,8 C 75 % 1020,0 hPa 0,0 l/m 1,2 km/h (1 Bft) SO 141 -1,2 C 9,4 km/h (2 Bft) 96 %
27.11.2018 14:42 2,7 C 75 % 1020,0 hPa 0,0 l/m 0,0 km/h (0 Bft) SO 141 -1,3 C 0,0 km/h (0 Bft) 96 %
27.11.2018 14:43 2,7 C 75 % 1020,0 hPa 0,0 l/m 1,4 km/h (1 Bft) O-SO 110 -1,3 C 3,1 km/h (1 Bft) 100 %
27.11.2018 14:44 2,7 C 75 % 1020,0 hPa 0,0 l/m 5,0 km/h (1 Bft) O-SO 103 -1,3 C 9,4 km/h (2 Bft) 93 %
27.11.2018 14:45 2,7 C 75 % 1020,0 hPa 0,0 l/m 3,3 km/h (1 Bft) O-NO 70 -1,3 C 12,6 km/h (3 Bft) 100 %
27.11.2018 14:46 2,7 C 75 % 1020,0 hPa 0,0 l/m 1,5 km/h (1 Bft) O-NO 58 -1,3 C 3,1 km/h (1 Bft) 96 %
27.11.2018 14:47 2,6 C 75 % 1019,9 hPa 0,0 l/m 2,7 km/h (1 Bft) O 95 -1,4 C 9,4 km/h (2 Bft) 97 %
27.11.2018 14:48 2,6 C 75 % 1020,0 hPa 0,0 l/m 5,9 km/h (2 Bft) O-NO 71 -1,4 C 12,6 km/h (3 Bft) 100 %
27.11.2018 14:49 2,6 C 76 % 1020,0 hPa 0,0 l/m 2,1 km/h (1 Bft) O-NO 76 -1,2 C 6,3 km/h (2 Bft) 93 %
27.11.2018 14:50 2,6 C 76 % 1020,0 hPa 0,0 l/m 1,2 km/h (1 Bft) O-SO 105 -1,2 C 6,3 km/h (2 Bft) 100 %
27.11.2018 14:51 2,6 C 76 % 1020,0 hPa 0,0 l/m 0,0 km/h (0 Bft) O 81 -1,2 C 0,0 km/h (0 Bft) 96 %
27.11.2018 14:52 2,6 C 77 % 1020,0 hPa 0,0 l/m 0,0 km/h (0 Bft) O 81 -1,0 C 0,0 km/h (0 Bft) 100 %
27.11.2018 14:53 2,6 C 77 % 1020,0 hPa 0,0 l/m 0,0 km/h (0 Bft) O 82 -1,0 C 0,0 km/h (0 Bft) 100 %
27.11.2018 14:54 2,6 C 77 % 1020,0 hPa 0,0 l/m 0,0 km/h (0 Bft) O 83 -1,0 C 0,0 km/h (0 Bft) 100 %
27.11.2018 14:55 2,6 C 77 % 1020,0 hPa 0,0 l/m 0,0 km/h (0 Bft) O-SO 110 -1,0 C 0,0 km/h (0 Bft) 100 %
27.11.2018 14:56 2,7 C 77 % 1020,1 hPa 0,0 l/m 0,3 km/h (0 Bft) O-NO 70 -0,9 C 3,1 km/h (1 Bft) 100 %
27.11.2018 14:57 2,7 C 76 % 1020,1 hPa 0,0 l/m 2,1 km/h (1 Bft) O 100 -1,1 C 9,4 km/h (2 Bft) 100 %
27.11.2018 14:58 2,6 C 76 % 1020,1 hPa 0,0 l/m 2,3 km/h (1 Bft) O 79 -1,2 C 9,4 km/h (2 Bft) 100 %
27.11.2018 14:59 2,6 C 76 % 1020,1 hPa 0,0 l/m 0,0 km/h (0 Bft) O-NO 77 -1,2 C 0,0 km/h (0 Bft) 100 %
27.11.2018 15:00 2,7 C 76 % 1020,1 hPa 0,0 l/m 0,7 km/h (0 Bft) N-NO 14 -1,1 C 3,1 km/h (1 Bft) 100 %
27.11.2018 15:01 2,7 C 76 % 1020,1 hPa 0,0 l/m 1,1 km/h (1 Bft) SW 236 -1,1 C 3,1 km/h (1 Bft) 100 %
27.11.2018 15:02 2,7 C 76 % 1020,2 hPa 0,0 l/m 0,3 km/h (0 Bft) S-SO 157 -1,1 C 3,1 km/h (1 Bft) 100 %
27.11.2018 15:03 2,7 C 77 % 1020,1 hPa 0,0 l/m 2,1 km/h (1 Bft) O 98 -0,9 C 9,4 km/h (2 Bft) 100 %
27.11.2018 15:04 2,7 C 76 % 1020,2 hPa 0,0 l/m 1,9 km/h (1 Bft) SO 124 -1,1 C 9,4 km/h (2 Bft) 100 %
27.11.2018 15:05 2,7 C 76 % 1020,1 hPa 0,0 l/m 0,1 km/h (0 Bft) O 81 -1,1 C 3,1 km/h (1 Bft) 100 %
27.11.2018 15:06 2,7 C 76 % 1020,2 hPa 0,0 l/m 2,0 km/h (1 Bft) O-NO 73 -1,1 C 9,4 km/h (2 Bft) 100 %
27.11.2018 15:07 2,6 C 76 % 1020,3 hPa 0,0 l/m 1,3 km/h (1 Bft) O 79 -1,2 C 6,3 km/h (2 Bft) 100 %
27.11.2018 15:08 2,6 C 76 % 1020,3 hPa 0,0 l/m 2,0 km/h (1 Bft) O-NO 78 -1,2 C 6,3 km/h (2 Bft) 100 %
27.11.2018 15:09 2,5 C 77 % 1020,3 hPa 0,0 l/m 0,7 km/h (0 Bft) O 87 -1,1 C 3,1 km/h (1 Bft) 100 %
27.11.2018 15:10 2,5 C 77 % 1020,3 hPa 0,0 l/m 0,0 km/h (0 Bft) O 86 -1,1 C 0,0 km/h (0 Bft) 100 %
27.11.2018 15:11 2,5 C 77 % 1020,3 hPa 0,0 l/m 0,3 km/h (0 Bft) O-NO 68 -1,1 C 3,1 km/h (1 Bft) 100 %
27.11.2018 15:12 2,5 C 77 % 1020,4 hPa 0,0 l/m 1,6 km/h (1 Bft) O-NO 64 -1,1 C 6,3 km/h (2 Bft) 100 %
27.11.2018 15:13 2,4 C 77 % 1020,4 hPa 0,0 l/m 2,2 km/h (1 Bft) O-SO 116 -1,2 C 9,4 km/h (2 Bft) 100 %
27.11.2018 15:14 2,4 C 77 % 1020,4 hPa 0,0 l/m 3,7 km/h (1 Bft) O 79 -1,2 C 6,3 km/h (2 Bft) 100 %
27.11.2018 15:15 2,4 C 77 % 1020,5 hPa 0,0 l/m 0,9 km/h (0 Bft) O 94 -1,2 C 6,3 km/h (2 Bft) 100 %
27.11.2018 15:16 2,4 C 77 % 1020,4 hPa 0,0 l/m 1,1 km/h (1 Bft) O-NO 68 -1,2 C 3,1 km/h (1 Bft) 100 %
27.11.2018 15:17 2,3 C 77 % 1020,4 hPa 0,0 l/m 0,4 km/h (0 Bft) O 94 -1,3 C 3,1 km/h (1 Bft) 100 %
27.11.2018 15:18 2,3 C 77 % 1020,4 hPa 0,0 l/m 0,0 km/h (0 Bft) O 94 -1,3 C 0,0 km/h (0 Bft) 100 %
27.11.2018 15:19 2,3 C 77 % 1020,5 hPa 0,0 l/m 0,5 km/h (0 Bft) O-NO 78 -1,3 C 3,1 km/h (1 Bft) 100 %
27.11.2018 15:20 2,3 C 77 % 1020,4 hPa 0,0 l/m 0,0 km/h (0 Bft) O-NO 78 -1,3 C 0,0 km/h (0 Bft) 100 %
27.11.2018 15:21 2,3 C 77 % 1020,5 hPa 0,0 l/m 4,6 km/h (1 Bft) O-NO 77 -1,3 C 9,4 km/h (2 Bft) 100 %
27.11.2018 15:22 2,3 C 77 % 1020,5 hPa 0,0 l/m 1,1 km/h (1 Bft) O-NO 77 -1,3 C 3,1 km/h (1 Bft) 100 %
27.11.2018 15:23 2,3 C 77 % 1020,5 hPa 0,0 l/m 0,3 km/h (0 Bft) O-NO 76 -1,3 C 3,1 km/h (1 Bft) 100 %
27.11.2018 15:24 2,3 C 77 % 1020,5 hPa 0,0 l/m 0,8 km/h (0 Bft) O-NO 68 -1,3 C 3,1 km/h (1 Bft) 100 %
27.11.2018 15:25 2,2 C 77 % 1020,5 hPa 0,0 l/m 0,0 km/h (0 Bft) O-NO 68 -1,4 C 0,0 km/h (0 Bft) 100 %
27.11.2018 15:26 2,2 C 78 % 1020,5 hPa 0,0 l/m 0,0 km/h (0 Bft) O-NO 68 -1,2 C 0,0 km/h (0 Bft) 100 %
27.11.2018 15:27 2,2 C 78 % 1020,5 hPa 0,0 l/m 0,0 km/h (0 Bft) O 91 -1,2 C 0,0 km/h (0 Bft) 100 %
27.11.2018 15:28 2,2 C 78 % 1020,5 hPa 0,0 l/m 0,0 km/h (0 Bft) O 91 -1,2 C 0,0 km/h (0 Bft) 100 %
27.11.2018 15:29 2,2 C 78 % 1020,5 hPa 0,0 l/m 0,1 km/h (0 Bft) O 86 -1,2 C 3,1 km/h (1 Bft) 100 %
27.11.2018 15:30 2,1 C 78 % 1020,5 hPa 0,0 l/m 0,3 km/h (0 Bft) O 88 -1,3 C 3,1 km/h (1 Bft) 100 %
27.11.2018 15:31 2,1 C 78 % 1020,5 hPa 0,0 l/m 1,0 km/h (0 Bft) O 89 -1,3 C 3,1 km/h (1 Bft) 100 %
27.11.2018 15:32 2,1 C 78 % 1020,6 hPa 0,0 l/m 0,0 km/h (0 Bft) O 89 -1,3 C 0,0 km/h (0 Bft) 100 %
27.11.2018 15:33 2,1 C 78 % 1020,5 hPa 0,0 l/m 0,0 km/h (0 Bft) O 89 -1,3 C 0,0 km/h (0 Bft) 100 %
27.11.2018 15:34 2,1 C 79 % 1020,6 hPa 0,0 l/m 0,0 km/h (0 Bft) O 89 -1,2 C 0,0 km/h (0 Bft) 100 %
27.11.2018 15:35 2,0 C 79 % 1020,7 hPa 0,0 l/m 0,1 km/h (0 Bft) O 89 -1,2 C 3,1 km/h (1 Bft) 100 %
27.11.2018 15:36 2,0 C 79 % 1020,6 hPa 0,0 l/m 2,0 km/h (1 Bft) O 83 -1,2 C 6,3 km/h (2 Bft) 100 %
27.11.2018 15:37 2,0 C 79 % 1020,6 hPa 0,0 l/m 0,1 km/h (0 Bft) O 83 -1,2 C 3,1 km/h (1 Bft) 100 %
27.11.2018 15:38 1,9 C 79 % 1020,7 hPa 0,0 l/m 1,0 km/h (0 Bft) O-NO 74 -1,3 C 3,1 km/h (1 Bft) 100 %
27.11.2018 15:39 1,9 C 79 % 1020,7 hPa 0,0 l/m 1,2 km/h (1 Bft) SO 128 -1,3 C 6,3 km/h (2 Bft) 100 %
27.11.2018 15:40 1,9 C 79 % 1020,7 hPa 0,0 l/m 0,1 km/h (0 Bft) SO 128 -1,3 C 3,1 km/h (1 Bft) 100 %
27.11.2018 15:41 1,9 C 79 % 1020,7 hPa 0,0 l/m 0,0 km/h (0 Bft) O-SO 106 -1,3 C 0,0 km/h (0 Bft) 100 %
27.11.2018 15:42 1,8 C 79 % 1020,7 hPa 0,0 l/m 0,0 km/h (0 Bft) O-SO 106 -1,4 C 0,0 km/h (0 Bft) 100 %
27.11.2018 15:43 1,8 C 79 % 1020,7 hPa 0,0 l/m 0,8 km/h (0 Bft) O-SO 105 -1,4 C 3,1 km/h (1 Bft) 100 %
27.11.2018 15:44 1,8 C 79 % 1020,7 hPa 0,0 l/m 0,1 km/h (0 Bft) O-SO 105 -1,4 C 3,1 km/h (1 Bft) 100 %
27.11.2018 15:45 1,8 C 79 % 1020,7 hPa 0,0 l/m 0,1 km/h (0 Bft) O-SO 105 -1,4 C 3,1 km/h (1 Bft) 100 %
27.11.2018 15:46 1,8 C 79 % 1020,7 hPa 0,0 l/m 0,3 km/h (0 Bft) O-SO 105 -1,4 C 3,1 km/h (1 Bft) 100 %
27.11.2018 15:47 1,7 C 79 % 1020,8 hPa 0,0 l/m 0,0 km/h (0 Bft) O-SO 105 -1,5 C 0,0 km/h (0 Bft) 100 %
27.11.2018 15:48 1,7 C 79 % 1020,8 hPa 0,0 l/m 0,3 km/h (0 Bft) O 86 -1,5 C 3,1 km/h (1 Bft) 100 %
27.11.2018 15:49 1,7 C 79 % 1020,8 hPa 0,0 l/m 0,1 km/h (0 Bft) O 86 -1,5 C 3,1 km/h (1 Bft) 100 %
27.11.2018 15:50 1,7 C 79 % 1020,8 hPa 0,0 l/m 0,0 km/h (0 Bft) O 86 -1,5 C 0,0 km/h (0 Bft) 100 %
27.11.2018 15:51 1,6 C 79 % 1020,7 hPa 0,0 l/m 0,9 km/h (0 Bft) O-NO 73 -1,6 C 3,1 km/h (1 Bft) 100 %
27.11.2018 15:52 1,6 C 79 % 1020,7 hPa 0,0 l/m 0,0 km/h (0 Bft) O-NO 73 -1,6 C 0,0 km/h (0 Bft) 100 %
27.11.2018 15:53 1,6 C 79 % 1020,8 hPa 0,0 l/m 0,0 km/h (0 Bft) O-NO 73 -1,6 C 0,0 km/h (0 Bft) 100 %
27.11.2018 15:54 1,6 C 79 % 1020,7 hPa 0,0 l/m 0,8 km/h (0 Bft) O-SO 103 -1,6 C 3,1 km/h (1 Bft) 100 %
27.11.2018 15:55 1,6 C 79 % 1020,7 hPa 0,0 l/m 0,0 km/h (0 Bft) O-SO 103 -1,6 C 0,0 km/h (0 Bft) 100 %
27.11.2018 15:56 1,6 C 79 % 1020,7 hPa 0,0 l/m 0,1 km/h (0 Bft) O-SO 103 -1,6 C 3,1 km/h (1 Bft) 100 %
27.11.2018 15:57 1,6 C 79 % 1020,8 hPa 0,0 l/m 0,0 km/h (0 Bft) O-SO 103 -1,6 C 0,0 km/h (0 Bft) 100 %
27.11.2018 15:58 1,5 C 79 % 1020,8 hPa 0,0 l/m 0,1 km/h (0 Bft) O-SO 103 -1,7 C 3,1 km/h (1 Bft) 100 %
27.11.2018 15:59 1,5 C 80 % 1020,8 hPa 0,0 l/m 0,2 km/h (0 Bft) O-SO 103 -1,6 C 3,1 km/h (1 Bft) 100 %
27.11.2018 16:00 1,5 C 80 % 1020,8 hPa 0,0 l/m 0,1 km/h (0 Bft) O-SO 103 -1,6 C 3,1 km/h (1 Bft) 100 %
27.11.2018 16:01 1,4 C 80 % 1020,9 hPa 0,0 l/m 0,0 km/h (0 Bft) O-SO 103 -1,7 C 0,0 km/h (0 Bft) 100 %
27.11.2018 16:02 1,4 C 80 % 1020,8 hPa 0,0 l/m 0,9 km/h (0 Bft) O 101 -1,7 C 3,1 km/h (1 Bft) 100 %
27.11.2018 16:03 1,4 C 80 % 1020,9 hPa 0,0 l/m 0,0 km/h (0 Bft) O 101 -1,7 C 0,0 km/h (0 Bft) 100 %
27.11.2018 16:04 1,4 C 80 % 1020,8 hPa 0,0 l/m 1,0 km/h (0 Bft) O 101 -1,7 C 6,3 km/h (2 Bft) 100 %
27.11.2018 16:05 1,4 C 80 % 1020,9 hPa 0,0 l/m 0,0 km/h (0 Bft) O 101 -1,7 C 0,0 km/h (0 Bft) 100 %
27.11.2018 16:06 1,3 C 80 % 1020,8 hPa 0,0 l/m 0,0 km/h (0 Bft) O 101 -1,8 C 0,0 km/h (0 Bft) 100 %
27.11.2018 16:07 1,3 C 80 % 1020,8 hPa 0,0 l/m 0,0 km/h (0 Bft) O 101 -1,8 C 0,0 km/h (0 Bft) 100 %
27.11.2018 16:08 1,3 C 80 % 1020,9 hPa 0,0 l/m 0,0 km/h (0 Bft) O 101 -1,8 C 0,0 km/h (0 Bft) 100 %
27.11.2018 16:09 1,3 C 80 % 1020,9 hPa 0,0 l/m 0,0 km/h (0 Bft) O 101 -1,8 C 0,0 km/h (0 Bft) 100 %
27.11.2018 16:10 1,2 C 80 % 1020,9 hPa 0,0 l/m 0,1 km/h (0 Bft) O 101 -1,9 C 3,1 km/h (1 Bft) 100 %
27.11.2018 16:11 1,2 C 80 % 1020,9 hPa 0,0 l/m 0,0 km/h (0 Bft) O 101 -1,9 C 0,0 km/h (0 Bft) 100 %
27.11.2018 16:12 1,2 C 81 % 1020,9 hPa 0,0 l/m 0,4 km/h (0 Bft) O-SO 103 -1,7 C 3,1 km/h (1 Bft) 100 %
27.11.2018 16:13 1,1 C 81 % 1020,9 hPa 0,0 l/m 0,2 km/h (0 Bft) O-SO 103 -1,8 C 3,1 km/h (1 Bft) 100 %
27.11.2018 16:14 1,1 C 81 % 1020,9 hPa 0,0 l/m 0,3 km/h (0 Bft) O-SO 102 -1,8 C 3,1 km/h (1 Bft) 100 %
27.11.2018 16:15 1,1 C 81 % 1020,8 hPa 0,0 l/m 0,0 km/h (0 Bft) O-SO 102 -1,8 C 0,0 km/h (0 Bft) 100 %
27.11.2018 16:16 1,1 C 81 % 1020,8 hPa 0,0 l/m 0,0 km/h (0 Bft) O-SO 103 -1,8 C 0,0 km/h (0 Bft) 100 %
27.11.2018 16:17 1,0 C 81 % 1020,8 hPa 0,0 l/m 0,0 km/h (0 Bft) O-SO 102 -1,9 C 0,0 km/h (0 Bft) 100 %
27.11.2018 16:18 0,9 C 81 % 1020,8 hPa 0,0 l/m 0,0 km/h (0 Bft) O-SO 103 -2,0 C 0,0 km/h (0 Bft) 100 %
27.11.2018 16:19 0,9 C 81 % 1020,8 hPa 0,0 l/m 0,0 km/h (0 Bft) O-SO 103 -2,0 C 0,0 km/h (0 Bft) 100 %
27.11.2018 16:20 0,9 C 81 % 1020,8 hPa 0,0 l/m 0,0 km/h (0 Bft) O-SO 103 -2,0 C 0,0 km/h (0 Bft) 100 %
27.11.2018 16:21 0,8 C 81 % 1020,8 hPa 0,0 l/m 0,0 km/h (0 Bft) O-SO 103 -2,1 C 0,0 km/h (0 Bft) 100 %
27.11.2018 16:22 0,8 C 82 % 1020,7 hPa 0,0 l/m 0,1 km/h (0 Bft) O-SO 103 -1,9 C 3,1 km/h (1 Bft) 100 %
27.11.2018 16:23 0,8 C 82 % 1020,7 hPa 0,0 l/m 0,7 km/h (0 Bft) O 80 -1,9 C 3,1 km/h (1 Bft) 100 %
27.11.2018 16:24 0,7 C 83 % 1020,7 hPa 0,0 l/m 0,3 km/h (0 Bft) O 81 -1,8 C 3,1 km/h (1 Bft) 100 %
27.11.2018 16:25 0,7 C 83 % 1020,7 hPa 0,0 l/m 0,0 km/h (0 Bft) O 81 -1,8 C 0,0 km/h (0 Bft) 100 %
27.11.2018 16:26 0,7 C 83 % 1020,7 hPa 0,0 l/m 0,0 km/h (0 Bft) O 81 -1,8 C 0,0 km/h (0 Bft) 100 %
27.11.2018 16:27 0,7 C 83 % 1020,7 hPa 0,0 l/m 0,0 km/h (0 Bft) O 81 -1,8 C 0,0 km/h (0 Bft) 100 %
27.11.2018 16:28 0,6 C 83 % 1020,8 hPa 0,0 l/m 0,0 km/h (0 Bft) O 81 -1,9 C 0,0 km/h (0 Bft) 100 %
27.11.2018 16:29 0,6 C 83 % 1020,8 hPa 0,0 l/m 0,0 km/h (0 Bft) O 81 -1,9 C 0,0 km/h (0 Bft) 100 %
27.11.2018 16:30 0,6 C 83 % 1020,8 hPa 0,0 l/m 0,0 km/h (0 Bft) O 81 -1,9 C 0,0 km/h (0 Bft) 100 %
27.11.2018 16:31 0,5 C 83 % 1020,9 hPa 0,0 l/m 0,0 km/h (0 Bft) O 81 -2,0 C 0,0 km/h (0 Bft) 100 %
27.11.2018 16:32 0,4 C 83 % 1020,8 hPa 0,0 l/m 0,0 km/h (0 Bft) O 81 -2,1 C 0,0 km/h (0 Bft) 100 %
27.11.2018 16:33 0,4 C 84 % 1020,9 hPa 0,0 l/m 0,0 km/h (0 Bft) O 81 -2,0 C 0,0 km/h (0 Bft) 100 %
27.11.2018 16:34 0,4 C 84 % 1020,8 hPa 0,0 l/m 0,0 km/h (0 Bft) O 81 -2,0 C 0,0 km/h (0 Bft) 100 %
27.11.2018 16:35 0,3 C 84 % 1020,9 hPa 0,0 l/m 0,0 km/h (0 Bft) O 81 -2,1 C 0,0 km/h (0 Bft) 100 %
27.11.2018 16:36 0,3 C 84 % 1020,9 hPa 0,0 l/m 0,6 km/h (0 Bft) SO 124 -2,1 C 3,1 km/h (1 Bft) 100 %
27.11.2018 16:37 0,3 C 84 % 1020,9 hPa 0,0 l/m 0,0 km/h (0 Bft) O-SO 122 -2,1 C 0,0 km/h (0 Bft) 100 %
27.11.2018 16:38 0,3 C 84 % 1020,9 hPa 0,0 l/m 0,0 km/h (0 Bft) O-SO 122 -2,1 C 0,0 km/h (0 Bft) 100 %
27.11.2018 16:39 0,2 C 84 % 1020,9 hPa 0,0 l/m 0,0 km/h (0 Bft) O-SO 122 -2,2 C 0,0 km/h (0 Bft) 100 %
27.11.2018 16:40 0,2 C 84 % 1020,9 hPa 0,0 l/m 0,0 km/h (0 Bft) O-SO 122 -2,2 C 0,0 km/h (0 Bft) 100 %
27.11.2018 16:41 0,2 C 84 % 1020,9 hPa 0,0 l/m 0,0 km/h (0 Bft) O-SO 122 -2,2 C 0,0 km/h (0 Bft) 100 %
27.11.2018 16:42 0,1 C 84 % 1020,9 hPa 0,0 l/m 0,0 km/h (0 Bft) O-SO 122 -2,3 C 0,0 km/h (0 Bft) 100 %
27.11.2018 16:43 0,1 C 84 % 1021,0 hPa 0,0 l/m 0,0 km/h (0 Bft) O-SO 122 -2,3 C 0,0 km/h (0 Bft) 100 %
27.11.2018 16:44 0,0 C 84 % 1021,1 hPa 0,0 l/m 0,0 km/h (0 Bft) O-SO 122 -2,4 C 0,0 km/h (0 Bft) 100 %
27.11.2018 16:45 -0,1 C 84 % 1021,1 hPa 0,0 l/m 0,2 km/h (0 Bft) O 99 -2,5 C 3,1 km/h (1 Bft) 100 %
27.11.2018 16:46 -0,1 C 85 % 1021,1 hPa 0,0 l/m 0,4 km/h (0 Bft) O-SO 110 -2,3 C 3,1 km/h (1 Bft) 100 %
27.11.2018 16:47 -0,1 C 85 % 1021,1 hPa 0,0 l/m 0,2 km/h (0 Bft) O 88 -2,3 C 3,1 km/h (1 Bft) 100 %
27.11.2018 16:48 -0,1 C 85 % 1021,1 hPa 0,0 l/m 0,2 km/h (0 Bft) O 88 -2,3 C 3,1 km/h (1 Bft) 100 %
27.11.2018 16:49 -0,2 C 85 % 1021,1 hPa 0,0 l/m 0,0 km/h (0 Bft) O 88 -2,4 C 0,0 km/h (0 Bft) 100 %
27.11.2018 16:50 -0,2 C 85 % 1021,2 hPa 0,0 l/m 0,0 km/h (0 Bft) O 89 -2,4 C 0,0 km/h (0 Bft) 100 %
27.11.2018 16:51 -0,2 C 85 % 1021,1 hPa 0,0 l/m 0,0 km/h (0 Bft) O 88 -2,4 C 0,0 km/h (0 Bft) 100 %
27.11.2018 16:52 -0,3 C 85 % 1021,1 hPa 0,0 l/m 0,1 km/h (0 Bft) O 88 -2,5 C 3,1 km/h (1 Bft) 100 %
27.11.2018 16:53 -0,3 C 86 % 1021,2 hPa 0,0 l/m 0,0 km/h (0 Bft) O 88 -2,3 C 0,0 km/h (0 Bft) 100 %
27.11.2018 16:54 -0,3 C 86 % 1021,2 hPa 0,0 l/m 0,0 km/h (0 Bft) O 89 -2,3 C 0,0 km/h (0 Bft) 100 %
27.11.2018 16:55 -0,3 C 86 % 1021,2 hPa 0,0 l/m 0,0 km/h (0 Bft) O 89 -2,3 C 0,0 km/h (0 Bft) 100 %
27.11.2018 16:56 -0,4 C 86 % 1021,3 hPa 0,0 l/m 0,0 km/h (0 Bft) O 88 -2,4 C 0,0 km/h (0 Bft) 100 %
27.11.2018 16:57 -0,4 C 86 % 1021,2 hPa 0,0 l/m 0,0 km/h (0 Bft) O 88 -2,4 C 0,0 km/h (0 Bft) 100 %
27.11.2018 16:58 -0,4 C 86 % 1021,3 hPa 0,0 l/m 0,1 km/h (0 Bft) O 88 -2,4 C 3,1 km/h (1 Bft) 100 %
27.11.2018 16:59 -0,4 C 86 % 1021,3 hPa 0,0 l/m 0,0 km/h (0 Bft) O 88 -2,4 C 0,0 km/h (0 Bft) 100 %
27.11.2018 17:00 -0,4 C 86 % 1021,2 hPa 0,0 l/m 0,1 km/h (0 Bft) O 88 -2,4 C 3,1 km/h (1 Bft) 100 %
27.11.2018 17:01 -0,4 C 86 % 1021,2 hPa 0,0 l/m 0,2 km/h (0 Bft) O 88 -2,4 C 3,1 km/h (1 Bft) 100 %
27.11.2018 17:02 -0,4 C 86 % 1021,2 hPa 0,0 l/m 0,1 km/h (0 Bft) O 88 -2,4 C 3,1 km/h (1 Bft) 100 %
27.11.2018 17:03 -0,4 C 86 % 1021,2 hPa 0,0 l/m 0,0 km/h (0 Bft) O 88 -2,4 C 0,0 km/h (0 Bft) 100 %
27.11.2018 17:04 -0,4 C 86 % 1021,2 hPa 0,0 l/m 0,0 km/h (0 Bft) O 88 -2,4 C 0,0 km/h (0 Bft) 100 %
27.11.2018 17:05 -0,4 C 86 % 1021,2 hPa 0,0 l/m 0,1 km/h (0 Bft) O-NO 68 -2,4 C 3,1 km/h (1 Bft) 100 %
27.11.2018 17:06 -0,5 C 86 % 1021,2 hPa 0,0 l/m 0,0 km/h (0 Bft) O-NO 67 -2,5 C 0,0 km/h (0 Bft) 100 %
27.11.2018 17:07 -0,5 C 86 % 1021,2 hPa 0,0 l/m 0,0 km/h (0 Bft) O-NO 67 -2,5 C 0,0 km/h (0 Bft) 100 %
27.11.2018 17:08 -0,6 C 86 % 1021,2 hPa 0,0 l/m 0,0 km/h (0 Bft) O-NO 67 -2,6 C 0,0 km/h (0 Bft) 100 %
27.11.2018 17:09 -0,6 C 86 % 1021,3 hPa 0,0 l/m 0,0 km/h (0 Bft) O-NO 68 -2,6 C 0,0 km/h (0 Bft) 100 %
27.11.2018 17:10 -0,6 C 86 % 1021,2 hPa 0,0 l/m 0,0 km/h (0 Bft) O-NO 68 -2,6 C 0,0 km/h (0 Bft) 100 %
27.11.2018 17:11 -0,6 C 86 % 1021,2 hPa 0,0 l/m 0,0 km/h (0 Bft) O-NO 68 -2,6 C 0,0 km/h (0 Bft) 100 %
27.11.2018 17:12 -0,6 C 86 % 1021,3 hPa 0,0 l/m 0,0 km/h (0 Bft) O-NO 68 -2,6 C 0,0 km/h (0 Bft) 100 %
27.11.2018 17:13 -0,6 C 86 % 1021,3 hPa 0,0 l/m 0,0 km/h (0 Bft) O-NO 68 -2,6 C 0,0 km/h (0 Bft) 100 %
27.11.2018 17:14 -0,6 C 86 % 1021,2 hPa 0,0 l/m 0,0 km/h (0 Bft) O-NO 67 -2,6 C 0,0 km/h (0 Bft) 100 %
27.11.2018 17:15 -0,6 C 86 % 1021,2 hPa 0,0 l/m 0,0 km/h (0 Bft) O-NO 67 -2,6 C 0,0 km/h (0 Bft) 100 %
27.11.2018 17:16 -0,6 C 86 % 1021,2 hPa 0,0 l/m 0,0 km/h (0 Bft) O-NO 67 -2,6 C 0,0 km/h (0 Bft) 100 %
27.11.2018 17:17 -0,6 C 86 % 1021,2 hPa 0,0 l/m 0,1 km/h (0 Bft) O-NO 67 -2,6 C 3,1 km/h (1 Bft) 100 %
27.11.2018 17:18 -0,6 C 86 % 1021,2 hPa 0,0 l/m 0,0 km/h (0 Bft) O 92 -2,6 C 0,0 km/h (0 Bft) 100 %
27.11.2018 17:19 -0,6 C 86 % 1021,2 hPa 0,0 l/m 0,1 km/h (0 Bft) O 88 -2,6 C 3,1 km/h (1 Bft) 100 %
27.11.2018 17:20 -0,6 C 86 % 1021,2 hPa 0,0 l/m 0,0 km/h (0 Bft) O 88 -2,6 C 0,0 km/h (0 Bft) 100 %
27.11.2018 17:21 -0,6 C 86 % 1021,3 hPa 0,0 l/m 0,0 km/h (0 Bft) O 88 -2,6 C 0,0 km/h (0 Bft) 100 %
27.11.2018 17:22 -0,5 C 86 % 1021,3 hPa 0,0 l/m 0,3 km/h (0 Bft) O 88 -2,5 C 3,1 km/h (1 Bft) 100 %
27.11.2018 17:23 -0,5 C 86 % 1021,2 hPa 0,0 l/m 0,0 km/h (0 Bft) O 88 -2,5 C 0,0 km/h (0 Bft) 100 %
27.11.2018 17:24 -0,5 C 86 % 1021,2 hPa 0,0 l/m 0,5 km/h (0 Bft) O 86 -2,5 C 3,1 km/h (1 Bft) 100 %
27.11.2018 17:25 -0,4 C 86 % 1021,3 hPa 0,0 l/m 0,2 km/h (0 Bft) NO 46 -2,4 C 3,1 km/h (1 Bft) 100 %
27.11.2018 17:26 -0,4 C 87 % 1021,2 hPa 0,0 l/m 0,2 km/h (0 Bft) O-NO 66 -2,3 C 3,1 km/h (1 Bft) 100 %
27.11.2018 17:27 -0,4 C 87 % 1021,2 hPa 0,0 l/m 0,5 km/h (0 Bft) O-NO 68 -2,3 C 3,1 km/h (1 Bft) 100 %
27.11.2018 17:28 -0,4 C 87 % 1021,3 hPa 0,0 l/m 0,3 km/h (0 Bft) O-NO 68 -2,3 C 3,1 km/h (1 Bft) 100 %
27.11.2018 17:29 -0,4 C 87 % 1021,3 hPa 0,0 l/m 0,9 km/h (0 Bft) O-NO 68 -2,3 C 3,1 km/h (1 Bft) 100 %
27.11.2018 17:30 -0,4 C 87 % 1021,3 hPa 0,0 l/m 0,4 km/h (0 Bft) O-NO 68 -2,3 C 3,1 km/h (1 Bft) 100 %
27.11.2018 17:31 -0,4 C 87 % 1021,3 hPa 0,0 l/m 0,0 km/h (0 Bft) O-NO 68 -2,3 C 0,0 km/h (0 Bft) 100 %
27.11.2018 17:32 -0,4 C 87 % 1021,2 hPa 0,0 l/m 0,0 km/h (0 Bft) O-NO 68 -2,3 C 0,0 km/h (0 Bft) 100 %
27.11.2018 17:33 -0,5 C 87 % 1021,3 hPa 0,0 l/m 0,0 km/h (0 Bft) O-NO 68 -2,4 C 0,0 km/h (0 Bft) 100 %
27.11.2018 17:34 -0,5 C 87 % 1021,3 hPa 0,0 l/m 2,4 km/h (1 Bft) O-NO 63 -2,4 C 3,1 km/h (1 Bft) 100 %
27.11.2018 17:35 -0,5 C 87 % 1021,3 hPa 0,0 l/m 2,0 km/h (1 Bft) O-NO 65 -2,4 C 3,1 km/h (1 Bft) 100 %
27.11.2018 17:36 -0,5 C 87 % 1021,3 hPa 0,0 l/m 0,7 km/h (0 Bft) O-NO 74 -2,4 C 3,1 km/h (1 Bft) 100 %
27.11.2018 17:37 -0,6 C 87 % 1021,4 hPa 0,0 l/m 0,0 km/h (0 Bft) O-NO 74 -2,5 C 0,0 km/h (0 Bft) 100 %
27.11.2018 17:38 -0,6 C 87 % 1021,4 hPa 0,0 l/m 0,7 km/h (0 Bft) O-NO 74 -2,5 C 3,1 km/h (1 Bft) 100 %
27.11.2018 17:39 -0,6 C 87 % 1021,4 hPa 0,0 l/m 0,1 km/h (0 Bft) O-NO 74 -2,5 C 3,1 km/h (1 Bft) 100 %
27.11.2018 17:40 -0,6 C 87 % 1021,4 hPa 0,0 l/m 0,3 km/h (0 Bft) O-NO 74 -2,5 C 3,1 km/h (1 Bft) 100 %
27.11.2018 17:41 -0,6 C 87 % 1021,4 hPa 0,0 l/m 1,6 km/h (1 Bft) O-NO 75 -2,5 C 3,1 km/h (1 Bft) 100 %
27.11.2018 17:42 -0,6 C 87 % 1021,4 hPa 0,0 l/m 0,5 km/h (0 Bft) O-NO 77 -2,5 C 3,1 km/h (1 Bft) 96 %
27.11.2018 17:43 -0,6 C 87 % 1021,4 hPa 0,0 l/m 0,0 km/h (0 Bft) O-NO 77 -2,5 C 0,0 km/h (0 Bft) 100 %
27.11.2018 17:44 -0,6 C 87 % 1021,5 hPa 0,0 l/m 0,5 km/h (0 Bft) O-NO 72 -2,5 C 3,1 km/h (1 Bft) 100 %
27.11.2018 17:45 -0,6 C 87 % 1021,5 hPa 0,0 l/m 0,4 km/h (0 Bft) O-NO 64 -2,5 C 3,1 km/h (1 Bft) 100 %
27.11.2018 17:46 -0,6 C 87 % 1021,6 hPa 0,0 l/m 0,0 km/h (0 Bft) O-NO 64 -2,5 C 0,0 km/h (0 Bft) 100 %
27.11.2018 17:47 -0,6 C 87 % 1021,5 hPa 0,0 l/m 0,1 km/h (0 Bft) O-NO 64 -2,5 C 3,1 km/h (1 Bft) 100 %
27.11.2018 17:48 -0,6 C 87 % 1021,6 hPa 0,0 l/m 0,2 km/h (0 Bft) O-NO 64 -2,5 C 3,1 km/h (1 Bft) 100 %
27.11.2018 17:49 -0,7 C 87 % 1021,6 hPa 0,0 l/m 0,0 km/h (0 Bft) O-NO 64 -2,6 C 0,0 km/h (0 Bft) 100 %
27.11.2018 17:50 -0,7 C 87 % 1021,5 hPa 0,0 l/m 0,0 km/h (0 Bft) O-NO 64 -2,6 C 0,0 km/h (0 Bft) 100 %
27.11.2018 17:51 -0,7 C 88 % 1021,6 hPa 0,0 l/m 0,0 km/h (0 Bft) O-NO 64 -2,4 C 0,0 km/h (0 Bft) 100 %
27.11.2018 17:52 -0,7 C 88 % 1021,6 hPa 0,0 l/m 0,0 km/h (0 Bft) O-NO 64 -2,4 C 0,0 km/h (0 Bft) 100 %
27.11.2018 17:53 -0,7 C 88 % 1021,6 hPa 0,0 l/m 0,0 km/h (0 Bft) O-NO 64 -2,4 C 0,0 km/h (0 Bft) 100 %
27.11.2018 17:54 -0,8 C 88 % 1021,6 hPa 0,0 l/m 0,0 km/h (0 Bft) O-NO 64 -2,5 C 0,0 km/h (0 Bft) 100 %
27.11.2018 17:55 -0,8 C 88 % 1021,6 hPa 0,0 l/m 0,0 km/h (0 Bft) O-NO 65 -2,5 C 0,0 km/h (0 Bft) 100 %
27.11.2018 17:56 -0,8 C 88 % 1021,6 hPa 0,0 l/m 0,0 km/h (0 Bft) O-NO 64 -2,5 C 0,0 km/h (0 Bft) 100 %
27.11.2018 17:57 -0,8 C 88 % 1021,6 hPa 0,0 l/m 0,0 km/h (0 Bft) O-NO 64 -2,5 C 0,0 km/h (0 Bft) 100 %
27.11.2018 17:58 -0,8 C 88 % 1021,7 hPa 0,0 l/m 0,0 km/h (0 Bft) O-NO 64 -2,5 C 0,0 km/h (0 Bft) 100 %
27.11.2018 17:59 -0,8 C 88 % 1021,7 hPa 0,0 l/m 0,0 km/h (0 Bft) O-NO 64 -2,5 C 0,0 km/h (0 Bft) 100 %
27.11.2018 18:00 -0,8 C 88 % 1021,7 hPa 0,0 l/m 0,5 km/h (0 Bft) O-NO 64 -2,5 C 3,1 km/h (1 Bft) 100 %
27.11.2018 18:01 -0,8 C 89 % 1021,7 hPa 0,0 l/m 0,0 km/h (0 Bft) O-NO 65 -2,4 C 0,0 km/h (0 Bft) 100 %
27.11.2018 18:02 -0,8 C 89 % 1021,6 hPa 0,0 l/m 0,0 km/h (0 Bft) O-NO 65 -2,4 C 0,0 km/h (0 Bft) 100 %
27.11.2018 18:03 -0,8 C 89 % 1021,6 hPa 0,0 l/m 0,0 km/h (0 Bft) O-NO 65 -2,4 C 0,0 km/h (0 Bft) 100 %
27.11.2018 18:04 -0,8 C 89 % 1021,6 hPa 0,0 l/m 0,0 km/h (0 Bft) O 96 -2,4 C 0,0 km/h (0 Bft) 100 %
27.11.2018 18:05 -0,8 C 89 % 1021,5 hPa 0,0 l/m 0,0 km/h (0 Bft) O 96 -2,4 C 0,0 km/h (0 Bft) 100 %
27.11.2018 18:06 -0,8 C 89 % 1021,6 hPa 0,0 l/m 0,0 km/h (0 Bft) O 96 -2,4 C 0,0 km/h (0 Bft) 100 %
27.11.2018 18:07 -0,8 C 89 % 1021,5 hPa 0,0 l/m 0,0 km/h (0 Bft) O 96 -2,4 C 0,0 km/h (0 Bft) 100 %
27.11.2018 18:08 -0,8 C 89 % 1021,5 hPa 0,0 l/m 0,1 km/h (0 Bft) O 96 -2,4 C 3,1 km/h (1 Bft) 100 %
27.11.2018 18:09 -0,8 C 89 % 1021,6 hPa 0,0 l/m 0,1 km/h (0 Bft) O 96 -2,4 C 3,1 km/h (1 Bft) 100 %
27.11.2018 18:10 -0,8 C 89 % 1021,6 hPa 0,0 l/m 0,0 km/h (0 Bft) O 96 -2,4 C 0,0 km/h (0 Bft) 100 %
27.11.2018 18:11 -0,8 C 89 % 1021,6 hPa 0,0 l/m 0,8 km/h (0 Bft) O 85 -2,4 C 3,1 km/h (1 Bft) 100 %
27.11.2018 18:12 -0,8 C 89 % 1021,5 hPa 0,0 l/m 0,0 km/h (0 Bft) O 82 -2,4 C 0,0 km/h (0 Bft) 100 %
27.11.2018 18:13 -0,8 C 89 % 1021,6 hPa 0,0 l/m 0,0 km/h (0 Bft) O 82 -2,4 C 0,0 km/h (0 Bft) 100 %
27.11.2018 18:14 -0,8 C 89 % 1021,6 hPa 0,0 l/m 0,0 km/h (0 Bft) O-NO 65 -2,4 C 0,0 km/h (0 Bft) 100 %
27.11.2018 18:15 -0,8 C 89 % 1021,6 hPa 0,0 l/m 0,5 km/h (0 Bft) O 95 -2,4 C 3,1 km/h (1 Bft) 100 %
27.11.2018 18:16 -0,8 C 89 % 1021,6 hPa 0,0 l/m 0,9 km/h (0 Bft) O 93 -2,4 C 3,1 km/h (1 Bft) 96 %
27.11.2018 18:17 -0,8 C 89 % 1021,7 hPa 0,0 l/m 0,1 km/h (0 Bft) O 93 -2,4 C 3,1 km/h (1 Bft) 100 %
27.11.2018 18:18 -0,8 C 89 % 1021,7 hPa 0,0 l/m 0,0 km/h (0 Bft) O 93 -2,4 C 0,0 km/h (0 Bft) 100 %
27.11.2018 18:19 -0,8 C 89 % 1021,7 hPa 0,0 l/m 0,0 km/h (0 Bft) O 94 -2,4 C 0,0 km/h (0 Bft) 100 %
27.11.2018 18:20 -0,8 C 89 % 1021,7 hPa 0,0 l/m 0,0 km/h (0 Bft) O 94 -2,4 C 0,0 km/h (0 Bft) 100 %
27.11.2018 18:21 -0,8 C 89 % 1021,6 hPa 0,0 l/m 0,2 km/h (0 Bft) O 94 -2,4 C 3,1 km/h (1 Bft) 100 %
27.11.2018 18:22 -0,8 C 89 % 1021,6 hPa 0,0 l/m 0,3 km/h (0 Bft) O 94 -2,4 C 3,1 km/h (1 Bft) 100 %
27.11.2018 18:23 -0,8 C 89 % 1021,6 hPa 0,0 l/m 0,0 km/h (0 Bft) O 94 -2,4 C 0,0 km/h (0 Bft) 100 %
27.11.2018 18:24 -0,8 C 89 % 1021,6 hPa 0,0 l/m 0,0 km/h (0 Bft) O 94 -2,4 C 0,0 km/h (0 Bft) 100 %
27.11.2018 18:25 -0,9 C 89 % 1021,6 hPa 0,0 l/m 0,0 km/h (0 Bft) O 94 -2,5 C 0,0 km/h (0 Bft) 100 %
27.11.2018 18:26 -0,9 C 89 % 1021,6 hPa 0,0 l/m 0,0 km/h (0 Bft) O 101 -2,5 C 0,0 km/h (0 Bft) 100 %
27.11.2018 18:27 -0,9 C 89 % 1021,6 hPa 0,0 l/m 0,0 km/h (0 Bft) O 101 -2,5 C 0,0 km/h (0 Bft) 100 %
27.11.2018 18:28 -0,9 C 89 % 1021,5 hPa 0,0 l/m 0,1 km/h (0 Bft) O 100 -2,5 C 3,1 km/h (1 Bft) 100 %
27.11.2018 18:29 -0,9 C 89 % 1021,5 hPa 0,0 l/m 0,0 km/h (0 Bft) O 100 -2,5 C 0,0 km/h (0 Bft) 100 %
27.11.2018 18:30 -0,9 C 89 % 1021,5 hPa 0,0 l/m 0,0 km/h (0 Bft) O 100 -2,5 C 0,0 km/h (0 Bft) 100 %
27.11.2018 18:31 -0,9 C 89 % 1021,5 hPa 0,0 l/m 0,3 km/h (0 Bft) O 100 -2,5 C 3,1 km/h (1 Bft) 100 %
27.11.2018 18:32 -0,9 C 89 % 1021,5 hPa 0,0 l/m 0,3 km/h (0 Bft) O-SO 102 -2,5 C 3,1 km/h (1 Bft) 100 %
27.11.2018 18:33 -0,9 C 89 % 1021,5 hPa 0,0 l/m 0,0 km/h (0 Bft) O-SO 102 -2,5 C 0,0 km/h (0 Bft) 100 %
27.11.2018 18:34 -0,9 C 89 % 1021,5 hPa 0,0 l/m 0,1 km/h (0 Bft) O 101 -2,5 C 3,1 km/h (1 Bft) 100 %
27.11.2018 18:35 -0,9 C 89 % 1021,5 hPa 0,0 l/m 0,0 km/h (0 Bft) O 101 -2,5 C 0,0 km/h (0 Bft) 100 %
27.11.2018 18:36 -1,0 C 89 % 1021,6 hPa 0,0 l/m 0,0 km/h (0 Bft) O 101 -2,6 C 0,0 km/h (0 Bft) 100 %
27.11.2018 18:37 -1,0 C 89 % 1021,6 hPa 0,0 l/m 0,4 km/h (0 Bft) O-SO 103 -2,6 C 3,1 km/h (1 Bft) 100 %
27.11.2018 18:38 -1,0 C 89 % 1021,6 hPa 0,0 l/m 0,0 km/h (0 Bft) O-SO 103 -2,6 C 0,0 km/h (0 Bft) 100 %
27.11.2018 18:39 -1,0 C 89 % 1021,6 hPa 0,0 l/m 0,0 km/h (0 Bft) O-SO 103 -2,6 C 0,0 km/h (0 Bft) 100 %
27.11.2018 18:40 -1,1 C 89 % 1021,6 hPa 0,0 l/m 0,0 km/h (0 Bft) O-SO 103 -2,7 C 0,0 km/h (0 Bft) 100 %
27.11.2018 18:41 -1,1 C 89 % 1021,7 hPa 0,0 l/m 0,3 km/h (0 Bft) W-NW 298 -2,7 C 3,1 km/h (1 Bft) 100 %
27.11.2018 18:42 -1,1 C 89 % 1021,8 hPa 0,0 l/m 0,0 km/h (0 Bft) W-NW 298 -2,7 C 0,0 km/h (0 Bft) 96 %
27.11.2018 18:43 -1,1 C 90 % 1021,7 hPa 0,0 l/m 1,5 km/h (1 Bft) O-SO 120 -2,5 C 6,3 km/h (2 Bft) 100 %
27.11.2018 18:44 -1,1 C 90 % 1021,7 hPa 0,0 l/m 0,4 km/h (0 Bft) O 88 -2,5 C 3,1 km/h (1 Bft) 100 %
27.11.2018 18:45 -1,1 C 90 % 1021,7 hPa 0,0 l/m 0,0 km/h (0 Bft) O 88 -2,5 C 0,0 km/h (0 Bft) 98 %
27.11.2018 18:46 -1,1 C 90 % 1021,6 hPa 0,0 l/m 0,3 km/h (0 Bft) O 88 -2,5 C 3,1 km/h (1 Bft) 96 %
27.11.2018 18:47 -1,1 C 90 % 1021,7 hPa 0,0 l/m 3,8 km/h (1 Bft) O-NO 65 -2,5 C 9,4 km/h (2 Bft) 100 %
27.11.2018 18:48 -1,1 C 90 % 1021,7 hPa 0,0 l/m 0,7 km/h (0 Bft) O-NO 68 -2,5 C 3,1 km/h (1 Bft) 96 %
27.11.2018 18:49 -1,1 C 90 % 1021,7 hPa 0,0 l/m 0,0 km/h (0 Bft) O-NO 68 -2,5 C 0,0 km/h (0 Bft) 96 %
27.11.2018 18:50 -1,1 C 90 % 1021,7 hPa 0,0 l/m 0,0 km/h (0 Bft) O-NO 68 -2,5 C 0,0 km/h (0 Bft) 100 %
27.11.2018 18:51 -1,0 C 90 % 1021,7 hPa 0,0 l/m 0,5 km/h (0 Bft) O 89 -2,4 C 3,1 km/h (1 Bft) 96 %
27.11.2018 18:52 -1,0 C 90 % 1021,7 hPa 0,0 l/m 0,5 km/h (0 Bft) O 89 -2,4 C 3,1 km/h (1 Bft) 100 %
27.11.2018 18:53 -1,0 C 90 % 1021,7 hPa 0,0 l/m 0,3 km/h (0 Bft) O-SO 122 -2,4 C 3,1 km/h (1 Bft) 96 %
27.11.2018 18:54 -1,0 C 90 % 1021,8 hPa 0,0 l/m 0,1 km/h (0 Bft) O-SO 122 -2,4 C 3,1 km/h (1 Bft) 100 %
27.11.2018 18:55 -1,0 C 90 % 1021,8 hPa 0,0 l/m 0,8 km/h (0 Bft) O 79 -2,4 C 6,3 km/h (2 Bft) 96 %
27.11.2018 18:56 -1,0 C 90 % 1021,9 hPa 0,0 l/m 0,0 km/h (0 Bft) O-NO 77 -2,4 C 0,0 km/h (0 Bft) 100 %
27.11.2018 18:57 -1,0 C 89 % 1021,8 hPa 0,0 l/m 0,0 km/h (0 Bft) O 79 -2,6 C 0,0 km/h (0 Bft) 96 %
27.11.2018 18:58 -1,0 C 89 % 1021,9 hPa 0,0 l/m 0,0 km/h (0 Bft) O 79 -2,6 C 0,0 km/h (0 Bft) 100 %
27.11.2018 18:59 -1,0 C 89 % 1021,9 hPa 0,0 l/m 0,1 km/h (0 Bft) O 79 -2,6 C 3,1 km/h (1 Bft) 96 %
27.11.2018 19:00 -1,0 C 89 % 1021,9 hPa 0,0 l/m 0,0 km/h (0 Bft) O 79 -2,6 C 0,0 km/h (0 Bft) 100 %
27.11.2018 19:01 -1,0 C 89 % 1022,0 hPa 0,0 l/m 0,0 km/h (0 Bft) O 79 -2,6 C 0,0 km/h (0 Bft) 96 %
27.11.2018 19:02 -1,1 C 89 % 1022,0 hPa 0,0 l/m 0,0 km/h (0 Bft) O 79 -2,7 C 0,0 km/h (0 Bft) 96 %
27.11.2018 19:03 -1,1 C 89 % 1021,9 hPa 0,0 l/m 0,0 km/h (0 Bft) O 79 -2,7 C 0,0 km/h (0 Bft) 100 %
27.11.2018 19:04 -1,1 C 89 % 1021,9 hPa 0,0 l/m 0,0 km/h (0 Bft) O 79 -2,7 C 0,0 km/h (0 Bft) 96 %
27.11.2018 19:05 -1,1 C 89 % 1021,9 hPa 0,0 l/m 0,0 km/h (0 Bft) O 79 -2,7 C 0,0 km/h (0 Bft) 100 %
27.11.2018 19:06 -1,2 C 89 % 1022,0 hPa 0,0 l/m 0,0 km/h (0 Bft) O 79 -2,8 C 0,0 km/h (0 Bft) 96 %
27.11.2018 19:07 -1,2 C 89 % 1022,0 hPa 0,0 l/m 0,0 km/h (0 Bft) O 79 -2,8 C 0,0 km/h (0 Bft) 100 %
27.11.2018 19:08 -1,2 C 89 % 1022,0 hPa 0,0 l/m 0,1 km/h (0 Bft) O 79 -2,8 C 3,1 km/h (1 Bft) 96 %
27.11.2018 19:09 -1,2 C 89 % 1022,0 hPa 0,0 l/m 0,0 km/h (0 Bft) O 79 -2,8 C 0,0 km/h (0 Bft) 96 %
27.11.2018 19:10 -1,2 C 89 % 1022,0 hPa 0,0 l/m 0,0 km/h (0 Bft) O 79 -2,8 C 0,0 km/h (0 Bft) 100 %
27.11.2018 19:11 -1,3 C 89 % 1022,0 hPa 0,0 l/m 0,0 km/h (0 Bft) O 79 -2,9 C 0,0 km/h (0 Bft) 96 %
27.11.2018 19:12 -1,3 C 89 % 1022,1 hPa 0,0 l/m 0,0 km/h (0 Bft) O 79 -2,9 C 0,0 km/h (0 Bft) 100 %
27.11.2018 19:13 -1,3 C 89 % 1022,0 hPa 0,0 l/m 0,0 km/h (0 Bft) O 79 -2,9 C 0,0 km/h (0 Bft) 96 %
27.11.2018 19:14 -1,3 C 89 % 1022,1 hPa 0,0 l/m 0,0 km/h (0 Bft) O 79 -2,9 C 0,0 km/h (0 Bft) 100 %
27.11.2018 19:15 -1,3 C 89 % 1022,0 hPa 0,0 l/m 0,0 km/h (0 Bft) O 79 -2,9 C 0,0 km/h (0 Bft) 96 %
27.11.2018 19:16 -1,4 C 89 % 1022,1 hPa 0,0 l/m 0,0 km/h (0 Bft) O 79 -3,0 C 0,0 km/h (0 Bft) 100 %
27.11.2018 19:17 -1,4 C 89 % 1022,0 hPa 0,0 l/m 0,0 km/h (0 Bft) O-NO 78 -3,0 C 0,0 km/h (0 Bft) 100 %
27.11.2018 19:18 -1,4 C 90 % 1022,1 hPa 0,0 l/m 0,0 km/h (0 Bft) O-NO 78 -2,8 C 0,0 km/h (0 Bft) 96 %
27.11.2018 19:19 -1,4 C 90 % 1022,1 hPa 0,0 l/m 0,0 km/h (0 Bft) O-NO 78 -2,8 C 0,0 km/h (0 Bft) 100 %
27.11.2018 19:20 -1,4 C 90 % 1022,1 hPa 0,0 l/m 0,1 km/h (0 Bft) O-NO 78 -2,8 C 3,1 km/h (1 Bft) 100 %
27.11.2018 19:21 -1,4 C 90 % 1022,1 hPa 0,0 l/m 0,0 km/h (0 Bft) O-NO 78 -2,8 C 0,0 km/h (0 Bft) 100 %
27.11.2018 19:22 -1,4 C 90 % 1022,1 hPa 0,0 l/m 0,0 km/h (0 Bft) O-NO 74 -2,8 C 0,0 km/h (0 Bft) 100 %
27.11.2018 19:23 -1,4 C 90 % 1022,1 hPa 0,0 l/m 0,1 km/h (0 Bft) O-NO 74 -2,8 C 3,1 km/h (1 Bft) 100 %
27.11.2018 19:24 -1,5 C 90 % 1022,1 hPa 0,0 l/m 0,0 km/h (0 Bft) O-NO 74 -2,9 C 0,0 km/h (0 Bft) 96 %
27.11.2018 19:25 -1,5 C 90 % 1022,1 hPa 0,0 l/m 0,1 km/h (0 Bft) O-NO 74 -2,9 C 3,1 km/h (1 Bft) 100 %
27.11.2018 19:26 -1,5 C 90 % 1022,1 hPa 0,0 l/m 0,0 km/h (0 Bft) O-NO 74 -2,9 C 0,0 km/h (0 Bft) 96 %
27.11.2018 19:27 -1,6 C 90 % 1022,1 hPa 0,0 l/m 0,0 km/h (0 Bft) O-NO 74 -3,0 C 0,0 km/h (0 Bft) 100 %
27.11.2018 19:28 -1,6 C 90 % 1022,1 hPa 0,0 l/m 0,1 km/h (0 Bft) O 95 -3,0 C 3,1 km/h (1 Bft) 100 %
27.11.2018 19:29 -1,6 C 90 % 1022,2 hPa 0,0 l/m 0,0 km/h (0 Bft) O 95 -3,0 C 0,0 km/h (0 Bft) 96 %
27.11.2018 19:30 -1,6 C 90 % 1022,1 hPa 0,0 l/m 0,0 km/h (0 Bft) O 95 -3,0 C 0,0 km/h (0 Bft) 100 %
27.11.2018 19:31 -1,6 C 90 % 1022,2 hPa 0,0 l/m 0,0 km/h (0 Bft) O 94 -3,0 C 0,0 km/h (0 Bft) 100 %
27.11.2018 19:32 -1,6 C 90 % 1022,1 hPa 0,0 l/m 0,0 km/h (0 Bft) O 95 -3,0 C 0,0 km/h (0 Bft) 100 %
27.11.2018 19:33 -1,7 C 90 % 1022,1 hPa 0,0 l/m 0,0 km/h (0 Bft) O 94 -3,1 C 0,0 km/h (0 Bft) 100 %
27.11.2018 19:34 -1,7 C 90 % 1022,1 hPa 0,0 l/m 0,0 km/h (0 Bft) O 94 -3,1 C 0,0 km/h (0 Bft) 100 %
27.11.2018 19:35 -1,7 C 90 % 1022,0 hPa 0,0 l/m 0,1 km/h (0 Bft) O 94 -3,1 C 3,1 km/h (1 Bft) 100 %
27.11.2018 19:36 -1,7 C 91 % 1022,0 hPa 0,0 l/m 0,0 km/h (0 Bft) O 94 -3,0 C 0,0 km/h (0 Bft) 100 %
27.11.2018 19:37 -1,7 C 91 % 1022,0 hPa 0,0 l/m 0,3 km/h (0 Bft) O-SO 106 -3,0 C 3,1 km/h (1 Bft) 100 %
27.11.2018 19:38 -1,7 C 91 % 1022,0 hPa 0,0 l/m 0,0 km/h (0 Bft) O-SO 106 -3,0 C 0,0 km/h (0 Bft) 100 %
27.11.2018 19:39 -1,7 C 91 % 1022,0 hPa 0,0 l/m 0,0 km/h (0 Bft) O-SO 106 -3,0 C 0,0 km/h (0 Bft) 100 %
27.11.2018 19:40 -1,7 C 91 % 1021,9 hPa 0,0 l/m 0,0 km/h (0 Bft) O-SO 106 -3,0 C 0,0 km/h (0 Bft) 100 %
27.11.2018 19:41 -1,7 C 91 % 1022,0 hPa 0,0 l/m 0,1 km/h (0 Bft) O-SO 106 -3,0 C 3,1 km/h (1 Bft) 100 %
27.11.2018 19:42 -1,8 C 91 % 1021,9 hPa 0,0 l/m 0,0 km/h (0 Bft) O-SO 105 -3,1 C 0,0 km/h (0 Bft) 100 %
27.11.2018 19:43 -1,8 C 91 % 1021,9 hPa 0,0 l/m 0,0 km/h (0 Bft) O-SO 106 -3,1 C 0,0 km/h (0 Bft) 100 %
27.11.2018 19:44 -1,8 C 91 % 1021,9 hPa 0,0 l/m 0,0 km/h (0 Bft) O-SO 106 -3,1 C 0,0 km/h (0 Bft) 100 %
27.11.2018 19:45 -1,8 C 91 % 1022,0 hPa 0,0 l/m 0,0 km/h (0 Bft) O-SO 106 -3,1 C 0,0 km/h (0 Bft) 100 %
27.11.2018 19:46 -1,8 C 91 % 1022,0 hPa 0,0 l/m 0,0 km/h (0 Bft) O-SO 106 -3,1 C 0,0 km/h (0 Bft) 100 %
27.11.2018 19:47 -1,8 C 91 % 1022,0 hPa 0,0 l/m 0,0 km/h (0 Bft) O-SO 105 -3,1 C 0,0 km/h (0 Bft) 100 %
27.11.2018 19:48 -1,8 C 91 % 1022,0 hPa 0,0 l/m 0,0 km/h (0 Bft) O-SO 106 -3,1 C 0,0 km/h (0 Bft) 100 %
27.11.2018 19:49 -1,8 C 91 % 1022,1 hPa 0,0 l/m 0,0 km/h (0 Bft) O-SO 106 -3,1 C 0,0 km/h (0 Bft) 100 %
27.11.2018 19:50 -1,9 C 91 % 1022,1 hPa 0,0 l/m 0,0 km/h (0 Bft) O-SO 106 -3,2 C 0,0 km/h (0 Bft) 100 %
27.11.2018 19:51 -1,9 C 91 % 1022,1 hPa 0,0 l/m 0,0 km/h (0 Bft) O-SO 106 -3,2 C 0,0 km/h (0 Bft) 100 %
27.11.2018 19:52 -1,9 C 91 % 1022,1 hPa 0,0 l/m 0,0 km/h (0 Bft) O-SO 106 -3,2 C 0,0 km/h (0 Bft) 100 %
27.11.2018 19:53 -1,9 C 91 % 1022,1 hPa 0,0 l/m 0,0 km/h (0 Bft) O-SO 106 -3,2 C 0,0 km/h (0 Bft) 100 %
27.11.2018 19:54 -1,9 C 91 % 1022,1 hPa 0,0 l/m 0,0 km/h (0 Bft) O-SO 106 -3,2 C 0,0 km/h (0 Bft) 100 %
27.11.2018 19:55 -1,9 C 91 % 1022,1 hPa 0,0 l/m 0,0 km/h (0 Bft) O-SO 105 -3,2 C 0,0 km/h (0 Bft) 100 %
27.11.2018 19:56 -1,9 C 92 % 1022,1 hPa 0,0 l/m 0,0 km/h (0 Bft) O-SO 106 -3,0 C 0,0 km/h (0 Bft) 100 %
27.11.2018 19:57 -2,0 C 92 % 1022,2 hPa 0,0 l/m 0,0 km/h (0 Bft) O-SO 106 -3,1 C 0,0 km/h (0 Bft) 100 %
27.11.2018 19:58 -2,0 C 92 % 1022,2 hPa 0,0 l/m 0,0 km/h (0 Bft) O-SO 106 -3,1 C 0,0 km/h (0 Bft) 100 %
27.11.2018 19:59 -2,0 C 92 % 1022,2 hPa 0,0 l/m 0,0 km/h (0 Bft) O-SO 106 -3,1 C 0,0 km/h (0 Bft) 100 %
27.11.2018 20:00 -2,1 C 91 % 1022,2 hPa 0,0 l/m 0,0 km/h (0 Bft) O-SO 106 -3,4 C 0,0 km/h (0 Bft) 100 %
27.11.2018 20:01 -2,1 C 91 % 1022,2 hPa 0,0 l/m 0,0 km/h (0 Bft) O-SO 106 -3,4 C 0,0 km/h (0 Bft) 100 %
27.11.2018 20:02 -2,1 C 91 % 1022,3 hPa 0,0 l/m 0,0 km/h (0 Bft) O-SO 105 -3,4 C 0,0 km/h (0 Bft) 100 %
27.11.2018 20:03 -2,2 C 91 % 1022,3 hPa 0,0 l/m 0,0 km/h (0 Bft) O-SO 106 -3,5 C 0,0 km/h (0 Bft) 100 %
27.11.2018 20:04 -2,2 C 91 % 1022,3 hPa 0,0 l/m 0,0 km/h (0 Bft) O-SO 106 -3,5 C 0,0 km/h (0 Bft) 100 %
27.11.2018 20:05 -2,3 C 91 % 1022,3 hPa 0,0 l/m 0,0 km/h (0 Bft) O-SO 106 -3,6 C 0,0 km/h (0 Bft) 100 %
27.11.2018 20:06 -2,3 C 91 % 1022,3 hPa 0,0 l/m 0,0 km/h (0 Bft) O-SO 106 -3,6 C 0,0 km/h (0 Bft) 100 %
27.11.2018 20:07 -2,3 C 91 % 1022,3 hPa 0,0 l/m 0,0 km/h (0 Bft) O-SO 106 -3,6 C 0,0 km/h (0 Bft) 100 %
27.11.2018 20:08 -2,4 C 92 % 1022,3 hPa 0,0 l/m 0,0 km/h (0 Bft) O-SO 106 -3,5 C 0,0 km/h (0 Bft) 100 %
27.11.2018 20:09 -2,4 C 92 % 1022,2 hPa 0,0 l/m 0,0 km/h (0 Bft) O-SO 105 -3,5 C 0,0 km/h (0 Bft) 100 %
27.11.2018 20:10 -2,4 C 92 % 1022,2 hPa 0,0 l/m 0,0 km/h (0 Bft) O-SO 106 -3,5 C 0,0 km/h (0 Bft) 100 %
27.11.2018 20:11 -2,4 C 92 % 1022,2 hPa 0,0 l/m 0,0 km/h (0 Bft) O-SO 106 -3,5 C 0,0 km/h (0 Bft) 100 %
27.11.2018 20:12 -2,4 C 92 % 1022,2 hPa 0,0 l/m 0,0 km/h (0 Bft) O-SO 105 -3,5 C 0,0 km/h (0 Bft) 96 %
27.11.2018 20:13 -2,4 C 92 % 1022,3 hPa 0,0 l/m 0,0 km/h (0 Bft) O-SO 106 -3,5 C 0,0 km/h (0 Bft) 100 %
27.11.2018 20:14 -2,4 C 92 % 1022,2 hPa 0,0 l/m 0,2 km/h (0 Bft) O 83 -3,5 C 3,1 km/h (1 Bft) 100 %
27.11.2018 20:15 -2,4 C 93 % 1022,3 hPa 0,0 l/m 1,6 km/h (1 Bft) O 87 -3,4 C 3,1 km/h (1 Bft) 100 %
27.11.2018 20:16 -2,3 C 93 % 1022,2 hPa 0,0 l/m 0,3 km/h (0 Bft) O 87 -3,3 C 3,1 km/h (1 Bft) 100 %
27.11.2018 20:17 -2,3 C 93 % 1022,2 hPa 0,0 l/m 0,1 km/h (0 Bft) O 88 -3,3 C 3,1 km/h (1 Bft) 100 %
27.11.2018 20:18 -2,3 C 93 % 1022,2 hPa 0,0 l/m 0,4 km/h (0 Bft) O-NO 65 -3,3 C 3,1 km/h (1 Bft) 100 %
27.11.2018 20:19 -2,3 C 93 % 1022,2 hPa 0,0 l/m 1,8 km/h (1 Bft) O-SO 115 -3,3 C 3,1 km/h (1 Bft) 100 %
27.11.2018 20:20 -2,2 C 93 % 1022,2 hPa 0,0 l/m 0,2 km/h (0 Bft) O-SO 113 -3,2 C 3,1 km/h (1 Bft) 100 %
27.11.2018 20:21 -2,2 C 93 % 1022,2 hPa 0,0 l/m 0,0 km/h (0 Bft) O-SO 113 -3,2 C 0,0 km/h (0 Bft) 100 %
27.11.2018 20:22 -2,2 C 93 % 1022,2 hPa 0,0 l/m 0,0 km/h (0 Bft) O-NO 74 -3,2 C 0,0 km/h (0 Bft) 100 %
27.11.2018 20:23 -2,2 C 93 % 1022,2 hPa 0,0 l/m 0,3 km/h (0 Bft) O-NO 74 -3,2 C 3,1 km/h (1 Bft) 100 %
27.11.2018 20:24 -2,2 C 93 % 1022,3 hPa 0,0 l/m 0,8 km/h (0 Bft) O 88 -3,2 C 6,3 km/h (2 Bft) 100 %
27.11.2018 20:25 -2,2 C 93 % 1022,3 hPa 0,0 l/m 1,6 km/h (1 Bft) O-SO 105 -3,2 C 6,3 km/h (2 Bft) 100 %
27.11.2018 20:26 -2,1 C 93 % 1022,3 hPa 0,0 l/m 1,7 km/h (1 Bft) O-NO 75 -3,1 C 6,3 km/h (2 Bft) 100 %
27.11.2018 20:27 -2,1 C 93 % 1022,3 hPa 0,0 l/m 3,9 km/h (1 Bft) O-NO 70 -3,1 C 6,3 km/h (2 Bft) 100 %
27.11.2018 20:28 -2,1 C 93 % 1022,3 hPa 0,0 l/m 0,5 km/h (0 Bft) O 79 -3,1 C 6,3 km/h (2 Bft) 100 %
27.11.2018 20:29 -2,1 C 93 % 1022,4 hPa 0,0 l/m 0,3 km/h (0 Bft) O 79 -3,1 C 3,1 km/h (1 Bft) 100 %
27.11.2018 20:30 -2,1 C 93 % 1022,4 hPa 0,0 l/m 0,0 km/h (0 Bft) O 79 -3,1 C 0,0 km/h (0 Bft) 100 %
27.11.2018 20:31 -2,1 C 93 % 1022,4 hPa 0,0 l/m 0,0 km/h (0 Bft) O 79 -3,1 C 0,0 km/h (0 Bft) 100 %
27.11.2018 20:32 -2,1 C 93 % 1022,5 hPa 0,0 l/m 0,1 km/h (0 Bft) O 86 -3,1 C 3,1 km/h (1 Bft) 91 %
27.11.2018 20:33 -2,1 C 92 % 1022,5 hPa 0,0 l/m 0,0 km/h (0 Bft) O 86 -3,2 C 0,0 km/h (0 Bft) 100 %
27.11.2018 20:34 -2,1 C 92 % 1022,5 hPa 0,0 l/m 0,0 km/h (0 Bft) O 86 -3,2 C 0,0 km/h (0 Bft) 100 %
27.11.2018 20:35 -2,1 C 92 % 1022,5 hPa 0,0 l/m 0,3 km/h (0 Bft) O-NO 66 -3,2 C 3,1 km/h (1 Bft) 100 %
27.11.2018 20:36 -2,1 C 92 % 1022,5 hPa 0,0 l/m 0,9 km/h (0 Bft) O-SO 112 -3,2 C 3,1 km/h (1 Bft) 100 %
27.11.2018 20:37 -2,1 C 92 % 1022,4 hPa 0,0 l/m 0,3 km/h (0 Bft) O 84 -3,2 C 3,1 km/h (1 Bft) 100 %
27.11.2018 20:38 -2,1 C 92 % 1022,4 hPa 0,0 l/m 0,7 km/h (0 Bft) O 95 -3,2 C 3,1 km/h (1 Bft) 100 %
27.11.2018 20:39 -2,1 C 92 % 1022,4 hPa 0,0 l/m 0,3 km/h (0 Bft) O-NO 60 -3,2 C 3,1 km/h (1 Bft) 100 %
27.11.2018 20:40 -2,1 C 92 % 1022,4 hPa 0,0 l/m 0,9 km/h (0 Bft) O-NO 70 -3,2 C 3,1 km/h (1 Bft) 100 %
27.11.2018 20:41 -2,1 C 93 % 1022,4 hPa 0,0 l/m 3,9 km/h (1 Bft) O-SO 108 -3,1 C 9,4 km/h (2 Bft) 100 %
27.11.2018 20:42 -2,1 C 93 % 1022,4 hPa 0,0 l/m 3,6 km/h (1 Bft) O-SO 112 -3,1 C 9,4 km/h (2 Bft) 100 %
27.11.2018 20:43 -2,0 C 93 % 1022,4 hPa 0,0 l/m 0,7 km/h (0 Bft) O-SO 110 -3,0 C 3,1 km/h (1 Bft) 100 %
27.11.2018 20:44 -2,0 C 93 % 1022,3 hPa 0,0 l/m 0,0 km/h (0 Bft) O-SO 110 -3,0 C 0,0 km/h (0 Bft) 100 %
27.11.2018 20:45 -2,0 C 92 % 1022,4 hPa 0,0 l/m 1,4 km/h (1 Bft) NO 44 -3,1 C 6,3 km/h (2 Bft) 100 %
27.11.2018 20:46 -2,0 C 92 % 1022,3 hPa 0,0 l/m 0,0 km/h (0 Bft) NO 44 -3,1 C 0,0 km/h (0 Bft) 100 %
27.11.2018 20:47 -2,0 C 92 % 1022,2 hPa 0,0 l/m 0,3 km/h (0 Bft) O-NO 72 -3,1 C 3,1 km/h (1 Bft) 100 %
27.11.2018 20:48 -2,0 C 92 % 1022,3 hPa 0,0 l/m 0,4 km/h (0 Bft) O-SO 110 -3,1 C 3,1 km/h (1 Bft) 100 %
27.11.2018 20:49 -2,0 C 92 % 1022,2 hPa 0,0 l/m 1,2 km/h (1 Bft) O 84 -3,1 C 3,1 km/h (1 Bft) 100 %
27.11.2018 20:50 -2,1 C 92 % 1022,2 hPa 0,0 l/m 0,0 km/h (0 Bft) O 83 -3,2 C 0,0 km/h (0 Bft) 100 %
27.11.2018 20:51 -2,1 C 92 % 1022,2 hPa 0,0 l/m 0,5 km/h (0 Bft) O 87 -3,2 C 3,1 km/h (1 Bft) 100 %
27.11.2018 20:52 -2,1 C 92 % 1022,2 hPa 0,0 l/m 0,8 km/h (0 Bft) O 90 -3,2 C 3,1 km/h (1 Bft) 100 %
27.11.2018 20:53 -2,1 C 92 % 1022,2 hPa 0,0 l/m 3,0 km/h (1 Bft) O 80 -3,2 C 12,6 km/h (3 Bft) 100 %
27.11.2018 20:54 -2,1 C 92 % 1022,3 hPa 0,0 l/m 2,0 km/h (1 Bft) O-NO 73 -3,2 C 3,1 km/h (1 Bft) 100 %
27.11.2018 20:55 -2,1 C 92 % 1022,3 hPa 0,0 l/m 1,3 km/h (1 Bft) NO 50 -3,2 C 6,3 km/h (2 Bft) 100 %
27.11.2018 20:56 -2,1 C 92 % 1022,3 hPa 0,0 l/m 1,6 km/h (1 Bft) O-SO 105 -3,2 C 3,1 km/h (1 Bft) 100 %
27.11.2018 20:57 -2,1 C 92 % 1022,3 hPa 0,0 l/m 0,1 km/h (0 Bft) O-SO 108 -3,2 C 3,1 km/h (1 Bft) 100 %
27.11.2018 20:58 -2,1 C 92 % 1022,3 hPa 0,0 l/m 0,0 km/h (0 Bft) O-SO 108 -3,2 C 0,0 km/h (0 Bft) 100 %
27.11.2018 20:59 -2,1 C 92 % 1022,3 hPa 0,0 l/m 0,1 km/h (0 Bft) O-SO 115 -3,2 C 3,1 km/h (1 Bft) 100 %
27.11.2018 21:00 -2,1 C 92 % 1022,2 hPa 0,0 l/m 3,8 km/h (1 Bft) O-SO 105 -3,2 C 12,6 km/h (3 Bft) 100 %
27.11.2018 21:01 -2,1 C 92 % 1022,2 hPa 0,0 l/m 1,0 km/h (0 Bft) O 87 -3,2 C 9,4 km/h (2 Bft) 100 %
27.11.2018 21:02 -2,1 C 92 % 1022,2 hPa 0,0 l/m 0,9 km/h (0 Bft) O 82 -3,2 C 6,3 km/h (2 Bft) 100 %
27.11.2018 21:03 -2,1 C 92 % 1022,2 hPa 0,0 l/m 0,0 km/h (0 Bft) O 82 -3,2 C 0,0 km/h (0 Bft) 100 %
27.11.2018 21:04 -2,1 C 92 % 1022,2 hPa 0,0 l/m 2,1 km/h (1 Bft) O 84 -3,2 C 6,3 km/h (2 Bft) 100 %
27.11.2018 21:05 -2,2 C 92 % 1022,2 hPa 0,0 l/m 0,5 km/h (0 Bft) O-SO 112 -3,3 C 3,1 km/h (1 Bft) 100 %
27.11.2018 21:06 -2,2 C 92 % 1022,2 hPa 0,0 l/m 0,1 km/h (0 Bft) O-SO 107 -3,3 C 3,1 km/h (1 Bft) 100 %
27.11.2018 21:07 -2,2 C 92 % 1022,2 hPa 0,0 l/m 0,0 km/h (0 Bft) O 98 -3,3 C 0,0 km/h (0 Bft) 100 %
27.11.2018 21:08 -2,2 C 92 % 1022,2 hPa 0,0 l/m 0,0 km/h (0 Bft) O 88 -3,3 C 0,0 km/h (0 Bft) 100 %
27.11.2018 21:09 -2,2 C 92 % 1022,3 hPa 0,0 l/m 0,0 km/h (0 Bft) O 88 -3,3 C 0,0 km/h (0 Bft) 100 %
27.11.2018 21:10 -2,2 C 92 % 1022,4 hPa 0,0 l/m 6,0 km/h (2 Bft) SO 127 -3,3 C 12,6 km/h (3 Bft) 100 %
27.11.2018 21:11 -2,2 C 92 % 1022,4 hPa 0,0 l/m 0,2 km/h (0 Bft) O-SO 120 -3,3 C 3,1 km/h (1 Bft) 100 %
27.11.2018 21:12 -2,2 C 92 % 1022,4 hPa 0,0 l/m 1,9 km/h (1 Bft) O-NO 77 -3,3 C 9,4 km/h (2 Bft) 100 %
27.11.2018 21:13 -2,2 C 92 % 1022,4 hPa 0,0 l/m 0,4 km/h (0 Bft) O 88 -3,3 C 3,1 km/h (1 Bft) 100 %
27.11.2018 21:14 -2,2 C 92 % 1022,4 hPa 0,0 l/m 2,6 km/h (1 Bft) O-NO 76 -3,3 C 12,6 km/h (3 Bft) 100 %
27.11.2018 21:15 -2,2 C 92 % 1022,4 hPa 0,0 l/m 1,6 km/h (1 Bft) SO 126 -3,3 C 6,3 km/h (2 Bft) 100 %
27.11.2018 21:16 -2,2 C 92 % 1022,4 hPa 0,0 l/m 0,0 km/h (0 Bft) SO 135 -3,3 C 0,0 km/h (0 Bft) 100 %
27.11.2018 21:17 -2,2 C 92 % 1022,3 hPa 0,0 l/m 2,5 km/h (1 Bft) O 98 -3,3 C 9,4 km/h (2 Bft) 93 %
27.11.2018 21:18 -2,2 C 92 % 1022,3 hPa 0,0 l/m 0,4 km/h (0 Bft) SO 129 -3,3 C 3,1 km/h (1 Bft) 100 %
27.11.2018 21:19 -2,2 C 92 % 1022,3 hPa 0,0 l/m 0,8 km/h (0 Bft) O 84 -3,3 C 3,1 km/h (1 Bft) 96 %
27.11.2018 21:20 -2,2 C 92 % 1022,4 hPa 0,0 l/m 1,9 km/h (1 Bft) O-NO 65 -3,3 C 6,3 km/h (2 Bft) 96 %
27.11.2018 21:21 -2,2 C 92 % 1022,3 hPa 0,0 l/m 1,6 km/h (1 Bft) O 89 -3,3 C 12,6 km/h (3 Bft) 100 %
27.11.2018 21:22 -2,2 C 93 % 1022,4 hPa 0,0 l/m 3,9 km/h (1 Bft) O-NO 71 -3,2 C 9,4 km/h (2 Bft) 96 %
27.11.2018 21:23 -2,2 C 93 % 1022,4 hPa 0,0 l/m 2,9 km/h (1 Bft) O 85 -3,2 C 9,4 km/h (2 Bft) 100 %
27.11.2018 21:24 -2,2 C 93 % 1022,4 hPa 0,0 l/m 1,6 km/h (1 Bft) O 85 -3,2 C 6,3 km/h (2 Bft) 96 %
27.11.2018 21:25 -2,2 C 92 % 1022,4 hPa 0,0 l/m 2,6 km/h (1 Bft) O 101 -3,3 C 12,6 km/h (3 Bft) 100 %
27.11.2018 21:26 -2,2 C 92 % 1022,4 hPa 0,0 l/m 1,6 km/h (1 Bft) NO 56 -3,3 C 6,3 km/h (2 Bft) 96 %
27.11.2018 21:27 -2,2 C 92 % 1022,4 hPa 0,0 l/m 2,3 km/h (1 Bft) NO 50 -3,3 C 6,3 km/h (2 Bft) 96 %
27.11.2018 21:28 -2,2 C 92 % 1022,4 hPa 0,0 l/m 0,0 km/h (0 Bft) NO 53 -3,3 C 0,0 km/h (0 Bft) 100 %
27.11.2018 21:29 -2,2 C 92 % 1022,4 hPa 0,0 l/m 0,0 km/h (0 Bft) NO 53 -3,3 C 0,0 km/h (0 Bft) 96 %
27.11.2018 21:30 -2,2 C 92 % 1022,4 hPa 0,0 l/m 0,1 km/h (0 Bft) O-NO 66 -3,3 C 3,1 km/h (1 Bft) 100 %
27.11.2018 21:31 -2,2 C 92 % 1022,4 hPa 0,0 l/m 1,4 km/h (1 Bft) O-SO 111 -3,3 C 9,4 km/h (2 Bft) 96 %
27.11.2018 21:32 -2,2 C 92 % 1022,4 hPa 0,0 l/m 0,0 km/h (0 Bft) O-SO 109 -3,3 C 0,0 km/h (0 Bft) 100 %
27.11.2018 21:33 -2,2 C 92 % 1022,5 hPa 0,0 l/m 0,8 km/h (0 Bft) O-NO 68 -3,3 C 3,1 km/h (1 Bft) 91 %
27.11.2018 21:34 -2,3 C 92 % 1022,4 hPa 0,0 l/m 0,0 km/h (0 Bft) O-NO 70 -3,4 C 0,0 km/h (0 Bft) 96 %
27.11.2018 21:35 -2,3 C 92 % 1022,4 hPa 0,0 l/m 0,0 km/h (0 Bft) O-NO 70 -3,4 C 0,0 km/h (0 Bft) 100 %
27.11.2018 21:36 -2,3 C 92 % 1022,5 hPa 0,0 l/m 0,1 km/h (0 Bft) O-NO 70 -3,4 C 3,1 km/h (1 Bft) 96 %
27.11.2018 21:37 -2,3 C 92 % 1022,5 hPa 0,0 l/m 0,0 km/h (0 Bft) O-NO 70 -3,4 C 0,0 km/h (0 Bft) 100 %
27.11.2018 21:38 -2,3 C 92 % 1022,4 hPa 0,0 l/m 0,5 km/h (0 Bft) O-SO 112 -3,4 C 3,1 km/h (1 Bft) 96 %
27.11.2018 21:39 -2,4 C 92 % 1022,5 hPa 0,0 l/m 0,0 km/h (0 Bft) O-SO 112 -3,5 C 0,0 km/h (0 Bft) 100 %
27.11.2018 21:40 -2,4 C 92 % 1022,5 hPa 0,0 l/m 0,0 km/h (0 Bft) O-SO 112 -3,5 C 0,0 km/h (0 Bft) 99 %
27.11.2018 21:41 -2,4 C 92 % 1022,5 hPa 0,0 l/m 0,0 km/h (0 Bft) O-SO 111 -3,5 C 0,0 km/h (0 Bft) 100 %
27.11.2018 21:42 -2,4 C 92 % 1022,5 hPa 0,0 l/m 0,0 km/h (0 Bft) O-SO 111 -3,5 C 0,0 km/h (0 Bft) 100 %
27.11.2018 21:43 -2,4 C 92 % 1022,5 hPa 0,0 l/m 0,1 km/h (0 Bft) O 96 -3,5 C 3,1 km/h (1 Bft) 100 %
27.11.2018 21:44 -2,5 C 92 % 1022,5 hPa 0,0 l/m 1,7 km/h (1 Bft) O 81 -3,6 C 3,1 km/h (1 Bft) 100 %
27.11.2018 21:45 -2,5 C 92 % 1022,5 hPa 0,0 l/m 0,4 km/h (0 Bft) S-SO 167 -3,6 C 3,1 km/h (1 Bft) 100 %
27.11.2018 21:46 -2,5 C 92 % 1022,4 hPa 0,0 l/m 0,0 km/h (0 Bft) S-SO 167 -3,6 C 0,0 km/h (0 Bft) 100 %
27.11.2018 21:47 -2,6 C 92 % 1022,5 hPa 0,0 l/m 0,0 km/h (0 Bft) S-SO 167 -3,7 C 0,0 km/h (0 Bft) 96 %
27.11.2018 21:48 -2,6 C 92 % 1022,5 hPa 0,0 l/m 0,5 km/h (0 Bft) N-NO 23 -3,7 C 3,1 km/h (1 Bft) 100 %
27.11.2018 21:49 -2,6 C 92 % 1022,5 hPa 0,0 l/m 0,0 km/h (0 Bft) N-NO 23 -3,7 C 0,0 km/h (0 Bft) 96 %
27.11.2018 21:50 -2,6 C 92 % 1022,5 hPa 0,0 l/m 0,0 km/h (0 Bft) N-NO 25 -3,7 C 0,0 km/h (0 Bft) 100 %
27.11.2018 21:51 -2,6 C 92 % 1022,5 hPa 0,0 l/m 0,0 km/h (0 Bft) N-NO 25 -3,7 C 0,0 km/h (0 Bft) 100 %
27.11.2018 21:52 -2,6 C 92 % 1022,5 hPa 0,0 l/m 0,0 km/h (0 Bft) N-NO 25 -3,7 C 0,0 km/h (0 Bft) 100 %
27.11.2018 21:53 -2,7 C 92 % 1022,5 hPa 0,0 l/m 0,0 km/h (0 Bft) N-NO 25 -3,8 C 0,0 km/h (0 Bft) 100 %
27.11.2018 21:54 -2,7 C 92 % 1022,5 hPa 0,0 l/m 0,0 km/h (0 Bft) N-NO 25 -3,8 C 0,0 km/h (0 Bft) 100 %
27.11.2018 21:55 -2,7 C 92 % 1022,5 hPa 0,0 l/m 0,6 km/h (0 Bft) NO 54 -3,8 C 6,3 km/h (2 Bft) 99 %
27.11.2018 21:56 -2,7 C 92 % 1022,5 hPa 0,0 l/m 1,6 km/h (1 Bft) SO 124 -3,8 C 6,3 km/h (2 Bft) 100 %
27.11.2018 21:57 -2,7 C 92 % 1022,4 hPa 0,0 l/m 0,3 km/h (0 Bft) W 276 -3,8 C 3,1 km/h (1 Bft) 100 %
27.11.2018 21:58 -2,7 C 92 % 1022,5 hPa 0,0 l/m 0,0 km/h (0 Bft) W 276 -3,8 C 0,0 km/h (0 Bft) 100 %
27.11.2018 21:59 -2,7 C 92 % 1022,5 hPa 0,0 l/m 1,2 km/h (1 Bft) O 93 -3,8 C 3,1 km/h (1 Bft) 100 %
27.11.2018 22:00 -2,7 C 92 % 1022,5 hPa 0,0 l/m 0,1 km/h (0 Bft) O 93 -3,8 C 3,1 km/h (1 Bft) 100 %
27.11.2018 22:01 -2,7 C 92 % 1022,5 hPa 0,0 l/m 0,2 km/h (0 Bft) O-NO 73 -3,8 C 3,1 km/h (1 Bft) 100 %
27.11.2018 22:02 -2,7 C 92 % 1022,5 hPa 0,0 l/m 0,9 km/h (0 Bft) SO 124 -3,8 C 3,1 km/h (1 Bft) 100 %
27.11.2018 22:03 -2,7 C 92 % 1022,5 hPa 0,0 l/m 0,0 km/h (0 Bft) SO 124 -3,8 C 0,0 km/h (0 Bft) 100 %
27.11.2018 22:04 -2,7 C 92 % 1022,5 hPa 0,0 l/m 0,0 km/h (0 Bft) SO 124 -3,8 C 0,0 km/h (0 Bft) 100 %
27.11.2018 22:05 -2,7 C 92 % 1022,6 hPa 0,0 l/m 0,0 km/h (0 Bft) O-SO 123 -3,8 C 0,0 km/h (0 Bft) 100 %
27.11.2018 22:06 -2,7 C 92 % 1022,6 hPa 0,0 l/m 0,0 km/h (0 Bft) O-SO 123 -3,8 C 0,0 km/h (0 Bft) 100 %
27.11.2018 22:07 -2,7 C 92 % 1022,6 hPa 0,0 l/m 1,1 km/h (1 Bft) O 96 -3,8 C 6,3 km/h (2 Bft) 100 %
27.11.2018 22:08 -2,7 C 92 % 1022,7 hPa 0,0 l/m 0,3 km/h (0 Bft) O-NO 67 -3,8 C 3,1 km/h (1 Bft) 100 %
27.11.2018 22:09 -2,8 C 92 % 1022,7 hPa 0,0 l/m 2,5 km/h (1 Bft) O-SO 108 -3,9 C 9,4 km/h (2 Bft) 100 %
27.11.2018 22:10 -2,7 C 92 % 1022,7 hPa 0,0 l/m 0,7 km/h (0 Bft) O-SO 108 -3,8 C 6,3 km/h (2 Bft) 100 %
27.11.2018 22:11 -2,7 C 92 % 1022,8 hPa 0,0 l/m 0,3 km/h (0 Bft) O 88 -3,8 C 3,1 km/h (1 Bft) 100 %
27.11.2018 22:12 -2,7 C 92 % 1022,9 hPa 0,0 l/m 0,0 km/h (0 Bft) O 89 -3,8 C 0,0 km/h (0 Bft) 100 %
27.11.2018 22:13 -2,7 C 92 % 1022,9 hPa 0,0 l/m 0,0 km/h (0 Bft) O 89 -3,8 C 0,0 km/h (0 Bft) 100 %
27.11.2018 22:14 -2,7 C 92 % 1022,9 hPa 0,0 l/m 0,0 km/h (0 Bft) O 89 -3,8 C 0,0 km/h (0 Bft) 100 %
27.11.2018 22:15 -2,7 C 92 % 1022,9 hPa 0,0 l/m 2,6 km/h (1 Bft) O 99 -3,8 C 9,4 km/h (2 Bft) 100 %
27.11.2018 22:16 -2,7 C 93 % 1022,9 hPa 0,0 l/m 0,0 km/h (0 Bft) S-SW 192 -3,7 C 0,0 km/h (0 Bft) 100 %
27.11.2018 22:17 -2,7 C 93 % 1022,9 hPa 0,0 l/m 1,0 km/h (0 Bft) SO 131 -3,7 C 6,3 km/h (2 Bft) 100 %
27.11.2018 22:18 -2,7 C 93 % 1022,9 hPa 0,0 l/m 0,0 km/h (0 Bft) SO 131 -3,7 C 0,0 km/h (0 Bft) 100 %
27.11.2018 22:19 -2,7 C 92 % 1022,9 hPa 0,0 l/m 0,0 km/h (0 Bft) SO 131 -3,8 C 0,0 km/h (0 Bft) 100 %
27.11.2018 22:20 -2,7 C 92 % 1022,9 hPa 0,0 l/m 0,1 km/h (0 Bft) SO 129 -3,8 C 3,1 km/h (1 Bft) 100 %
27.11.2018 22:21 -2,6 C 92 % 1022,9 hPa 0,0 l/m 0,0 km/h (0 Bft) SO 130 -3,7 C 0,0 km/h (0 Bft) 100 %
27.11.2018 22:22 -2,6 C 92 % 1022,9 hPa 0,0 l/m 0,1 km/h (0 Bft) SO 129 -3,7 C 3,1 km/h (1 Bft) 100 %
27.11.2018 22:23 -2,7 C 92 % 1022,9 hPa 0,0 l/m 0,0 km/h (0 Bft) SO 129 -3,8 C 0,0 km/h (0 Bft) 93 %
27.11.2018 22:24 -2,6 C 92 % 1022,9 hPa 0,0 l/m 0,0 km/h (0 Bft) SO 129 -3,7 C 0,0 km/h (0 Bft) 100 %
27.11.2018 22:25 -2,6 C 92 % 1022,9 hPa 0,0 l/m 0,8 km/h (0 Bft) O-NO 70 -3,7 C 3,1 km/h (1 Bft) 100 %
27.11.2018 22:26 -2,6 C 93 % 1022,9 hPa 0,0 l/m 0,0 km/h (0 Bft) O-NO 70 -3,6 C 0,0 km/h (0 Bft) 100 %
27.11.2018 22:27 -2,6 C 93 % 1022,9 hPa 0,0 l/m 0,0 km/h (0 Bft) O-NO 70 -3,6 C 0,0 km/h (0 Bft) 100 %
27.11.2018 22:28 -2,6 C 92 % 1022,9 hPa 0,0 l/m 1,0 km/h (0 Bft) O 79 -3,7 C 6,3 km/h (2 Bft) 100 %
27.11.2018 22:29 -2,5 C 93 % 1022,9 hPa 0,0 l/m 0,1 km/h (0 Bft) O 79 -3,5 C 3,1 km/h (1 Bft) 100 %
27.11.2018 22:30 -2,5 C 92 % 1022,9 hPa 0,0 l/m 0,9 km/h (0 Bft) SO 140 -3,6 C 6,3 km/h (2 Bft) 100 %
27.11.2018 22:31 -2,5 C 92 % 1022,9 hPa 0,0 l/m 1,8 km/h (1 Bft) SO 126 -3,6 C 9,4 km/h (2 Bft) 100 %
27.11.2018 22:32 -2,4 C 92 % 1022,9 hPa 0,0 l/m 0,0 km/h (0 Bft) SO 126 -3,5 C 0,0 km/h (0 Bft) 100 %
27.11.2018 22:33 -2,4 C 92 % 1022,8 hPa 0,0 l/m 0,0 km/h (0 Bft) SO 126 -3,5 C 0,0 km/h (0 Bft) 100 %
27.11.2018 22:34 -2,4 C 92 % 1022,9 hPa 0,0 l/m 0,8 km/h (0 Bft) O 97 -3,5 C 3,1 km/h (1 Bft) 100 %
27.11.2018 22:35 -2,4 C 92 % 1022,9 hPa 0,0 l/m 1,0 km/h (0 Bft) SO 130 -3,5 C 6,3 km/h (2 Bft) 100 %
27.11.2018 22:36 -2,4 C 92 % 1022,9 hPa 0,0 l/m 0,0 km/h (0 Bft) SO 130 -3,5 C 0,0 km/h (0 Bft) 100 %
27.11.2018 22:37 -2,4 C 92 % 1022,9 hPa 0,0 l/m 0,9 km/h (0 Bft) O 96 -3,5 C 3,1 km/h (1 Bft) 100 %
27.11.2018 22:38 -2,4 C 92 % 1022,9 hPa 0,0 l/m 0,8 km/h (0 Bft) O-SO 106 -3,5 C 3,1 km/h (1 Bft) 100 %
27.11.2018 22:39 -2,4 C 92 % 1022,9 hPa 0,0 l/m 0,0 km/h (0 Bft) O-SO 106 -3,5 C 0,0 km/h (0 Bft) 100 %
27.11.2018 22:40 -2,3 C 92 % 1022,9 hPa 0,0 l/m 0,0 km/h (0 Bft) O-SO 106 -3,4 C 0,0 km/h (0 Bft) 100 %
27.11.2018 22:41 -2,4 C 91 % 1022,8 hPa 0,0 l/m 0,0 km/h (0 Bft) O-SO 106 -3,7 C 0,0 km/h (0 Bft) 100 %
27.11.2018 22:42 -2,4 C 91 % 1022,7 hPa 0,0 l/m 0,0 km/h (0 Bft) NO 51 -3,7 C 0,0 km/h (0 Bft) 100 %
27.11.2018 22:43 -2,4 C 91 % 1022,8 hPa 0,0 l/m 0,1 km/h (0 Bft) O-NO 59 -3,7 C 3,1 km/h (1 Bft) 100 %
27.11.2018 22:44 -2,4 C 91 % 1022,7 hPa 0,0 l/m 0,0 km/h (0 Bft) O-NO 59 -3,7 C 0,0 km/h (0 Bft) 100 %
27.11.2018 22:45 -2,4 C 91 % 1022,8 hPa 0,0 l/m 0,0 km/h (0 Bft) O-NO 77 -3,7 C 0,0 km/h (0 Bft) 100 %
27.11.2018 22:46 -2,4 C 91 % 1022,7 hPa 0,0 l/m 0,0 km/h (0 Bft) O-NO 77 -3,7 C 0,0 km/h (0 Bft) 100 %
27.11.2018 22:47 -2,4 C 91 % 1022,8 hPa 0,0 l/m 0,0 km/h (0 Bft) O-NO 77 -3,7 C 0,0 km/h (0 Bft) 100 %
27.11.2018 22:48 -2,4 C 91 % 1022,7 hPa 0,0 l/m 0,8 km/h (0 Bft) O-NO 75 -3,7 C 3,1 km/h (1 Bft) 100 %
27.11.2018 22:49 -2,4 C 91 % 1022,7 hPa 0,0 l/m 0,0 km/h (0 Bft) O-NO 75 -3,7 C 0,0 km/h (0 Bft) 100 %
27.11.2018 22:50 -2,4 C 91 % 1022,7 hPa 0,0 l/m 0,0 km/h (0 Bft) O-NO 75 -3,7 C 0,0 km/h (0 Bft) 100 %
27.11.2018 22:51 -2,4 C 91 % 1022,7 hPa 0,0 l/m 0,6 km/h (0 Bft) O 90 -3,7 C 3,1 km/h (1 Bft) 96 %
27.11.2018 22:52 -2,4 C 91 % 1022,7 hPa 0,0 l/m 0,1 km/h (0 Bft) O 89 -3,7 C 3,1 km/h (1 Bft) 100 %
27.11.2018 22:53 -2,4 C 91 % 1022,8 hPa 0,0 l/m 0,8 km/h (0 Bft) O 79 -3,7 C 3,1 km/h (1 Bft) 100 %
27.11.2018 22:54 -2,4 C 91 % 1022,7 hPa 0,0 l/m 0,2 km/h (0 Bft) O 79 -3,7 C 3,1 km/h (1 Bft) 100 %
27.11.2018 22:55 -2,4 C 91 % 1022,7 hPa 0,0 l/m 0,3 km/h (0 Bft) O-NO 77 -3,7 C 3,1 km/h (1 Bft) 100 %
27.11.2018 22:56 -2,4 C 91 % 1022,7 hPa 0,0 l/m 0,0 km/h (0 Bft) O 97 -3,7 C 0,0 km/h (0 Bft) 100 %
27.11.2018 22:57 -2,5 C 91 % 1022,7 hPa 0,0 l/m 0,0 km/h (0 Bft) O 97 -3,8 C 0,0 km/h (0 Bft) 100 %
27.11.2018 22:58 -2,5 C 91 % 1022,7 hPa 0,0 l/m 1,4 km/h (1 Bft) O 91 -3,8 C 9,4 km/h (2 Bft) 100 %
27.11.2018 22:59 -2,5 C 91 % 1022,7 hPa 0,0 l/m 0,0 km/h (0 Bft) O 86 -3,8 C 0,0 km/h (0 Bft) 100 %
27.11.2018 23:00 -2,5 C 91 % 1022,7 hPa 0,0 l/m 0,0 km/h (0 Bft) O 86 -3,8 C 0,0 km/h (0 Bft) 100 %
27.11.2018 23:01 -2,5 C 91 % 1022,7 hPa 0,0 l/m 0,0 km/h (0 Bft) O 86 -3,8 C 0,0 km/h (0 Bft) 100 %
27.11.2018 23:02 -2,5 C 91 % 1022,7 hPa 0,0 l/m 0,0 km/h (0 Bft) O 86 -3,8 C 0,0 km/h (0 Bft) 100 %
27.11.2018 23:03 -2,5 C 91 % 1022,7 hPa 0,0 l/m 0,1 km/h (0 Bft) O 87 -3,8 C 3,1 km/h (1 Bft) 100 %
27.11.2018 23:04 -2,5 C 91 % 1022,7 hPa 0,0 l/m 1,0 km/h (0 Bft) SW 236 -3,8 C 6,3 km/h (2 Bft) 100 %
27.11.2018 23:05 -2,5 C 91 % 1022,7 hPa 0,0 l/m 0,1 km/h (0 Bft) S-SW 210 -3,8 C 3,1 km/h (1 Bft) 100 %
27.11.2018 23:06 -2,5 C 92 % 1022,7 hPa 0,0 l/m 0,6 km/h (0 Bft) O-NO 69 -3,6 C 6,3 km/h (2 Bft) 100 %
27.11.2018 23:07 -2,5 C 92 % 1022,7 hPa 0,0 l/m 0,4 km/h (0 Bft) O-NO 69 -3,6 C 3,1 km/h (1 Bft) 100 %
27.11.2018 23:08 -2,5 C 92 % 1022,7 hPa 0,0 l/m 0,0 km/h (0 Bft) O-NO 69 -3,6 C 0,0 km/h (0 Bft) 100 %
27.11.2018 23:09 -2,5 C 92 % 1022,7 hPa 0,0 l/m 0,0 km/h (0 Bft) O-NO 69 -3,6 C 0,0 km/h (0 Bft) 100 %
27.11.2018 23:10 -2,5 C 92 % 1022,7 hPa 0,0 l/m 0,1 km/h (0 Bft) O-NO 72 -3,6 C 3,1 km/h (1 Bft) 100 %
27.11.2018 23:11 -2,5 C 92 % 1022,7 hPa 0,0 l/m 0,9 km/h (0 Bft) N-NO 27 -3,6 C 6,3 km/h (2 Bft) 100 %
27.11.2018 23:12 -2,5 C 92 % 1022,7 hPa 0,0 l/m 0,0 km/h (0 Bft) NO 49 -3,6 C 0,0 km/h (0 Bft) 100 %
27.11.2018 23:13 -2,5 C 92 % 1022,7 hPa 0,0 l/m 0,0 km/h (0 Bft) NO 49 -3,6 C 0,0 km/h (0 Bft) 100 %
27.11.2018 23:14 -2,5 C 92 % 1022,7 hPa 0,0 l/m 0,5 km/h (0 Bft) O-SO 103 -3,6 C 3,1 km/h (1 Bft) 100 %
27.11.2018 23:15 -2,5 C 92 % 1022,7 hPa 0,0 l/m 0,0 km/h (0 Bft) NO 51 -3,6 C 0,0 km/h (0 Bft) 100 %
27.11.2018 23:16 -2,5 C 92 % 1022,7 hPa 0,0 l/m 0,5 km/h (0 Bft) SO 129 -3,6 C 3,1 km/h (1 Bft) 100 %
27.11.2018 23:17 -2,5 C 92 % 1022,7 hPa 0,0 l/m 4,1 km/h (1 Bft) O-NO 76 -3,6 C 12,6 km/h (3 Bft) 96 %
27.11.2018 23:18 -2,4 C 92 % 1022,7 hPa 0,0 l/m 1,1 km/h (1 Bft) O-SO 106 -3,5 C 3,1 km/h (1 Bft) 100 %
27.11.2018 23:19 -2,4 C 92 % 1022,7 hPa 0,0 l/m 0,0 km/h (0 Bft) O 80 -3,5 C 0,0 km/h (0 Bft) 100 %
27.11.2018 23:20 -2,4 C 92 % 1022,7 hPa 0,0 l/m 3,7 km/h (1 Bft) O-SO 106 -3,5 C 12,6 km/h (3 Bft) 100 %
27.11.2018 23:21 -2,4 C 92 % 1022,6 hPa 0,0 l/m 3,8 km/h (1 Bft) O-NO 59 -3,5 C 12,6 km/h (3 Bft) 100 %
27.11.2018 23:22 -2,4 C 92 % 1022,6 hPa 0,0 l/m 2,6 km/h (1 Bft) O-SO 114 -3,5 C 9,4 km/h (2 Bft) 100 %
27.11.2018 23:23 -2,3 C 92 % 1022,7 hPa 0,0 l/m 1,0 km/h (0 Bft) O 79 -3,4 C 6,3 km/h (2 Bft) 100 %
27.11.2018 23:24 -2,3 C 92 % 1022,6 hPa 0,0 l/m 1,9 km/h (1 Bft) O-NO 70 -3,4 C 9,4 km/h (2 Bft) 100 %
27.11.2018 23:25 -2,3 C 92 % 1022,7 hPa 0,0 l/m 4,4 km/h (1 Bft) SO 128 -3,4 C 9,4 km/h (2 Bft) 100 %
27.11.2018 23:26 -2,3 C 91 % 1022,6 hPa 0,0 l/m 1,9 km/h (1 Bft) O-SO 110 -3,6 C 6,3 km/h (2 Bft) 100 %
27.11.2018 23:27 -2,2 C 91 % 1022,6 hPa 0,0 l/m 1,5 km/h (1 Bft) O 86 -3,5 C 6,3 km/h (2 Bft) 96 %
27.11.2018 23:28 -2,2 C 91 % 1022,7 hPa 0,0 l/m 2,3 km/h (1 Bft) O-NO 77 -3,5 C 9,4 km/h (2 Bft) 100 %
27.11.2018 23:29 -2,2 C 91 % 1022,7 hPa 0,0 l/m 2,6 km/h (1 Bft) O-NO 78 -3,5 C 9,4 km/h (2 Bft) 96 %
27.11.2018 23:30 -2,2 C 91 % 1022,7 hPa 0,0 l/m 7,6 km/h (2 Bft) O-SO 107 -3,5 C 18,8 km/h (3 Bft) 100 %
27.11.2018 23:31 -2,2 C 91 % 1022,7 hPa 0,0 l/m 0,0 km/h (0 Bft) O-NO 58 -3,5 C 0,0 km/h (0 Bft) 100 %
27.11.2018 23:32 -2,2 C 91 % 1022,7 hPa 0,0 l/m 0,0 km/h (0 Bft) O 84 -3,5 C 0,0 km/h (0 Bft) 97 %
27.11.2018 23:33 -2,1 C 91 % 1022,7 hPa 0,0 l/m 2,9 km/h (1 Bft) O 82 -3,4 C 9,4 km/h (2 Bft) 97 %
27.11.2018 23:34 -2,1 C 91 % 1022,7 hPa 0,0 l/m 2,0 km/h (1 Bft) O-NO 64 -3,4 C 6,3 km/h (2 Bft) 100 %
27.11.2018 23:35 -2,1 C 91 % 1022,6 hPa 0,0 l/m 1,8 km/h (1 Bft) SO 124 -3,4 C 6,3 km/h (2 Bft) 96 %
27.11.2018 23:36 -2,1 C 91 % 1022,6 hPa 0,0 l/m 1,2 km/h (1 Bft) O-SO 109 -3,4 C 6,3 km/h (2 Bft) 96 %
27.11.2018 23:37 -2,1 C 91 % 1022,6 hPa 0,0 l/m 5,0 km/h (1 Bft) O-SO 106 -3,4 C 12,6 km/h (3 Bft) 100 %
27.11.2018 23:38 -2,1 C 91 % 1022,6 hPa 0,0 l/m 1,8 km/h (1 Bft) O-NO 60 -3,4 C 6,3 km/h (2 Bft) 99 %
27.11.2018 23:39 -2,1 C 91 % 1022,6 hPa 0,0 l/m 0,3 km/h (0 Bft) NO 39 -3,4 C 3,1 km/h (1 Bft) 97 %
27.11.2018 23:40 -2,1 C 91 % 1022,6 hPa 0,0 l/m 0,9 km/h (0 Bft) NO 43 -3,4 C 6,3 km/h (2 Bft) 96 %
27.11.2018 23:41 -2,1 C 91 % 1022,7 hPa 0,0 l/m 0,9 km/h (0 Bft) S-SW 212 -3,4 C 3,1 km/h (1 Bft) 100 %
27.11.2018 23:42 -2,1 C 91 % 1022,7 hPa 0,0 l/m 0,0 km/h (0 Bft) S-SW 212 -3,4 C 0,0 km/h (0 Bft) 96 %
27.11.2018 23:43 -2,1 C 91 % 1022,8 hPa 0,0 l/m 3,9 km/h (1 Bft) O 90 -3,4 C 15,7 km/h (3 Bft) 100 %
27.11.2018 23:44 -2,1 C 91 % 1022,8 hPa 0,0 l/m 3,1 km/h (1 Bft) O 88 -3,4 C 9,4 km/h (2 Bft) 96 %
27.11.2018 23:45 -2,1 C 91 % 1022,8 hPa 0,0 l/m 0,0 km/h (0 Bft) O 88 -3,4 C 0,0 km/h (0 Bft) 100 %
27.11.2018 23:46 -2,0 C 91 % 1022,9 hPa 0,0 l/m 0,3 km/h (0 Bft) O-SO 117 -3,3 C 3,1 km/h (1 Bft) 96 %
27.11.2018 23:47 -2,0 C 91 % 1022,9 hPa 0,0 l/m 0,0 km/h (0 Bft) O-SO 117 -3,3 C 0,0 km/h (0 Bft) 100 %
27.11.2018 23:48 -2,0 C 91 % 1022,9 hPa 0,0 l/m 3,9 km/h (1 Bft) O-NO 62 -3,3 C 9,4 km/h (2 Bft) 92 %
27.11.2018 23:49 -1,9 C 91 % 1022,9 hPa 0,0 l/m 0,5 km/h (0 Bft) N 4 -3,2 C 3,1 km/h (1 Bft) 98 %
27.11.2018 23:50 -1,9 C 91 % 1022,9 hPa 0,0 l/m 0,0 km/h (0 Bft) N 4 -3,2 C 0,0 km/h (0 Bft) 100 %
27.11.2018 23:51 -1,9 C 91 % 1022,9 hPa 0,0 l/m 0,0 km/h (0 Bft) N 4 -3,2 C 0,0 km/h (0 Bft) 96 %
27.11.2018 23:52 -1,9 C 91 % 1022,9 hPa 0,0 l/m 0,0 km/h (0 Bft) N 4 -3,2 C 0,0 km/h (0 Bft) 100 %
27.11.2018 23:53 -1,9 C 91 % 1022,9 hPa 0,0 l/m 0,1 km/h (0 Bft) N 4 -3,2 C 3,1 km/h (1 Bft) 96 %
27.11.2018 23:54 -1,9 C 91 % 1022,8 hPa 0,0 l/m 0,3 km/h (0 Bft) NO 45 -3,2 C 3,1 km/h (1 Bft) 100 %
27.11.2018 23:55 -1,9 C 91 % 1022,9 hPa 0,0 l/m 0,0 km/h (0 Bft) NO 45 -3,2 C 0,0 km/h (0 Bft) 100 %
27.11.2018 23:56 -1,9 C 91 % 1022,9 hPa 0,0 l/m 0,0 km/h (0 Bft) NO 45 -3,2 C 0,0 km/h (0 Bft) 96 %
27.11.2018 23:57 -1,9 C 91 % 1022,9 hPa 0,0 l/m 0,0 km/h (0 Bft) NO 45 -3,2 C 0,0 km/h (0 Bft) 100 %
27.11.2018 23:58 -1,9 C 91 % 1022,9 hPa 0,0 l/m 0,0 km/h (0 Bft) NO 45 -3,2 C 0,0 km/h (0 Bft) 100 %
27.11.2018 23:59 -1,9 C 91 % 1023,0 hPa 0,0 l/m 0,0 km/h (0 Bft) NO 45 -3,2 C 0,0 km/h (0 Bft) 96 %
_ Min-Zeit 22:09 13:28 00:00 - 00:01 - - 22:09 00:01 06:50
Minimum _ -2,8 C 74 % 1015,1 hPa - 0,0 km/h (0 Bft) - - -3,9 C 0,0 km/h (0 Bft) 88 %
_ Max-Zeit 13:34 00:00 23:59 00:00 23:30 - - 02:38 23:30 00:00
Maximum _ 3,5 C 93 % 1023,0 hPa 0,0 l/m 7,6 km/h
O-SO (2 Bft)
- - 1,2 C 18,8 km/h
O-NO (3 Bft)
100 %
Durchschnitt _ 1,0 C 88 % 1019,3 hPa #0,0 l/m 0,6 km/h (0 Bft) O-NO - -0,9 C 2,4 km/h (1 Bft) 99 %